[[[{"header":{"parameterUnit":"kt","parameterCategory":2,"dx":1,"dy":1,"la1":29.285339999999998,"la2":30.599998999999997,"lo1":-89.70041500000002,"lo2":-87.6738589999976,"nx":112,"ny":82,"refTime":"2022-09-22T06:00:00:Z","depth":0,"parameterNumber":1,"parameterNumberName":"U-component_of_WINDS"},"data":[-0.8771,-0.9936,-1.0593,-0.846,-0.8083,-0.7714,-0.5373,-0.4918,-0.5022,-0.4923,-0.4659,-0.4933,-0.658,-0.5624,-0.45,-0.4271,-0.2935,-0.1474,0.0,-0.1044,-0.1348,0.0,0.0,0.0,0.0,0.0,0.0,0.0,-2.4521,-2.7079,-2.7805,-2.8574,-2.9604,-3.0778,-3.0822,-3.0782,-3.0737,-2.9946,-2.8708,-2.7115,-2.6138,-2.5188,-2.4126,-2.4508,-2.4734,-2.4769,-2.5437,-2.5941,-2.6319,-2.6406,-2.7267,-2.8422,-2.8422,-2.9444,-3.0951,-3.0719,-3.1294,-3.219,-3.2689,-3.2867,-3.2867,-3.2867,-3.2867,-3.2867,-3.2867,-3.2867,-3.2867,-3.2867,-3.2867,-3.2867,-3.2714,-3.2579,-3.2579,-3.2462,-3.2462,-3.2462,-3.2462,-3.2462,-3.2309,-3.2156,-3.2309,-3.2309,-3.1766,-3.1902,-3.2156,-3.2444,-3.2579,-3.2579,-3.2579,-3.2579,-3.2579,-3.2579,-3.2579,-3.2462,-3.2462,-3.2462,-3.2462,-3.2462,-3.2462,-3.2462,-3.2462,-3.2462,-3.2321,-3.2039,-3.2039,-3.1615,-3.0656,-3.0656,-2.984,-2.8454,-2.8454,-2.9138,-0.7408,-0.8437,-0.9001,-0.6449,-0.6347,-0.629,-0.3973,-0.3299,-0.3202,-0.3295,-0.3722,-0.4143,-0.4407,-0.4406,-0.4097,-0.3287,-0.1393,-0.0463,0.0,-0.1431,-0.1043,-0.1043,-0.2278,0.0,0.0,0.0,0.0,0.0,-2.2993,-2.6609,-2.9701,-3.0517,-3.1465,-3.2348,-3.263,-3.2651,-3.2609,-3.2097,-3.0973,-2.9411,-2.822,-2.7083,-2.5971,-2.5711,-2.54,-2.5237,-2.5476,-2.5844,-2.6265,-2.6325,-2.7101,-2.8283,-2.8283,-2.9153,-3.0599,-3.0961,-3.1394,-3.1833,-3.26,-3.2867,-3.2867,-3.2867,-3.2867,-3.2867,-3.2867,-3.2867,-3.2867,-3.2867,-3.2867,-3.2867,-3.2867,-3.2867,-3.2867,-3.2867,-3.2867,-3.2867,-3.2867,-3.2867,-3.2714,-3.2562,-3.2714,-3.2732,-3.2191,-3.2291,-3.2562,-3.2867,-3.2867,-3.2867,-3.2867,-3.2867,-3.2867,-3.2867,-3.2867,-3.2867,-3.2867,-3.2867,-3.2867,-3.2867,-3.2867,-3.2867,-3.2867,-3.2867,-3.2867,-3.2867,-3.2867,-3.2714,-3.2427,-3.2427,-3.1885,-3.0656,-3.0656,-3.1477,-0.6938,-0.6734,-0.6578,-0.5384,-0.4988,-0.4639,-0.3604,-0.3521,-0.3638,-0.3421,-0.3749,-0.4019,-0.3801,-0.4138,-0.3896,-0.2217,-0.0886,0.0,0.0,-0.4443,-0.355,-0.3894,-0.5586,-1.1219,-2.2674,-2.8423,-2.8391,-2.0995,-2.0256,-2.371,-3.1965,-3.2807,-3.3552,-3.4406,-3.4962,-3.5153,-3.5153,-3.462,-3.3716,-3.2329,-3.1788,-3.0789,-2.9355,-2.8501,-2.7512,-2.6512,-2.6215,-2.5981,-2.5862,-2.6738,-2.7543,-2.8162,-2.8197,-2.8778,-2.9632,-3.1651,-3.2116,-3.191,-3.2546,-3.2831,-3.2867,-3.2867,-3.2867,-3.2867,-3.2867,-3.2867,-3.2867,-3.2867,-3.2867,-3.2867,-3.2867,-3.2867,-3.2867,-3.2867,-3.2867,-3.2867,-3.2867,-3.2867,-3.2867,-3.2867,-3.2867,-3.2867,-3.2867,-3.2867,-3.2984,-3.2984,-3.3002,-3.2867,-3.2867,-3.2867,-3.2867,-3.2867,-3.2867,-3.2867,-3.2867,-3.2867,-3.2867,-3.2867,-3.2867,-3.2867,-3.2867,-3.2867,-3.2867,-3.2867,-3.2867,-3.2867,-3.2867,-3.2867,-3.2867,-3.2867,-3.2867,-3.2867,-0.618,-0.6766,-0.7451,-0.5972,-0.5865,-0.5811,-0.4562,-0.4055,-0.4,-0.459,-0.4148,0.0,0.0,0.0,-0.4685,-0.5793,0.0,-0.2761,-0.5451,-0.832,-1.3071,-2.0938,-1.9467,-2.0914,-2.891,-3.0891,-3.0917,-2.9205,-3.0486,-3.2112,-3.3977,-3.4639,-3.5074,-3.5364,-3.5281,-3.5153,-3.5153,-3.5047,-3.4339,-3.3055,-3.2397,-3.1433,-3.0206,-2.9315,-2.8446,-2.759,-2.7492,-2.6943,-2.6027,-2.6824,-2.7748,-2.866,-2.9277,-3.022,-3.14,-3.236,-3.3126,-3.366,-3.3368,-3.3782,-3.4285,-3.3118,-3.2867,-3.2867,-3.2867,-3.2867,-3.2867,-3.2867,-3.2867,-3.2867,-3.2867,-3.2867,-3.2867,-3.2867,-3.2867,-3.2867,-3.2867,-3.2867,-3.2867,-3.2867,-3.2867,-3.2867,-3.2867,-3.3771,-3.4664,-3.5717,-3.506,-3.4418,-3.4418,-3.3503,-3.2867,-3.2867,-3.2867,-3.2867,-3.2867,-3.2867,-3.2867,-3.2867,-3.2867,-3.2867,-3.2867,-3.2867,-3.2867,-3.2867,-3.2867,-3.2867,-3.2867,-3.2867,-3.2867,-3.2867,-3.2867,-3.2867,-0.5845,-0.6528,-0.7385,-0.5815,-0.6138,-0.644,-0.4867,-0.4595,-0.4528,-0.3907,0.0,0.0,0.0,0.0,0.0,0.0,-0.5654,-0.6206,-0.9522,-1.3176,-1.7934,-2.451,-2.503,-2.6369,-3.0338,-3.0584,-3.1652,-3.4619,-3.4148,-3.4313,-3.5624,-3.625,-3.6263,-3.5891,-3.5598,-3.547,-3.5576,-3.547,-3.513,-3.4533,-3.409,-3.3514,-3.2652,-3.1799,-3.0774,-2.973,-2.8963,-2.816,-2.7412,-2.7467,-2.8431,-2.9799,-3.0834,-3.1931,-3.315,-3.358,-3.3801,-3.394,-3.3725,-3.4436,-3.5264,-3.4378,-3.4513,-3.4796,-3.4909,-3.4928,-3.4796,-3.4909,-3.4909,-3.4909,-3.4909,-3.4909,-3.4909,-3.4909,-3.4909,-3.4777,-3.4,-3.4399,-3.455,-3.3886,-3.3771,-3.4019,-3.4777,-3.5678,-3.646,-3.7236,-3.672,-3.62,-3.62,-3.506,-3.4152,-3.3867,-3.3369,-3.2984,-3.2867,-3.2867,-3.2867,-3.2867,-3.2867,-3.2867,-3.2867,-3.2867,-3.2867,-3.2867,-3.2867,-3.2867,-3.2867,-3.2867,-3.2867,-3.2867,-3.2867,-3.2867,-0.5785,-0.6076,-0.6631,-0.5279,-0.5916,-0.658,-0.5355,0.0,-0.6205,-0.408,0.0,-0.5515,-0.6069,0.0,0.0,-0.595,-0.8353,-1.1615,-1.5644,-1.8888,-2.1143,-2.1724,-2.6239,-2.9291,-2.9431,-2.9448,-3.1831,-3.7592,-3.444,-3.3718,-3.7058,-3.7679,-3.7373,-3.639,-3.5996,-3.5891,-3.6182,-3.5891,-3.5891,-3.6182,-3.6182,-3.5996,-3.5786,-3.488,-3.3773,-3.2406,-3.0708,-2.9741,-2.9432,-2.8677,-2.9452,-3.1308,-3.2445,-3.3547,-3.4511,-3.5014,-3.4571,-3.3971,-3.4319,-3.523,-3.6373,-3.6249,-3.682,-3.7642,-3.7857,-3.7729,-3.7642,-3.7857,-3.7836,-3.7836,-3.7836,-3.7836,-3.7836,-3.7836,-3.7836,-3.7452,-3.6031,-3.67,-3.7127,-3.5567,-3.5304,-3.5959,-3.7985,-3.824,-3.8219,-3.8367,-3.824,-3.8091,-3.8091,-3.6978,-3.607,-3.577,-3.4645,-3.3771,-3.3253,-3.3118,-3.3118,-3.2984,-3.2867,-3.2867,-3.2867,-3.2867,-3.2867,-3.2867,-3.2867,-3.2867,-3.2867,-3.2867,-3.2867,-3.2867,-3.2867,-3.2867,-0.5493,-0.5204,-0.548,-0.5477,-0.5253,-0.5882,0.0,0.0,0.0,-1.4934,-1.2846,-1.2403,-1.7861,-1.4233,-1.0912,-1.2458,-1.7098,-2.0101,-1.9008,-2.5988,-3.1286,-3.1627,-3.2618,-3.3399,-3.3579,-3.3655,-3.4758,-3.742,-3.889,-3.9507,-3.9426,-3.8958,-3.8385,-3.7702,-3.6701,-3.6077,-3.6182,-3.6077,-3.6077,-3.6182,-3.6182,-3.6182,-3.6077,-3.5872,-3.5141,-3.4145,-3.3761,-3.2163,-3.005,-3.046,-3.103,-3.1694,-3.2896,-3.3923,-3.5004,-3.5673,-3.6814,-3.7778,-3.6802,-3.7727,-3.9099,-3.7948,-3.7692,-3.7857,-3.7836,-3.7857,-3.7857,-3.7836,-3.7836,-3.7836,-3.7836,-3.7836,-3.7836,-3.7836,-3.7836,-3.7836,-3.7452,-3.7581,-3.7729,-3.7452,-3.7324,-3.824,-4.0858,-4.0442,-4.0046,-4.1128,-4.0317,-3.9628,-3.9628,-3.8367,-3.7452,-3.7452,-3.7196,-3.657,-3.5455,-3.5022,-3.4513,-3.3369,-3.2984,-3.2867,-3.2867,-3.2867,-3.2867,-3.2867,-3.2867,-3.2867,-3.2867,-3.2867,-3.2867,-3.2867,-3.2867,-3.2867,-0.5611,-0.5256,-0.5163,-0.4842,-0.5164,0.0,0.0,-1.6065,-2.108,-1.894,-1.6689,-1.6619,-2.1283,-1.8938,-1.6406,-1.6917,-2.1474,-2.5505,-2.6956,-3.1314,-3.4539,-3.4957,-3.4566,-3.4582,-3.568,-3.6022,-3.6832,-3.8056,-4.0506,-4.1523,-4.0519,-4.0423,-4.0062,-3.9279,-3.8536,-3.8135,-3.826,-3.7475,-3.7216,-3.7295,-3.6804,-3.6494,-3.6309,-3.6309,-3.6033,-3.5403,-3.4798,-3.3528,-3.1744,-3.1627,-3.2035,-3.2796,-3.3394,-3.4307,-3.533,-3.6044,-3.6952,-3.7717,-3.6907,-3.7759,-3.8968,-3.8244,-3.8784,-3.9695,-3.9572,-3.9901,-4.0544,-4.0544,-4.0544,-4.0544,-4.0544,-4.0544,-4.0544,-4.0544,-4.0544,-4.0274,-3.9503,-3.9775,-4.0025,-3.9126,-3.9775,-4.0937,-4.2399,-4.2132,-4.1842,-4.2543,-4.2109,-4.1575,-4.1575,-4.0296,-3.9399,-3.9252,-3.8599,-3.7836,-3.6958,-3.6829,-3.6421,-3.5659,-3.4645,-3.4133,-3.4133,-3.3235,-3.2867,-3.2867,-3.2867,-3.2867,-3.2867,-3.2867,-3.2867,-3.2867,-3.2867,-3.2867,-0.5444,-0.5136,-0.4939,-0.4404,-0.5271,0.0,-0.9745,-1.8467,-2.4975,-2.1729,-2.092,-2.1458,-2.3674,-2.3366,-2.2642,-2.2163,-2.5486,-2.979,-3.4709,-3.5521,-3.5828,-3.6171,-3.5395,-3.5385,-3.6787,-3.7325,-3.8016,-3.9045,-4.0706,-4.1604,-4.1255,-4.1711,-4.1617,-4.0832,-4.0398,-4.0301,-4.0423,-3.9082,-3.8409,-3.8585,-3.7523,-3.6931,-3.6644,-3.6644,-3.6517,-3.624,-3.5436,-3.4615,-3.372,-3.275,-3.2773,-3.3659,-3.3775,-3.4243,-3.4944,-3.598,-3.6482,-3.6667,-3.662,-3.7488,-3.8475,-3.8475,-3.9723,-4.1186,-4.0932,-4.1629,-4.2517,-4.2517,-4.2681,-4.2844,-4.2844,-4.2985,-4.3148,-4.3148,-4.3148,-4.2763,-4.1452,-4.1965,-4.2231,-4.0937,-4.1965,-4.3148,-4.3148,-4.3148,-4.3148,-4.3148,-4.3148,-4.3148,-4.3148,-4.2109,-4.1329,-4.1184,-4.0149,-3.9126,-3.862,-3.8494,-3.8346,-3.8091,-3.668,-3.577,-3.5528,-3.4133,-3.3253,-3.2984,-3.2984,-3.2984,-3.2867,-3.2984,-3.2984,-3.2867,-3.2867,-3.2867,-0.3977,-0.3728,-0.4025,-0.5311,-0.5343,0.0,-1.5052,-1.629,-1.8564,-2.8346,-3.047,-3.0708,-3.1367,-3.0626,-3.031,-3.1336,-3.2446,-3.4334,-3.7567,-3.8454,-3.8685,-3.8521,-3.7965,-3.7662,-3.7621,-3.7271,-3.7839,-3.9903,-3.9707,-4.0363,-4.2439,-4.2204,-4.2018,-4.2177,-4.1187,-4.0615,-4.0423,-3.9549,-3.9057,-3.8859,-3.7726,-3.7263,-3.7184,-3.7034,-3.6931,-3.6804,-3.6688,-3.6058,-3.5033,-3.4007,-3.3284,-3.2808,-3.3565,-3.3355,-3.2795,-3.4851,-3.6136,-3.7048,-3.7959,-3.8879,-3.9788,-3.9788,-4.0063,-4.0227,-4.0137,-4.0273,-4.0433,-4.0433,-4.1021,-4.1769,-4.1769,-4.2447,-4.3148,-4.3148,-4.3148,-4.3125,-4.2884,-4.3004,-4.3004,-4.2884,-4.3004,-4.3148,-4.3148,-4.3148,-4.3148,-4.3148,-4.3148,-4.3148,-4.3148,-4.3004,-4.2884,-4.2884,-4.274,-4.2109,-4.0814,-4.042,-3.9753,-3.8473,-3.7964,-3.7087,-3.5959,-3.5717,-3.4947,-3.3369,-3.3369,-3.3253,-3.2867,-3.3253,-3.3235,-3.2867,-3.2867,-3.2867,-0.4455,-0.4062,-0.3743,-0.4339,0.0,0.0,-1.0867,-1.7451,-2.4109,-2.9145,-3.3762,-3.6267,-3.4082,-3.3613,-3.3828,-3.4527,-3.5571,-3.7162,-3.9616,-4.001,-4.0105,-4.0362,-3.9488,-3.8817,-3.8749,-3.7976,-3.8266,-4.0227,-3.9959,-4.0839,-4.3409,-4.3519,-4.3457,-4.354,-4.3059,-4.2849,-4.2666,-4.159,-4.0997,-4.0902,-3.9279,-3.8784,-3.9378,-3.8485,-3.8184,-3.826,-3.8184,-3.7205,-3.5856,-3.603,-3.5477,-3.4435,-3.4175,-3.4034,-3.4196,-3.5061,-3.6019,-3.6978,-3.7398,-3.7842,-3.824,-3.824,-3.8637,-3.9128,-3.9128,-3.9549,-4.004,-4.004,-4.0367,-4.0694,-4.0671,-4.1442,-4.2237,-4.2237,-4.2704,-4.3148,-4.3148,-4.3148,-4.3148,-4.3148,-4.3148,-4.3148,-4.3148,-4.3148,-4.3148,-4.3148,-4.3148,-4.3148,-4.3148,-4.3148,-4.3148,-4.3148,-4.3148,-4.2884,-4.2376,-4.2109,-4.1842,-4.1184,-4.0149,-3.8873,-3.7473,-3.646,-3.5343,-3.3807,-3.3807,-3.3673,-3.3558,-3.3673,-3.3521,-3.3118,-3.2984,-3.2867,-0.5393,0.0,0.0,0.0,0.0,0.0,-1.177,-2.1818,-3.0522,-3.1221,-3.6106,-3.9131,-3.5362,-3.5142,-3.5738,-3.6628,-3.7589,-3.899,-4.1414,-4.1537,-4.1419,-4.1663,-4.0709,-4.001,-3.9881,-3.8817,-3.8873,-4.0406,-4.0496,-4.1455,-4.37,-4.4324,-4.455,-4.4459,-4.4487,-4.4487,-4.437,-4.3214,-4.2639,-4.2574,-4.0711,-4.0205,-4.0902,-3.9842,-3.9549,-3.972,-3.9549,-3.8709,-3.7725,-3.844,-3.7955,-3.6752,-3.533,-3.4929,-3.517,-3.4812,-3.5397,-3.6415,-3.7,-3.7184,-3.7216,-3.7499,-3.7918,-3.8241,-3.8241,-3.8698,-3.9331,-3.9331,-3.9198,-3.9245,-3.9502,-4.0367,-4.1185,-4.1185,-4.198,-4.2704,-4.2704,-4.2494,-4.2377,-4.2658,-4.2704,-4.2798,-4.3078,-4.3148,-4.3148,-4.3148,-4.3148,-4.3148,-4.3148,-4.3148,-4.3148,-4.3148,-4.3148,-4.3148,-4.3148,-4.3148,-4.3148,-4.3148,-4.1965,-4.0668,-3.9252,-3.8005,-3.674,-3.5211,-3.4834,-3.4721,-3.4607,-3.4966,-3.5079,-3.4664,-3.4285,-3.3886,0.0,0.0,0.0,-0.5915,-0.6187,-0.9996,-2.2962,-3.0195,-3.4862,-3.7034,-3.8744,-3.8932,-3.5901,-3.5598,-3.6513,-3.895,-3.9058,-3.9983,-4.3238,-4.3312,-4.2915,-4.2428,-4.187,-4.1358,-4.0803,-3.971,-3.9498,-4.0514,-4.0956,-4.169,-4.291,-4.4216,-4.4898,-4.4868,-4.4868,-4.4753,-4.4493,-4.376,-4.3222,-4.3123,-4.1751,-4.1161,-4.1161,-4.0902,-4.0807,-4.0807,-4.0807,-4.104,-4.1391,-4.1203,-4.0455,-3.9331,-3.7025,-3.5521,-3.4534,-3.3471,-3.3808,-3.4953,-3.701,-3.7655,-3.7828,-3.8859,-3.8509,-3.7696,-3.7696,-3.7515,-3.7357,-3.7357,-3.7231,-3.7235,-3.824,-3.9315,-4.011,-4.011,-4.0904,-4.1652,-4.1652,-4.0858,-4.046,-4.1442,-4.1652,-4.198,-4.2961,-4.3148,-4.3148,-4.3148,-4.3148,-4.3148,-4.3148,-4.3148,-4.3148,-4.3148,-4.3148,-4.3148,-4.3148,-4.3148,-4.3148,-4.3148,-4.3125,-4.2474,-4.0937,-4.0937,-4.0046,-3.8346,-3.7087,-3.635,-3.5848,-3.7601,-3.824,-3.7898,-3.7514,-3.648,-0.9752,-0.9937,-0.9299,-0.9405,-1.4537,-2.0896,-2.6164,-3.3512,-3.9041,-3.86,-3.9625,-3.953,-3.6005,-3.602,-3.7429,-4.0079,-4.0317,-4.1101,-4.3662,-4.3737,-4.3389,-4.2948,-4.2543,-4.2016,-4.1419,-4.0896,-4.0686,-4.0754,-4.0852,-4.1706,-4.343,-4.3753,-4.4384,-4.5414,-4.5272,-4.5071,-4.5043,-4.4783,-4.4522,-4.4314,-4.3312,-4.3131,-4.3637,-4.2859,-4.2466,-4.2466,-4.2428,-4.2493,-4.2741,-4.2612,-4.191,-4.076,-3.915,-3.8179,-3.7448,-3.5782,-3.5243,-3.5643,-3.7218,-3.7744,-3.7971,-3.9686,-4.0037,-3.9745,-3.9745,-3.9745,-3.9476,-3.8784,-3.856,-3.8357,-3.7871,-3.7936,-3.8383,-3.8824,-3.9806,-4.0601,-4.0601,-4.0521,-4.0691,-4.1047,-4.1549,-4.1932,-4.2261,-4.28,-4.3148,-4.3148,-4.3148,-4.3148,-4.3148,-4.3148,-4.3148,-4.3148,-4.3148,-4.3148,-4.3148,-4.3148,-4.3148,-4.3148,-4.3148,-4.2497,-4.1061,-4.1061,-4.0317,-3.8916,-3.8408,-3.8536,-3.9294,-3.9042,-3.8641,-3.8367,-3.824,-3.7729,-1.322,-1.3382,-1.3081,-1.713,-2.4476,-3.1038,-3.2474,-3.8491,-4.308,-4.0745,-4.083,-4.0232,-3.6473,-3.6584,-3.8193,-4.0975,-4.1206,-4.1891,-4.4456,-4.448,-4.3978,-4.3422,-4.3192,-4.2794,-4.2074,-4.1747,-4.1488,-4.1231,-4.1795,-4.2765,-4.4123,-4.4838,-4.5563,-4.6252,-4.6003,-4.578,-4.5471,-4.55,-4.5358,-4.5214,-4.4609,-4.4522,-4.5013,-4.4318,-4.4026,-4.4026,-4.4082,-4.4082,-4.4026,-4.3965,-4.3519,-4.2814,-4.1172,-4.0422,-3.9827,-3.7337,-3.6503,-3.6734,-3.7448,-3.7998,-3.8699,-4.0417,-4.1008,-4.1066,-4.1066,-4.1092,-4.0781,-4.0205,-3.9914,-3.9647,-3.8809,-3.8609,-3.868,-3.9237,-3.9548,-3.9864,-4.0266,-4.0584,-4.0787,-4.0775,-4.1186,-4.1541,-4.1634,-4.2022,-4.2495,-4.2873,-4.292,-4.2942,-4.3198,-4.3245,-4.3245,-4.3148,-4.3148,-4.3148,-4.3148,-4.3148,-4.3148,-4.3148,-4.3148,-4.2763,-4.1842,-4.172,-4.1352,-4.0588,-4.0068,-4.0464,-4.172,-4.096,-4.0317,-3.99,-3.99,-3.9796,-1.678,-1.7193,-1.8337,-2.8326,-3.4987,-3.9575,-4.1434,-4.4868,-4.6766,-4.3532,-4.2429,-4.0997,-3.734,-3.7356,-3.8897,-4.178,-4.1821,-4.2558,-4.5656,-4.5567,-4.4783,-4.3941,-4.3889,-4.3645,-4.2873,-4.2389,-4.2042,-4.1807,-4.3522,-4.4677,-4.4908,-4.7147,-4.8115,-4.7567,-4.722,-4.6686,-4.5948,-4.5838,-4.5698,-4.5698,-4.5414,-4.5329,-4.5329,-4.5329,-4.5329,-4.5329,-4.5613,-4.5528,-4.5329,-4.5329,-4.5329,-4.5129,-4.3111,-4.2181,-4.1507,-3.8371,-3.7577,-3.8128,-3.791,-3.8635,-3.9755,-4.0923,-4.1469,-4.1646,-4.1725,-4.1538,-4.135,-4.1376,-4.1161,-4.0902,-4.0902,-4.0807,-4.0807,-4.0807,-4.0011,-3.9622,-4.0615,-4.0807,-4.0854,-4.0853,-4.0874,-4.0911,-4.0921,-4.099,-4.1397,-4.2404,-4.2595,-4.2771,-4.3559,-4.3581,-4.3485,-4.3269,-4.3269,-4.3269,-4.3269,-4.3269,-4.3125,-4.3148,-4.3148,-4.3148,-4.3148,-4.3148,-4.3148,-4.3148,-4.1842,-4.1842,-4.3148,-4.3148,-4.3004,-4.2642,-4.2642,-4.252,-2.0512,-2.5743,-2.9695,-3.371,-3.8303,-4.1964,-4.2635,-4.5663,-4.7504,-4.4415,-4.3592,-4.2427,-3.9042,-3.8548,-3.9587,-4.2569,-4.2784,-4.3504,-4.6118,-4.6026,-4.5381,-4.4688,-4.4384,-4.4097,-4.3645,-4.3539,-4.2984,-4.2042,-4.2504,-4.3437,-4.4815,-4.5522,-4.6651,-4.8588,-4.7959,-4.7439,-4.7039,-4.6447,-4.6007,-4.5698,-4.5725,-4.5641,-4.5613,-4.5641,-4.5696,-4.5725,-4.5669,-4.5613,-4.5613,-4.5329,-4.5414,-4.5471,-4.4785,-4.4015,-4.3019,-4.1428,-3.9794,-3.8313,-3.9188,-3.9107,-3.9053,-4.1763,-4.2632,-4.2766,-4.383,-4.3904,-4.3547,-4.2822,-4.2612,-4.2336,-4.1376,-4.1066,-4.1092,-4.0902,-4.0615,-4.0519,-4.0807,-4.1161,-4.1455,-4.1361,-4.1894,-4.2268,-4.2272,-4.3492,-4.4577,-4.4772,-4.4859,-4.5072,-4.5228,-4.4507,-4.3963,-4.3868,-4.3844,-4.3844,-4.3844,-4.3844,-4.3725,-4.3462,-4.3462,-4.3462,-4.3462,-4.3462,-4.3462,-4.3462,-4.3078,-4.3078,-4.3462,-4.3245,-4.3125,-4.3004,-4.3004,-4.3028,-2.1821,-3.2008,-4.0892,-4.1928,-4.4065,-4.5989,-4.6132,-4.7652,-4.8115,-4.4953,-4.4195,-4.3121,-3.9857,-3.9081,-3.9972,-4.3096,-4.3372,-4.4119,-4.6767,-4.6845,-4.631,-4.5426,-4.5224,-4.4838,-4.425,-4.4148,-4.3804,-4.2951,-4.3404,-4.4386,-4.6076,-4.6649,-4.7852,-4.9696,-4.9279,-4.8605,-4.7785,-4.715,-4.6529,-4.5923,-4.5894,-4.5809,-4.5754,-4.578,-4.6115,-4.6529,-4.6174,-4.5923,-4.5923,-4.5669,-4.5669,-4.5754,-4.5641,-4.5152,-4.4488,-4.3304,-4.1499,-3.9782,-3.9822,-3.9428,-3.9302,-4.1737,-4.2788,-4.3332,-4.47,-4.5013,-4.4724,-4.4286,-4.4082,-4.3904,-4.3068,-4.2886,-4.2768,-4.252,-4.2151,-4.1938,-4.252,-4.2859,-4.3068,-4.2859,-4.2939,-4.2827,-4.2321,-4.3199,-4.4015,-4.4509,-4.5177,-4.5489,-4.5244,-4.5547,-4.5426,-4.4178,-4.4567,-4.4624,-4.42,-4.4106,-4.4082,-4.3844,-4.382,-4.382,-4.382,-4.382,-4.382,-4.382,-4.3939,-4.3939,-4.382,-4.3485,-4.3365,-4.3365,-4.3245,-4.3148,-2.3125,-3.6248,-4.89,-4.9753,-4.9957,-4.9962,-4.9948,-4.9754,-4.8629,-4.5236,-4.4442,-4.3441,-4.0411,-3.9423,-4.0163,-4.3408,-4.3732,-4.4585,-4.7495,-4.7765,-4.7273,-4.623,-4.6143,-4.5801,-4.4824,-4.4616,-4.4418,-4.425,-4.4894,-4.6072,-4.7781,-4.8826,-4.9823,-5.0884,-5.0742,-4.9998,-4.859,-4.799,-4.736,-4.6611,-4.6364,-4.6169,-4.6169,-4.6252,-4.6745,-4.742,-4.6804,-4.6423,-4.634,-4.6061,-4.5948,-4.5864,-4.5864,-4.5809,-4.5638,-4.4455,-4.2993,-4.1589,-4.0334,-3.9731,-3.9673,-4.1166,-4.2292,-4.3381,-4.4898,-4.5329,-4.5329,-4.5329,-4.5329,-4.5243,-4.5042,-4.4955,-4.4868,-4.4666,-4.4021,-4.3754,-4.4753,-4.4955,-4.4868,-4.4666,-4.4021,-4.3186,-4.219,-4.2231,-4.2685,-4.3508,-4.458,-4.5147,-4.4687,-4.6309,-4.6762,-4.4543,-4.5346,-4.5681,-4.4742,-4.4766,-4.4766,-4.4649,-4.4531,-4.4413,-4.4413,-4.4319,-4.4319,-4.4766,-4.4766,-4.4649,-4.4413,-4.3677,-4.3369,-4.3369,-4.3013,-4.2917,-3.0591,-3.7584,-4.4138,-4.8794,-4.9957,-4.9962,-4.9966,-4.9856,-4.8756,-4.5358,-4.4662,-4.4048,-4.208,-4.0351,-4.0305,-4.3566,-4.3981,-4.4891,-4.7873,-4.7999,-4.7661,-4.737,-4.6954,-4.646,-4.5844,-4.5549,-4.5224,-4.4616,-4.4587,-4.5603,-4.8169,-4.8197,-4.9344,-5.211,-5.1452,-5.0774,-5.0291,-4.9573,-4.8951,-4.8498,-4.8268,-4.8067,-4.802,-4.8268,-4.8191,-4.7707,-4.7628,-4.718,-4.6618,-4.634,-4.6228,-4.6145,-4.5977,-4.5977,-4.6145,-4.5632,-4.409,-4.2161,-4.1649,-4.0174,-3.8858,-4.1081,-4.1898,-4.2503,-4.4892,-4.5414,-4.5329,-4.5329,-4.5329,-4.5243,-4.5243,-4.5243,-4.5243,-4.5157,-4.5071,-4.4985,-4.5157,-4.5243,-4.5243,-4.5157,-4.5071,-4.487,-4.4668,-4.5429,-4.6102,-4.6201,-4.6457,-4.6394,-4.617,-4.5642,-4.5473,-4.615,-4.6437,-4.6824,-4.7761,-4.7839,-4.7728,-4.7341,-4.6491,-4.5945,-4.5945,-4.4976,-4.5534,-4.7728,-4.6605,-4.5945,-4.5945,-4.3704,-4.2605,-4.2581,-4.161,-4.1568,-2.9157,-3.5971,-4.2657,-4.6229,-4.8502,-4.9867,-4.9848,-4.9846,-4.8896,-4.5442,-4.4723,-4.3964,-4.1444,-4.0145,-4.024,-4.2643,-4.3585,-4.4818,-4.7064,-4.7941,-4.815,-4.779,-4.7502,-4.7166,-4.6621,-4.6149,-4.5758,-4.544,-4.4872,-4.57,-4.8361,-4.8279,-4.9469,-5.2398,-5.208,-5.1586,-5.1049,-5.0501,-4.9975,-4.9248,-4.8994,-4.8876,-4.8756,-4.9895,-4.9967,-4.9193,-4.8787,-4.8206,-4.748,-4.718,-4.6804,-4.6423,-4.634,-4.634,-4.6423,-4.634,-4.4617,-4.2343,-4.219,-4.0426,-3.8594,-4.0393,-4.1002,-4.1379,-4.3233,-4.4276,-4.4715,-4.4715,-4.5065,-4.5556,-4.55,-4.55,-4.5414,-4.5329,-4.5471,-4.5556,-4.55,-4.55,-4.5414,-4.5329,-4.5329,-4.5329,-4.5329,-4.573,-4.6131,-4.6072,-4.6531,-4.6698,-4.5962,-4.6525,-4.6618,-4.5899,-4.641,-4.6694,-4.6628,-4.7154,-4.7496,-4.7362,-4.739,-4.7505,-4.7505,-4.6944,-4.6912,-4.7522,-4.6845,-4.6098,-4.5481,-4.4082,-4.3121,-4.2597,-4.1975,-4.1475,-2.7222,-3.4347,-4.1907,-4.4416,-4.6833,-4.8795,-4.9579,-4.9566,-4.8612,-4.5827,-4.5231,-4.4317,-4.1414,-4.0504,-4.0532,-4.1793,-4.3227,-4.4703,-4.6264,-4.7823,-4.8645,-4.8114,-4.7999,-4.7718,-4.7267,-4.6698,-4.6345,-4.6137,-4.544,-4.612,-4.8746,-4.8695,-4.9847,-5.2587,-5.2687,-5.2337,-5.162,-5.1422,-5.0916,-5.0149,-4.9975,-4.9728,-4.9687,-5.115,-5.1552,-5.0908,-5.007,-4.9268,-4.8514,-4.8253,-4.7737,-4.7078,-4.6997,-4.6916,-4.6864,-4.67,-4.4886,-4.2496,-4.2496,-4.0647,-3.8548,-3.9888,-4.0325,-4.0616,-4.2266,-4.3434,-4.4281,-4.4572,-4.5331,-4.5977,-4.5838,-4.5783,-4.5669,-4.5585,-4.5725,-4.5894,-4.5754,-4.5669,-4.5669,-4.5471,-4.5386,-4.5386,-4.5386,-4.5386,-4.5386,-4.5386,-4.6161,-4.6448,-4.5444,-4.6991,-4.7479,-4.5703,-4.6358,-4.6595,-4.6121,-4.6744,-4.736,-4.7973,-4.8405,-4.8778,-4.9045,-4.8779,-4.8188,-4.7172,-4.6834,-4.6149,-4.5169,-4.4425,-4.3605,-4.28,-4.218,-4.1383,-3.069,-3.5114,-4.0348,-4.5379,-4.5717,-4.5669,-4.9022,-4.8581,-4.7378,-4.7073,-4.6911,-4.6303,-4.4586,-4.2899,-4.1824,-4.1974,-4.3284,-4.4838,-4.6438,-4.7955,-4.8945,-4.8899,-4.8571,-4.8169,-4.7785,-4.7598,-4.7202,-4.6455,-4.6131,-4.7027,-4.9516,-4.9324,-5.0447,-5.3287,-5.3268,-5.3026,-5.2558,-5.2524,-5.2431,-5.2209,-5.2112,-5.1851,-5.1653,-5.2144,-5.237,-5.2242,-5.1385,-5.0425,-4.9427,-4.9427,-4.9088,-4.8545,-4.8067,-4.7737,-4.746,-4.6864,-4.5153,-4.3083,-4.2828,-4.0896,-3.8717,-4.0249,-4.0588,-4.0955,-4.3678,-4.4582,-4.4936,-4.6116,-4.6335,-4.6228,-4.6228,-4.6061,-4.5894,-4.6145,-4.6174,-4.6145,-4.5894,-4.5894,-4.5894,-4.578,-4.578,-4.578,-4.578,-4.578,-4.578,-4.578,-4.5841,-4.5644,-4.5329,-4.5444,-4.5988,-4.6812,-4.6922,-4.7948,-5.0159,-4.9419,-4.9817,-5.2193,-5.0109,-4.931,-5.0512,-4.9503,-4.887,-4.8756,-4.7467,-4.6799,-4.6689,-4.4405,-4.3214,-4.3115,-4.112,-4.0528,-2.4858,-3.0608,-3.6285,-3.7265,-4.1589,-4.5475,-4.5056,-4.5177,-4.5697,-4.6864,-4.7769,-4.7593,-4.5138,-4.2496,-4.1003,-4.1932,-4.2552,-4.3481,-4.5148,-4.7465,-4.8997,-4.8968,-4.8839,-4.8658,-4.8415,-4.797,-4.7598,-4.7303,-4.6882,-4.7774,-5.0463,-5.0417,-5.157,-5.4343,-5.3926,-5.3673,-5.3464,-5.3295,-5.3087,-5.2964,-5.2903,-5.2903,-5.2992,-5.2964,-5.2841,-5.2716,-5.2209,-5.1719,-5.1253,-5.0811,-5.0252,-4.9573,-4.9364,-4.9205,-4.8925,-4.8236,-4.6178,-4.376,-4.3202,-4.1114,-3.8808,-3.9408,-3.9555,-3.969,-4.0864,-4.172,-4.2457,-4.2989,-4.359,-4.4385,-4.5151,-4.5276,-4.5372,-4.6247,-4.6506,-4.6506,-4.634,-4.6228,-4.6145,-4.6145,-4.5977,-4.5864,-4.5864,-4.5864,-4.5864,-4.5864,-4.5809,-4.5725,-4.5641,-4.5641,-4.5758,-4.6191,-4.6249,-4.6565,-4.7421,-4.7736,-4.8217,-4.9312,-4.9058,-4.9233,-4.988,-4.9287,-4.8618,-4.7817,-4.7274,-4.6538,-4.5626,-4.4668,-4.387,-4.3101,-4.2271,-4.1353,-2.0747,-2.5915,-3.0977,-3.1224,-3.6622,-4.1834,-4.1785,-4.202,-4.3175,-4.6281,-4.8093,-4.8325,-4.5745,-4.2618,-4.0808,-4.1961,-4.2093,-4.269,-4.429,-4.7156,-4.9109,-4.9103,-4.9045,-4.8981,-4.8848,-4.8435,-4.8096,-4.7904,-4.7498,-4.8462,-5.1179,-5.1351,-5.2555,-5.5154,-5.4784,-5.4446,-5.4151,-5.3904,-5.3649,-5.3414,-5.3414,-5.3591,-5.3857,-5.3532,-5.3354,-5.3141,-5.2841,-5.275,-5.2687,-5.1982,-5.1253,-5.0678,-5.0608,-5.0431,-5.007,-4.9373,-4.723,-4.4593,-4.3832,-4.1686,-3.9199,-3.9063,-3.8995,-3.8986,-3.9469,-4.0279,-4.1199,-4.197,-4.2755,-4.3685,-4.5094,-4.514,-4.5391,-4.7029,-4.745,-4.745,-4.734,-4.718,-4.6989,-4.6775,-4.6611,-4.6364,-4.6145,-4.6145,-4.6061,-4.5977,-4.5977,-4.5977,-4.5864,-4.5864,-4.5809,-4.5754,-4.5754,-4.5814,-4.6047,-4.6421,-4.7025,-4.7801,-4.8286,-4.8492,-4.8359,-4.8179,-4.7658,-4.6737,-4.6621,-4.6131,-4.5128,-4.5042,-4.4578,-4.3726,-4.3367,-4.2309,-2.0927,-2.2084,-2.4534,-2.9943,-3.1189,-3.2931,-4.0171,-3.9812,-3.9634,-4.5449,-4.7914,-4.8493,-4.6931,-4.3993,-4.1805,-4.195,-4.2217,-4.2885,-4.4327,-4.7325,-4.9371,-4.9376,-4.9252,-4.9108,-4.8998,-4.8998,-4.8715,-4.8049,-4.7875,-4.901,-5.1735,-5.191,-5.3104,-5.5682,-5.5789,-5.5358,-5.4446,-5.4427,-5.4207,-5.3847,-5.3847,-5.4051,-5.44,-5.4051,-5.3847,-5.3789,-5.3414,-5.3268,-5.3208,-5.2687,-5.2209,-5.1883,-5.1621,-5.1188,-5.0641,-5.0141,-4.8122,-4.5586,-4.477,-4.2534,-3.9972,-3.9572,-3.9304,-3.9339,-4.0957,-4.1346,-4.1914,-4.4517,-4.508,-4.5222,-4.6618,-4.625,-4.6137,-4.8758,-4.9342,-4.9311,-4.9025,-4.8951,-4.8725,-4.7912,-4.7785,-4.7549,-4.6752,-4.6618,-4.6535,-4.634,-4.6257,-4.6145,-4.5864,-4.5864,-4.5864,-4.5864,-4.5864,-4.6417,-4.7638,-4.665,-4.6999,-4.9587,-4.8301,-4.7,-4.5952,-4.5923,-4.5894,-4.5894,-4.5783,-4.5698,-4.5698,-4.5414,-4.5243,-4.5243,-4.3937,-4.3284,-1.8347,-2.0362,-2.2987,-2.7907,-3.0661,-3.3338,-3.8062,-4.0365,-4.2314,-4.5111,-4.6472,-4.6677,-4.5183,-4.3369,-4.2453,-4.3677,-4.2933,-4.3213,-4.5992,-4.8175,-4.9489,-4.9491,-4.9466,-4.9389,-4.9258,-4.9177,-4.9016,-4.8715,-4.9632,-5.0993,-5.2719,-5.386,-5.5293,-5.7072,-5.6598,-5.6127,-5.5777,-5.5504,-5.5093,-5.4658,-5.5194,-5.5294,-5.5114,-5.4765,-5.4496,-5.422,-5.3823,-5.3708,-5.3615,-5.3295,-5.3087,-5.2931,-5.2683,-5.2335,-5.1849,-5.0181,-4.8298,-4.6394,-4.4576,-4.2711,-4.1113,-4.0958,-4.0802,-4.0739,-4.1236,-4.11,-4.1022,-4.2314,-4.2294,-4.2475,-4.5161,-4.5592,-4.5567,-4.6345,-4.7285,-4.7974,-4.7903,-4.8622,-4.9162,-4.8938,-4.8756,-4.8376,-4.7579,-4.7942,-4.7864,-4.667,-4.6967,-4.7099,-4.6506,-4.6423,-4.6423,-4.6423,-4.6257,-4.6236,-4.6475,-4.6126,-4.6213,-4.7057,-4.6822,-4.6414,-4.5894,-4.5864,-4.5864,-4.5864,-4.5809,-4.5754,-4.5698,-4.5613,-4.5414,-4.5243,-4.487,-4.4318,-1.8673,-2.0513,-2.2674,-2.7408,-2.8654,-3.0188,-3.5627,-3.7109,-3.7926,-4.0312,-4.1645,-4.251,-4.2952,-4.3354,-4.4241,-4.6023,-4.5,-4.472,-4.6935,-4.8632,-4.9879,-5.0528,-5.0595,-5.0803,-5.1331,-5.1276,-5.0898,-5.0064,-5.1457,-5.2707,-5.3437,-5.4977,-5.6442,-5.7829,-5.7407,-5.6992,-5.6664,-5.6453,-5.6145,-5.5824,-5.6278,-5.627,-5.5706,-5.5364,-5.5045,-5.48,-5.4276,-5.4051,-5.4051,-5.3708,-5.3591,-5.3591,-5.3388,-5.2871,-5.1992,-5.0416,-4.8492,-4.6439,-4.4778,-4.3195,-4.2016,-4.1692,-4.1571,-4.1479,-4.1419,-4.1113,-4.0989,-4.1864,-4.1832,-4.2175,-4.4799,-4.5884,-4.6365,-4.6301,-4.7391,-4.8222,-4.771,-4.8634,-4.9417,-4.9135,-4.9371,-4.9395,-4.8605,-4.8907,-4.8907,-4.7816,-4.8098,-4.8175,-4.7628,-4.729,-4.7048,-4.7048,-4.667,-4.634,-4.6145,-4.6145,-4.6145,-4.6061,-4.6257,-4.634,-4.6145,-4.6145,-4.6145,-4.6061,-4.6061,-4.5894,-4.5754,-4.5754,-4.5669,-4.5471,-4.55,-4.5129,-2.0853,-2.173,-2.2993,-2.7845,-2.6076,-2.5256,-3.3321,-3.1394,-2.8935,-3.2304,-3.4378,-3.6585,-3.9849,-4.3059,-4.6033,-4.8416,-4.7729,-4.7054,-4.7681,-4.9113,-5.0664,-5.2276,-5.2461,-5.302,-5.45,-5.4637,-5.3905,-5.2055,-5.3359,-5.4197,-5.4045,-5.553,-5.6923,-5.8125,-5.814,-5.7834,-5.7222,-5.7217,-5.7217,-5.7259,-5.7217,-5.6901,-5.6243,-5.5882,-5.5622,-5.5434,-5.4818,-5.453,-5.4476,-5.4108,-5.3904,-5.3904,-5.3847,-5.2789,-5.1249,-5.0517,-4.8503,-4.6022,-4.516,-4.3982,-4.2705,-4.2016,-4.1751,-4.1751,-4.16,-4.1508,-4.1793,-4.3026,-4.3373,-4.3749,-4.5299,-4.672,-4.7716,-4.7725,-4.87,-4.9273,-4.7953,-4.875,-4.9426,-4.8847,-4.9779,-5.0475,-4.9791,-4.9718,-4.9646,-4.9458,-4.9458,-4.9353,-4.91,-4.8376,-4.7942,-4.7942,-4.721,-4.6782,-4.6782,-4.67,-4.6535,-4.634,-4.6535,-4.67,-4.6618,-4.6618,-4.6535,-4.634,-4.6257,-4.6145,-4.5864,-4.5864,-4.5864,-4.5864,-4.5754,-4.5698,-1.805,-1.8638,-2.0194,-2.642,-2.9567,-3.1722,-3.3941,-3.2971,-3.1065,-2.9217,-3.0466,-3.2189,-3.2864,-3.5196,-3.9297,-4.637,-4.7024,-4.8121,-5.2193,-5.3102,-5.3515,-5.4026,-5.4076,-5.4286,-5.4845,-5.4841,-5.4546,-5.3987,-5.5361,-5.6189,-5.5955,-5.7427,-5.8335,-5.8404,-5.8419,-5.8267,-5.7899,-5.7905,-5.7905,-5.7899,-5.7865,-5.7552,-5.6913,-5.6797,-5.6587,-5.627,-5.5917,-5.5587,-5.5294,-5.4889,-5.455,-5.422,-5.3961,-5.2903,-5.1259,-4.8556,-4.7113,-4.6285,-4.4809,-4.405,-4.3592,-4.3432,-4.3323,-4.3214,-4.3214,-4.285,-4.26,-4.3442,-4.3652,-4.3707,-4.4122,-4.4529,-4.4761,-4.474,-4.5834,-4.6706,-4.6431,-4.7435,-4.8706,-4.9739,-5.0042,-5.0247,-5.0682,-5.1117,-5.0948,-4.9718,-5.0006,-5.0149,-4.9469,-4.9279,-4.9205,-4.9205,-4.833,-4.7846,-4.7846,-4.7078,-4.67,-4.6812,-4.6893,-4.6893,-4.6618,-4.6618,-4.6618,-4.6535,-4.634,-4.6228,-4.6145,-4.5977,-4.5864,-4.5864,-4.578,-4.5809,-1.8871,-2.0471,-2.1923,-2.3551,-2.5727,-2.7522,-2.7671,-2.6809,-2.5395,-2.3446,-2.4627,-2.702,-3.0055,-3.233,-3.6086,-4.3137,-4.4959,-4.6523,-4.9439,-5.1925,-5.3716,-5.4435,-5.5366,-5.6284,-5.7057,-5.7205,-5.6851,-5.5955,-5.731,-5.778,-5.679,-5.8294,-5.9072,-5.8893,-5.8733,-5.8638,-5.8481,-5.849,-5.849,-5.8481,-5.8382,-5.8066,-5.7623,-5.7407,-5.7147,-5.6829,-5.6509,-5.6251,-5.5938,-5.4929,-5.436,-5.4093,-5.301,-5.2044,-5.0973,-4.8491,-4.7352,-4.6835,-4.4958,-4.425,-4.4148,-4.3993,-4.3923,-4.3818,-4.3765,-4.3518,-4.3269,-4.3625,-4.3784,-4.3889,-4.3889,-4.4389,-4.4722,-4.4056,-4.5468,-4.6666,-4.5302,-4.7119,-4.9144,-4.9277,-5.025,-5.122,-5.1654,-5.1982,-5.1851,-5.0981,-5.1185,-5.1253,-5.0742,-5.0361,-5.0078,-5.0078,-4.9353,-4.8863,-4.8863,-4.7973,-4.753,-4.7639,-4.8003,-4.7973,-4.745,-4.742,-4.721,-4.6812,-4.67,-4.6535,-4.6423,-4.6145,-4.6145,-4.6228,-4.5977,-4.5948,-2.0363,-2.3139,-2.4427,-2.0869,-2.0086,-2.0203,-2.0307,-1.9011,-1.7838,-1.7842,-1.9124,-2.2004,-2.7728,-3.0439,-3.3271,-3.7965,-4.1082,-4.3462,-4.4956,-4.9647,-5.3366,-5.4648,-5.6592,-5.833,-5.956,-5.9907,-5.9437,-5.7869,-5.8972,-5.9016,-5.7478,-5.8718,-5.9447,-5.9307,-5.9093,-5.8985,-5.9029,-5.8939,-5.893,-5.893,-5.8675,-5.8419,-5.8162,-5.7858,-5.7438,-5.6969,-5.6596,-5.6251,-5.5837,-5.4261,-5.3599,-5.3371,-5.1791,-5.0902,-5.0338,-4.9113,-4.8132,-4.7169,-4.5412,-4.4679,-4.4533,-4.4216,-4.4012,-4.3993,-4.3837,-4.3818,-4.3818,-4.3818,-4.3941,-4.4148,-4.4148,-4.5053,-4.5656,-4.445,-4.6039,-4.7122,-4.4509,-4.7022,-4.9429,-4.8306,-5.0334,-5.2232,-5.2465,-5.2498,-5.2467,-5.2339,-5.2339,-5.2242,-5.2047,-5.1387,-5.1017,-5.0948,-5.0291,-4.9791,-4.9718,-4.9057,-4.8636,-4.8787,-4.9279,-4.9279,-4.8636,-4.8483,-4.7973,-4.7056,-4.7086,-4.6893,-4.67,-4.6423,-4.6335,-4.6323,-4.5852,-4.5652,-1.7865,-1.9825,-2.1698,-2.1497,-2.1246,-2.1132,-2.1561,-1.9542,-1.7571,-1.77,-1.8108,-1.8798,-1.9975,-2.2922,-2.5871,-2.7991,-3.3485,-4.0032,-4.7141,-5.2539,-5.5901,-5.6339,-5.8044,-5.9319,-5.9636,-5.9905,-5.9945,-5.9668,-5.9764,-5.9683,-5.9291,-5.9493,-5.9544,-5.9284,-5.925,-5.9318,-5.9557,-5.9233,-5.9066,-5.9044,-5.8807,-5.8592,-5.847,-5.8404,-5.7576,-5.6128,-5.5843,-5.4774,-5.326,-5.2719,-5.2347,-5.1995,-5.1612,-5.0604,-4.9354,-4.9054,-4.7852,-4.6447,-4.6118,-4.5671,-4.5144,-4.483,-4.4645,-4.4401,-4.4148,-4.4045,-4.4045,-4.4045,-4.4097,-4.4148,-4.4148,-4.4469,-4.4671,-4.4233,-4.4637,-4.489,-4.4249,-4.5603,-4.7189,-4.8316,-4.9772,-5.1188,-5.2421,-5.2528,-5.2467,-5.2467,-5.2434,-5.2467,-5.237,-5.2273,-5.2144,-5.2047,-5.1385,-5.0774,-5.0603,-4.9863,-4.9718,-5.0667,-4.9967,-4.95,-4.9427,-4.8787,-4.8051,-4.7269,-4.7138,-4.7005,-4.6975,-4.67,-4.6057,-4.4965,-4.4886,-4.4297,-1.7073,-1.9602,-2.1738,-1.9663,-2.0242,-2.0985,-1.9736,-1.9047,-1.8485,-1.7828,-1.7765,-1.8489,-2.0514,-2.1567,-2.353,-2.7763,-3.1301,-3.6111,-4.3562,-5.0737,-5.5544,-5.6441,-5.8285,-5.947,-5.9457,-5.9689,-5.9863,-5.9867,-5.9944,-5.992,-5.9777,-5.9783,-5.9735,-5.959,-5.9546,-5.9609,-5.979,-5.9557,-5.8941,-5.8042,-5.7719,-5.7044,-5.609,-5.6001,-5.5524,-5.473,-5.4582,-5.3997,-5.2985,-5.1919,-5.136,-5.1086,-5.0008,-4.9178,-4.8565,-4.8425,-4.767,-4.677,-4.6728,-4.63,-4.5766,-4.5514,-4.5235,-4.4899,-4.4611,-4.4804,-4.5086,-4.5086,-4.4993,-4.4993,-4.504,-4.5014,-4.4906,-4.4756,-4.5306,-4.5649,-4.477,-4.624,-4.7955,-4.8695,-4.9837,-5.1102,-5.2607,-5.2812,-5.2783,-5.2591,-5.2591,-5.2528,-5.2498,-5.2498,-5.2434,-5.2404,-5.2112,-5.1785,-5.1686,-5.132,-5.1353,-5.1818,-5.1353,-5.1081,-5.1081,-5.0149,-4.95,-4.9131,-4.8636,-4.8206,-4.7798,-4.7609,-4.6661,-4.4984,-4.4828,-4.404,-1.9332,0.0,-2.3405,-2.0614,-2.1372,-2.2074,0.0,-1.9391,-1.9571,-1.7988,-1.77,-1.8557,-2.1478,-2.1048,-2.2007,-2.7427,-2.8566,-3.1333,-3.8683,-4.5645,-5.1148,-5.4216,-5.6414,-5.7827,-5.8083,-5.9012,-5.9619,-5.9679,-5.9868,-5.9945,-5.9896,-5.9924,-5.9916,-5.9864,-5.9419,-5.9222,-5.9332,-5.8779,-5.7817,-5.6535,-5.6186,-5.5346,-5.4068,-5.3927,-5.3599,-5.3142,-5.3129,-5.2804,-5.2227,-5.0864,-5.0265,-5.0144,-4.868,-4.8116,-4.8087,-4.7973,-4.7711,-4.7373,-4.7275,-4.6952,-4.6573,-4.6224,-4.5851,-4.547,-4.5212,-4.5558,-4.6019,-4.5936,-4.5859,-4.5774,-4.5851,-4.5706,-4.552,-4.546,-4.6085,-4.6384,-4.5254,-4.6837,-4.863,-4.9003,-5.0088,-5.1432,-5.2885,-5.3154,-5.3059,-5.2841,-5.2779,-5.2716,-5.2658,-5.2658,-5.2561,-5.2561,-5.2561,-5.2498,-5.2498,-5.2498,-5.2561,-5.2561,-5.237,-5.2339,-5.2275,-5.1353,-5.0811,-5.0742,-4.9935,-4.9279,-4.8712,-4.8282,-4.7075,-4.5315,-4.4684,-4.3768,0.0,-2.7067,-2.676,-2.8409,-2.7909,-2.6261,-2.3536,-2.1956,0.0,-1.815,-1.7707,-1.7861,-1.8501,-1.8627,-1.9291,-2.1355,-2.1799,-2.52,-3.4651,-3.6833,-4.0396,-4.8394,-5.1168,-5.3005,-5.445,-5.7567,-5.9546,-5.9663,-5.9684,-5.9822,-6.0059,-6.0055,-5.9974,-5.9889,-5.844,-5.7681,-5.7722,-5.5887,-5.4899,-5.4785,-5.4527,-5.431,-5.4234,-5.4088,-5.3163,-5.1648,-5.1518,-5.0595,-4.9125,-4.8978,-4.8916,-4.8891,-4.8505,-4.8389,-4.8344,-4.8211,-4.8094,-4.793,-4.7811,-4.7715,-4.7617,-4.7133,-4.6612,-4.6137,-4.5929,-4.6067,-4.6349,-4.6113,-4.6038,-4.6032,-4.5894,-4.6013,-4.6131,-4.5929,-4.5793,-4.5653,-4.5326,-4.6261,-4.7602,-4.9051,-5.0585,-5.2007,-5.3211,-5.3448,-5.3328,-5.3093,-5.3031,-5.3031,-5.3065,-5.3065,-5.2936,-5.2683,-5.2683,-5.2654,-5.2498,-5.2591,-5.2683,-5.2683,-5.2561,-5.237,-5.2275,-5.1519,-5.1013,-5.0742,-4.9935,-4.9573,-4.95,-4.81,-4.6784,-4.5405,-4.412,-4.2773,-2.8059,-2.9607,-3.0874,-2.9374,-2.9882,-2.9716,-2.5587,-2.4244,-2.2888,-1.9374,-1.8009,-1.7562,-1.7964,-1.8078,-1.9331,-2.3045,-2.3909,-2.6734,-3.4384,-3.8365,-4.2576,-4.8003,-5.2213,-5.534,-5.6954,-5.754,-5.828,-5.9457,-5.9631,-5.9759,-5.9936,-5.9943,-5.9451,-5.8348,-5.6719,-5.5885,-5.5948,-5.5235,-5.433,-5.3287,-5.3101,-5.2457,-5.1452,-5.1252,-5.0782,-5.0165,-5.0026,-4.955,0.0,-4.8839,-4.8781,-4.8793,-4.867,-4.8619,-4.8631,-4.8399,-4.8316,-4.8232,-4.8094,-4.8003,-4.7905,-4.7711,-4.7445,-4.7169,-4.6844,-4.7062,-4.7409,-4.7305,-4.7201,-4.7131,-4.7098,-4.6989,-4.6839,-4.6651,-4.6455,-4.6254,-4.6172,-4.6375,-4.7271,-4.9741,-5.0439,-5.137,-5.3662,-5.3847,-5.3649,-5.3532,-5.3388,-5.3302,-5.3302,-5.3154,-5.3031,-5.2936,-5.2936,-5.2998,-5.312,-5.2998,-5.2936,-5.2936,-5.2716,-5.2591,-5.2528,-5.2144,-5.1949,-5.1851,-5.1554,-5.1387,-5.1387,-5.0259,-4.827,-4.5481,-4.4946,-4.3498,-3.1445,-3.3213,-3.4592,-3.2784,-3.3454,-3.3253,-2.8249,-2.646,-2.4589,-2.0236,-1.8235,-1.7414,-1.7754,-1.7833,-1.9109,-2.303,-2.4316,-2.7444,-3.4919,-3.9553,-4.3683,-4.781,-5.1975,-5.5061,-5.641,-5.7104,-5.7975,-5.9318,-5.9492,-5.9639,-5.9796,-5.9322,-5.8222,-5.6542,-5.4869,-5.4058,-5.4138,-5.3637,-5.2827,-5.1669,-5.1588,-5.0947,-4.9833,-4.9571,-4.9503,-4.9478,-4.9326,-4.9198,-4.911,-4.8994,-4.8944,-4.8885,-4.8885,-4.8885,-4.8839,-4.8596,-4.8545,-4.8545,-4.8344,-4.8203,-4.8116,-4.8087,-4.8003,-4.7843,-4.7542,-4.777,-4.8087,-4.8087,-4.8021,-4.7961,-4.7874,-4.7683,-4.7484,-4.7379,-4.7456,-4.7483,-4.6948,-4.7002,-4.7893,-5.0426,-5.0207,-5.0715,-5.4141,-5.4085,-5.3732,-5.4159,-5.4096,-5.3926,-5.3926,-5.3708,-5.3507,-5.3507,-5.3302,-5.3302,-5.3591,-5.3302,-5.3065,-5.3065,-5.2874,-5.2745,-5.2683,-5.2591,-5.2561,-5.2498,-5.2498,-5.2498,-5.2498,-5.1884,-4.9757,-4.6269,-4.6269,-4.4732,-3.7781,-3.8324,-3.7858,-3.9891,-3.9345,-3.695,-3.1895,-2.8636,-2.5294,-2.0458,-1.8294,-1.7369,-1.7626,-1.7666,-1.8233,-1.9949,-2.1674,-2.6162,-3.5733,-3.8833,-4.1959,-4.7027,-4.9378,-5.0854,-5.1518,-5.6,-5.9029,-5.9267,-5.9284,-5.9397,-5.9639,-5.8032,-5.6338,-5.4642,-5.3101,-5.2261,-5.2261,-5.0722,-4.9953,-4.9946,-4.9974,-4.9966,-4.9953,-4.9833,-4.9744,-4.9735,-4.9503,-4.9389,-4.9361,-4.9361,-4.9301,-4.9204,-4.9204,-4.9091,-4.8974,-4.8871,-4.8894,-4.8928,-4.8522,-4.8415,-4.8371,-4.824,-4.8123,-4.8027,-4.8027,-4.8116,-4.8195,-4.8195,-4.8195,-4.8203,-4.8057,-4.8027,-4.8027,-4.8027,-4.8912,-4.9289,-4.7632,-4.8167,-4.945,-5.1046,-5.0082,-5.0387,-5.468,-5.4139,-5.3551,-5.4848,-5.5007,-5.5007,-5.5007,-5.4679,-5.4446,-5.4446,-5.3847,-5.3649,-5.4017,-5.3448,-5.3126,-5.3065,-5.3031,-5.2936,-5.2683,-5.2683,-5.2621,-5.2498,-5.2498,-5.2498,-5.2498,-5.2498,-5.097,-4.8048,-4.8015,-4.6375,-3.5887,-3.692,-3.823,-3.9355,-3.9277,-3.781,-3.3277,-3.004,-2.6595,-2.1668,-1.871,-1.7095,-1.7392,-1.7435,-1.8318,-2.1014,-2.3943,-2.8024,-3.4225,-3.967,-4.4523,-4.8496,-5.1839,-5.3981,-5.4378,-5.7104,-5.8968,-5.9135,-5.9155,-5.8745,-5.7818,-5.6079,-5.4406,-5.291,-5.1228,-5.0431,-5.0501,-5.0135,-4.996,-4.9963,-4.9953,-4.9939,-4.9974,-4.9915,-4.9894,-4.9882,-4.9724,-4.963,-4.9636,-4.9428,-4.9347,-4.9295,-4.9295,-4.9301,-4.9252,-4.9201,-4.9221,-4.9221,-4.911,-4.897,-4.8774,-4.8667,-4.8457,-4.8316,-4.8505,-4.8542,-4.8499,-4.8499,-4.8499,-4.8472,-4.8445,-4.826,-4.8146,-4.8057,-4.83,-4.8715,-4.9402,-4.9849,-5.0837,-5.3403,-5.3315,-5.3539,-5.5824,-5.5633,-5.5223,-5.5635,-5.5442,-5.5308,-5.5308,-5.5007,-5.4802,-5.4802,-5.4802,-5.4853,-5.5007,-5.4573,-5.4151,-5.3765,-5.3649,-5.3448,-5.2936,-5.2936,-5.297,-5.2908,-5.2908,-5.2908,-5.2908,-5.1716,-5.0654,-4.9755,-4.7541,-4.6,-3.6238,-3.711,-3.8384,-3.8769,-3.8906,-3.7925,-3.4155,-3.0658,-2.7014,-2.2894,-1.9292,-1.7322,-1.8598,-1.89,-2.0334,-2.4575,-2.7861,-3.1956,-3.7946,-4.3051,-4.7768,-5.1989,-5.4495,-5.6021,-5.6328,-5.7716,-5.8654,-5.8772,-5.8977,-5.8156,-5.5963,-5.4822,-5.3247,-5.1079,-5.0056,-4.9625,-4.9687,-4.9807,-4.9882,-4.9894,-4.9879,-4.9887,-4.996,-4.9881,-4.991,-4.9966,-4.9888,-4.9825,-4.9803,-4.9669,-4.9571,-4.9541,-4.9541,-4.9478,-4.9464,-4.9408,-4.9408,-4.9446,-4.9386,-4.9238,-4.9034,-4.8957,-4.8848,-4.8728,-4.8916,-4.8848,-4.8768,-4.8768,-4.8768,-4.8744,-4.8707,-4.8568,-4.8425,-4.8297,-4.8658,-4.9396,-5.0414,-5.1047,-5.2224,-5.4603,-5.4387,-5.4454,-5.6531,-5.5641,-5.5042,-5.6287,-5.5646,-5.5343,-5.5983,-5.5813,-5.5622,-5.5622,-5.5635,-5.5647,-5.5647,-5.5109,-5.4679,-5.4372,-5.4262,-5.4039,-5.3708,-5.3708,-5.3319,-5.2543,-5.2543,-5.2097,-5.1288,-5.0232,-4.9463,-4.877,-4.6944,-4.5722,-3.7877,-3.8256,-3.8344,-3.8344,-3.8274,-3.7527,-3.4606,-3.0734,-2.6894,-2.3876,-2.0072,-1.802,-2.0541,-2.153,-2.3821,-2.9587,-3.2939,-3.7471,-4.4958,-4.812,-5.1439,-5.6315,-5.6901,-5.7101,-5.7407,-5.7825,-5.8144,-5.83,-5.8733,-5.7721,-5.4769,-5.4496,-5.2947,-4.9685,-4.9709,-4.9705,-4.9541,-4.9697,-4.9758,-4.9735,-4.9749,-4.9829,-4.9953,-4.9805,-4.9849,-4.9948,-4.9943,-4.9932,-4.9958,-4.9958,-4.9882,-4.98,-4.98,-4.9697,-4.9582,-4.9478,-4.9491,-4.9576,-4.945,-4.9333,-4.9218,-4.9218,-4.9405,-4.9613,-4.9279,-4.9183,-4.9177,-4.9065,-4.897,-4.8966,-4.8848,-4.8839,-4.8829,-4.8815,-4.9915,-5.1047,-5.1157,-5.2238,-5.3571,-5.5142,-5.4335,-5.4195,-5.6932,-5.5041,-5.4061,-5.6808,-5.5901,-5.5467,-5.6946,-5.688,-5.6632,-5.6632,-5.6199,-5.5912,-5.6055,-5.5301,-5.4852,-5.494,-5.4836,-5.4662,-5.4418,-5.4418,-5.3514,-5.1513,-5.1478,-5.0502,-4.8606,-4.8472,-4.7668,-4.624,-4.6106,-4.5336,-3.7264,-3.7723,-3.8413,-3.8413,-3.8344,-3.746,-3.4169,-3.1014,-2.7674,-2.3537,-2.1151,-1.973,-1.9581,-2.3306,-2.7632,-3.1273,-3.7971,-4.4045,-4.8005,-5.1993,-5.4913,-5.6045,-5.6646,-5.6982,-5.7061,-5.7516,-5.7895,-5.8144,-5.835,-5.8165,-5.7479,-5.6549,-5.4567,-5.13,-5.1242,-5.0657,-4.943,-4.9541,-4.9625,-4.9587,-4.9712,-4.98,-4.9818,-4.9797,-4.9829,-4.9962,-4.9849,-4.9845,-4.9939,-4.997,-4.9953,-4.9932,-4.9932,-4.9888,-4.987,-4.9856,-4.9841,-4.9871,-4.9855,-4.9695,-4.9503,-4.9477,-5.1206,-5.2832,-5.0131,-5.0115,-5.0699,-4.9502,-4.9069,-4.9008,-4.8966,-4.8944,-4.9198,-5.0348,-5.1767,-5.3202,-5.446,-5.4945,-5.5581,-5.7065,-5.7068,-5.7034,-5.7553,-5.7115,-5.686,-5.7516,-5.7298,-5.7114,-5.729,-5.7212,-5.7173,-5.7173,-5.5819,-5.5446,-5.6778,-5.5413,-5.4862,-5.5671,-5.56,-5.4746,-5.301,-5.2975,-5.189,-4.9767,-4.9713,-4.9362,-4.8606,-4.74,-4.6574,-4.624,-4.5101,-4.445,-3.7762,-3.7986,-3.8483,-3.8413,-3.8344,-3.7713,-3.5622,-3.2955,-3.0098,-2.6735,-2.4703,-2.3341,-2.2858,-2.728,-3.1943,-3.4859,-4.1388,-4.7186,-5.0167,-5.3029,-5.5151,-5.5977,-5.6421,-5.6682,-5.6682,-5.7061,-5.7407,-5.7658,-5.7983,-5.8137,-5.7951,-5.6831,-5.4812,-5.1803,-5.1711,-5.0963,-4.9385,-4.9424,-4.9483,-4.946,-4.9541,-4.9619,-4.9678,-4.9666,-4.9725,-4.986,-4.9794,-4.9846,-5.0033,-5.0828,-5.0705,-5.0038,-5.0835,-5.0679,-5.0062,-5.0853,-5.1145,-5.1285,-5.2081,-5.2257,-5.2059,-5.2059,-5.3236,-5.4295,-5.2509,-5.2468,-5.2839,-5.1995,-5.1738,-5.165,-5.1524,-5.1505,-5.1671,-5.2368,-5.3154,-5.3957,-5.4783,-5.5489,-5.615,-5.6872,-5.7551,-5.8009,-5.7875,-5.7219,-5.6928,-5.7661,-5.7005,-5.675,-5.7406,-5.7553,-5.7589,-5.7515,-5.6677,-5.6419,-5.7176,-5.5609,-5.5158,-5.6366,-5.5627,-5.4942,-5.4563,-5.4375,-5.3204,-5.0873,-5.0787,-5.0059,-4.8606,-4.7879,-4.7476,-4.74,-4.6629,-4.6293,-3.8582,-3.8483,-3.8483,-3.8344,-3.8344,-3.8034,-3.7153,-3.5199,-3.3045,-3.0903,-2.9207,-2.8127,-2.818,-3.2468,-3.692,-3.9657,-4.5068,-4.9713,-5.2093,-5.3618,-5.4893,-5.5813,-5.6187,-5.6323,-5.6323,-5.6646,-5.6937,-5.7134,-5.7586,-5.7789,-5.7442,-5.6637,-5.5073,-5.2824,-5.2256,-5.1128,-4.9368,-4.963,-4.9665,-4.936,-4.9376,-4.9431,-4.9528,-4.9829,-4.9876,-4.9762,-5.0343,-5.0535,-5.0492,-5.2203,-5.2048,-5.0929,-5.2365,-5.2091,-5.102,-5.2423,-5.2944,-5.3123,-5.4526,-5.4947,-5.4861,-5.5181,-5.5467,-5.558,-5.4975,-5.4944,-5.5038,-5.4735,-5.466,-5.4572,-5.4338,-5.4305,-5.4313,-5.4476,-5.4524,-5.4576,-5.483,-5.578,-5.6616,-5.6515,-5.7449,-5.8193,-5.8103,-5.7036,-5.6531,-5.769,-5.6667,-5.6231,-5.7587,-5.7875,-5.7873,-5.777,-5.7479,-5.7298,-5.7366,-5.5801,-5.5431,-5.6891,-5.5652,-5.5359,-5.6329,-5.6108,-5.4796,-5.247,-5.2338,-5.1113,-4.8818,-4.9057,-4.9037,-4.8775,-4.8775,-4.8775,-3.872,-3.8651,-3.8483,-3.8483,-3.8344,-3.7994,-3.6779,-3.6158,-3.5261,-3.3075,-3.3367,-3.3976,-3.3795,-3.8568,-4.3199,-4.5388,-5.1222,-5.5219,-5.4513,-5.6602,-5.7366,-5.5254,-5.5741,-5.6233,-5.6233,-5.6368,-5.6596,-5.6941,-5.7025,-5.7065,-5.7025,-5.7333,-5.7318,-5.6944,-5.4509,-5.195,-4.9241,-5.0644,-5.07,-4.9388,-4.9381,-4.9392,-4.9461,-5.0921,-5.0872,-4.976,-5.2712,-5.3241,-5.211,-5.3791,-5.4367,-5.4214,-5.4538,-5.4561,-5.4367,-5.4595,-5.4666,-5.4694,-5.4943,-5.4924,-5.5054,-5.6531,-5.7992,-5.8656,-5.5703,-5.5827,-5.6694,-5.5219,-5.4695,-5.4598,-5.4585,-5.4572,-5.4871,-5.6098,-5.6379,-5.6733,-5.7963,-5.8411,-5.8535,-5.8498,-5.8659,-5.8781,-5.8781,-5.8595,-5.8442,-5.8404,-5.8226,-5.8033,-5.7905,-5.7908,-5.7942,-5.7908,-5.6489,-5.6022,-5.7257,-5.5876,-5.562,-5.7014,-5.6941,-5.6211,-5.4978,-5.4825,-5.3789,-5.1528,-5.1492,-5.0906,-4.9787,-4.9787,-4.9704,-4.9445,-4.9445,-4.9445,-3.9566,-3.9349,-3.8651,-3.8483,-3.8413,-3.8128,-3.7547,-3.743,-3.6974,-3.5266,-3.6793,-3.7955,-3.6295,-4.1488,-4.6072,-4.6204,-5.0898,-5.4382,-5.3781,-5.5373,-5.6118,-5.4958,-5.5596,-5.6048,-5.6048,-5.6187,-5.6368,-5.6517,-5.6517,-5.6517,-5.6639,-5.7022,-5.7294,-5.7294,-5.5525,-5.3952,-5.2688,-5.2744,-5.2539,-5.2086,-5.2085,-5.2138,-5.223,-5.2994,-5.2945,-5.2393,-5.3853,-5.4169,-5.3725,-5.5423,-5.5615,-5.4917,-5.5923,-5.5727,-5.5044,-5.6053,-5.642,-5.6563,-5.7425,-5.7679,-5.7787,-5.8532,-5.9267,-5.9592,-5.8115,-5.8173,-5.86,-5.788,-5.7633,-5.7575,-5.7466,-5.7454,-5.7619,-5.825,-5.8392,-5.8565,-5.9176,-5.8538,-5.8047,-5.8938,-5.9005,-5.8884,-5.8884,-5.8884,-5.8858,-5.8755,-5.861,-5.8498,-5.847,-5.847,-5.847,-5.847,-5.7627,-5.7225,-5.7621,-5.6129,-5.5659,-5.7054,-5.6259,-5.5822,-5.6035,-5.5832,-5.5185,-5.3973,-5.3929,-5.3529,-5.2817,-5.2931,-5.2867,-5.2633,-5.2633,-5.2633,-3.9802,-3.9555,-3.872,-3.8651,-3.8483,-3.8344,-3.8413,-3.8676,-3.8577,-3.7684,-3.9614,-4.0961,-3.9496,-4.3822,-4.7647,-4.7367,-5.0933,-5.3523,-5.3157,-5.4397,-5.5131,-5.4623,-5.5214,-5.5728,-5.5907,-5.6048,-5.6141,-5.6059,-5.6141,-5.6233,-5.6278,-5.6639,-5.6814,-5.6814,-5.5768,-5.5395,-5.5833,-5.4292,-5.3699,-5.406,-5.4105,-5.4222,-5.439,-5.4873,-5.4832,-5.445,-5.5332,-5.5521,-5.534,-5.7083,-5.7113,-5.6181,-5.7466,-5.7211,-5.6263,-5.7625,-5.8147,-5.8295,-5.946,-5.9869,-5.9853,-5.9872,-5.9859,-5.9882,-5.9882,-5.9866,-5.9877,-5.9877,-5.9877,-5.9859,-5.9753,-5.9742,-5.972,-5.9659,-5.9684,-5.9684,-5.9671,-5.8596,-5.7994,-5.9137,-5.921,-5.9074,-5.9074,-5.9052,-5.9005,-5.8957,-5.8796,-5.8707,-5.8933,-5.8908,-5.8896,-5.8807,-5.861,-5.8345,-5.7899,-5.6633,-5.6205,-5.709,-5.597,-5.5862,-5.709,-5.688,-5.6553,-5.6306,-5.6297,-5.5988,-5.5393,-5.5587,-5.5539,-5.5244,-5.5244,-5.5244,-3.8877,-3.8779,-3.8582,-3.8789,-3.8651,-3.8582,-3.8789,-3.959,-4.0369,-4.0556,-4.169,-4.3261,-4.5045,-4.6455,-4.8283,-5.1403,-5.4157,-5.5355,-5.3979,-5.5449,-5.5948,-5.4096,-5.45,-5.5128,-5.5728,-5.5907,-5.5954,-5.5824,-5.6048,-5.6187,-5.6151,-5.6323,-5.6404,-5.6404,-5.5266,-5.5471,-5.7067,-5.4445,-5.3296,-5.3674,-5.3796,-5.4001,-5.4316,-5.6059,-5.5943,-5.4606,-5.7837,-5.8322,-5.6961,-5.8789,-5.9498,-5.9442,-5.9657,-5.9684,-5.9616,-5.9719,-5.9758,-5.9758,-5.987,-5.9855,-5.9853,-5.9872,-5.9866,-5.9866,-5.9866,-5.9889,-5.9874,-5.9874,-5.9849,-5.9868,-5.9868,-5.9868,-5.9821,-5.9731,-5.967,-5.9658,-5.9671,-5.9582,-5.9544,-5.9643,-5.9532,-5.9431,-5.9431,-5.9438,-5.9364,-5.9088,-5.9066,-5.9066,-5.9066,-5.9005,-5.8807,-5.8555,-5.8527,-5.8291,-5.777,-5.7625,-5.7479,-5.7162,-5.709,-5.7054,-5.7162,-5.7122,-5.7122,-5.7086,-5.7122,-5.688,-5.6501,-5.6501,-5.6288,-5.5931,-5.5931,-5.5931,-3.9414,-3.9367,-3.872,-3.8651,-3.8651,-3.872,-3.8582,-3.9003,-3.9426,-3.9355,-4.1852,-4.4217,-4.4973,-4.7256,-4.9515,-5.1265,-5.2152,-5.2618,-5.2605,-5.3562,-5.4008,-5.3302,-5.4117,-5.4784,-5.5026,-5.5077,-5.5314,-5.5728,-5.5954,-5.6095,-5.6187,-5.6278,-5.6359,-5.6359,-5.6058,-5.6149,-5.6766,-5.6093,-5.5799,-5.6035,-5.6673,-5.702,-5.7123,-5.8047,-5.8163,-5.7748,-5.8969,-5.9137,-5.861,-5.9306,-5.9577,-5.9554,-5.9697,-5.9752,-5.9768,-5.984,-5.9867,-5.9872,-5.9865,-5.9871,-5.9865,-5.9863,-5.9882,-5.9885,-5.9885,-5.9872,-5.9859,-5.9859,-5.9889,-5.9882,-5.9866,-5.9857,-5.9849,-5.9821,-5.9811,-5.9801,-5.978,-5.9746,-5.9684,-5.9684,-5.9633,-5.9577,-5.9577,-5.9539,-5.9455,-5.9384,-5.9364,-5.9364,-5.9364,-5.9305,-5.9163,-5.8907,-5.8821,-5.8592,-5.814,-5.7942,-5.777,-5.7551,-5.7362,-5.7288,-5.7288,-5.7166,-5.7162,-5.7162,-5.7162,-5.7045,-5.6922,-5.6922,-5.688,-5.6718,-5.6718,-5.6718,-3.8318,-3.8651,-3.8632,-3.8123,-3.8328,-3.872,-3.8483,-3.8651,-3.872,-3.8651,-4.0851,-4.2917,-4.336,-4.604,-4.8422,-4.9421,-5.022,-5.0948,-5.1454,-5.211,-5.265,-5.2836,-5.3547,-5.4193,-5.4573,-5.4466,-5.4661,-5.5314,-5.5498,-5.5776,-5.6095,-5.6233,-5.6359,-5.6359,-5.6448,-5.6537,-5.6537,-5.6778,-5.6985,-5.7104,-5.7854,-5.8263,-5.835,-5.8856,-5.9168,-5.9288,-5.9384,-5.9459,-5.9477,-5.9493,-5.9472,-5.9506,-5.9595,-5.9609,-5.9632,-5.976,-5.9826,-5.981,-5.9815,-5.984,-5.9867,-5.9867,-5.9872,-5.9863,-5.9851,-5.9878,-5.9864,-5.9885,-5.9872,-5.9866,-5.9889,-5.9882,-5.9882,-5.9857,-5.9886,-5.9886,-5.9877,-5.9811,-5.9742,-5.9742,-5.9696,-5.9659,-5.9659,-5.9591,-5.9554,-5.9493,-5.9475,-5.9475,-5.9475,-5.9495,-5.9384,-5.911,-5.906,-5.8821,-5.8352,-5.8162,-5.7972,-5.7771,-5.7589,-5.7441,-5.7328,-5.7249,-5.7166,-5.7162,-5.7162,-5.7162,-5.7162,-5.7162,-5.7162,-5.7162,-5.7162,-5.7162,-3.5447,-3.659,-3.8172,-3.7228,-3.7741,-3.8582,-3.8789,-3.868,-3.8611,-3.8887,-3.8995,-3.9517,-4.0866,-4.3005,-4.4955,-4.631,-4.8842,-5.0678,-5.0779,-5.1454,-5.2143,-5.2774,-5.2836,-5.3346,-5.4466,-5.4117,-5.4039,-5.4573,-5.4732,-5.5128,-5.5907,-5.6095,-5.6233,-5.6359,-5.6359,-5.6359,-5.6359,-5.6457,-5.6581,-5.6545,-5.7065,-5.7407,-5.7588,-5.835,-5.8735,-5.8907,-5.9131,-5.9346,-5.9477,-5.9493,-5.9472,-5.9472,-5.9468,-5.9485,-5.9517,-5.9632,-5.9687,-5.9687,-5.9687,-5.976,-5.9869,-5.9869,-5.9869,-5.9882,-5.987,-5.9871,-5.9867,-5.9873,-5.9885,-5.9872,-5.9872,-5.9872,-5.9866,-5.9882,-5.9874,-5.9866,-5.9877,-5.9868,-5.9868,-5.9868,-5.9753,-5.9682,-5.9682,-5.9672,-5.9643,-5.9517,-5.9501,-5.9501,-5.9501,-5.9455,-5.9384,-5.9147,-5.921,-5.9022,-5.8382,-5.833,-5.8174,-5.7805,-5.7734,-5.7662,-5.7366,-5.7366,-5.7288,-5.7162,-5.7162,-5.7162,-5.7162,-5.7162,-5.7162,-5.7162,-5.7162,-5.7162,-3.5838,-3.588,-3.615,-3.7577,-3.8318,-3.872,-3.8483,-3.9355,-4.0079,-3.9551,-4.0323,-4.135,-4.2392,-4.3834,-4.5613,-4.7652,-4.8702,-4.9718,-5.139,-5.1752,-5.1949,-5.2143,-5.2587,-5.3019,-5.3312,-5.3227,-5.3405,-5.4039,-5.452,-5.494,-5.5244,-5.5836,-5.6233,-5.6359,-5.6359,-5.6359,-5.6359,-5.6404,-5.6457,-5.6545,-5.6808,-5.7101,-5.7407,-5.7792,-5.8181,-5.8499,-5.8845,-5.9022,-5.9044,-5.9384,-5.9495,-5.9458,-5.9472,-5.9489,-5.9468,-5.9532,-5.9547,-5.9547,-5.9643,-5.9682,-5.9744,-5.9714,-5.9796,-5.9873,-5.9886,-5.9855,-5.9858,-5.9865,-5.9872,-5.9865,-5.986,-5.9878,-5.9885,-5.9866,-5.9859,-5.9851,-5.9866,-5.9866,-5.9857,-5.9877,-5.9859,-5.9811,-5.9811,-5.9731,-5.9646,-5.9634,-5.9621,-5.9608,-5.9629,-5.9615,-5.9522,-5.927,-5.927,-5.9131,-5.8784,-5.8818,-5.8818,-5.8595,-5.8321,-5.8119,-5.8071,-5.7769,-5.7552,-5.7288,-5.7288,-5.7246,-5.7162,-5.7162,-5.7162,-5.7162,-5.7162,-5.7162,-3.2981,-3.2371,-3.1904,-3.3857,-3.4506,-3.5125,-3.7062,-3.784,-3.8309,-3.8944,-4.0008,-4.1024,-4.1623,-4.3131,-4.4715,-4.6101,-4.7614,-4.9006,-5.0311,-5.1293,-5.1883,-5.1883,-5.2207,-5.2461,-5.2461,-5.2461,-5.2774,-5.338,-5.3778,-5.4269,-5.5007,-5.5428,-5.5884,-5.6359,-5.6359,-5.6359,-5.6359,-5.6359,-5.6404,-5.6493,-5.6675,-5.6891,-5.7101,-5.7368,-5.7696,-5.8025,-5.8553,-5.8821,-5.893,-5.9267,-5.9421,-5.9477,-5.9475,-5.9493,-5.9493,-5.9493,-5.9493,-5.9489,-5.9576,-5.9629,-5.9696,-5.967,-5.9725,-5.979,-5.979,-5.9796,-5.9803,-5.9864,-5.9851,-5.9867,-5.9868,-5.9872,-5.9868,-5.9863,-5.9889,-5.9873,-5.9858,-5.9872,-5.9882,-5.9857,-5.9886,-5.9886,-5.9877,-5.9811,-5.9753,-5.9753,-5.9753,-5.9731,-5.9672,-5.9659,-5.9619,-5.9452,-5.9435,-5.9345,-5.908,-5.9196,-5.9139,-5.891,-5.8685,-5.8499,-5.8291,-5.8108,-5.7804,-5.7515,-5.7403,-5.7326,-5.7246,-5.7166,-5.7162,-5.7162,-5.7162,-5.7202,-2.8007,-2.728,-2.6882,-2.8211,-2.8531,-2.9723,0.0,-3.4575,-3.4604,-3.7003,-3.8299,-3.9041,-3.9257,-4.1229,-4.2835,-4.2992,-4.5946,-4.8327,-4.8617,-5.041,-5.1653,-5.1588,-5.1719,-5.1818,-5.1883,-5.1883,-5.2143,-5.2712,-5.2836,-5.343,-5.4715,-5.4905,-5.5294,-5.6233,-5.6278,-5.6314,-5.6359,-5.6359,-5.6359,-5.6359,-5.6624,-5.6718,-5.676,-5.7004,-5.7249,-5.7516,-5.8211,-5.8617,-5.8797,-5.911,-5.9307,-5.944,-5.9459,-5.9477,-5.9477,-5.9477,-5.9475,-5.9472,-5.9472,-5.956,-5.9661,-5.9676,-5.9667,-5.9684,-5.9677,-5.9669,-5.9688,-5.9796,-5.9858,-5.9864,-5.9864,-5.9869,-5.9873,-5.9886,-5.9868,-5.9871,-5.9868,-5.9882,-5.9879,-5.9866,-5.9851,-5.9866,-5.9857,-5.9877,-5.9877,-5.9886,-5.9877,-5.9821,-5.9731,-5.9693,-5.9708,-5.9684,-5.9671,-5.9591,-5.9334,-5.9434,-5.9372,-5.8997,-5.8954,-5.8808,-5.8411,-5.8352,-5.8172,-5.7805,-5.7515,-5.7366,-5.7328,-5.7206,-5.7162,-5.7202,-5.7162,-5.7206,0.0,0.0,0.0,0.0,0.0,0.0,0.0,-2.9851,-3.144,-3.2453,-3.3691,-3.5179,-3.683,-3.8892,-4.0709,-4.203,-4.4294,-4.6756,-4.9072,-4.9819,-4.9983,-4.9465,-5.0337,-5.122,-5.1818,-5.1883,-5.1949,-5.2078,-5.2587,-5.3046,-5.3421,-5.4027,-5.4679,-5.5428,-5.5645,-5.5919,-5.6359,-5.6359,-5.6359,-5.6359,-5.6537,-5.6668,-5.676,-5.6922,-5.7045,-5.7246,-5.7403,-5.7625,-5.7993,-5.8684,-5.9,-5.9022,-5.9364,-5.9477,-5.9477,-5.9477,-5.9477,-5.9495,-5.9472,-5.9489,-5.956,-5.9661,-5.9676,-5.9667,-5.9684,-5.9659,-5.9672,-5.9734,-5.9725,-5.9706,-5.9706,-5.9796,-5.9873,-5.9873,-5.9882,-5.9851,-5.986,-5.9872,-5.9829,-5.972,-5.9802,-5.9851,-5.9869,-5.9859,-5.9857,-5.9872,-5.9874,-5.9868,-5.9821,-5.9821,-5.9801,-5.9708,-5.9658,-5.9658,-5.9596,-5.9731,-5.9708,-5.9547,-5.9322,-5.912,-5.8954,-5.8628,-5.8382,-5.8204,-5.7875,-5.7589,-5.7328,-5.7206,-5.7206,-5.7326,-5.7206,-5.7206,0.0,0.0,0.0,0.0,0.0,0.0,0.0,0.0,0.0,0.0,0.0,-3.1994,-3.3705,0.0,-3.8676,-4.0501,-4.2956,-4.5129,-4.6709,-4.8168,-4.8977,-4.8681,-4.9261,-5.0173,-5.1223,-5.1653,-5.1883,-5.1883,-5.2207,-5.2554,-5.3073,-5.3396,-5.4027,-5.4784,-5.4923,-5.5314,-5.6001,-5.5966,-5.6141,-5.6359,-5.6537,-5.6624,-5.6675,-5.6838,-5.6999,-5.704,-5.7122,-5.7326,-5.7659,-5.8119,-5.8526,-5.893,-5.9126,-5.9189,-5.9192,-5.9402,-5.9477,-5.9477,-5.9475,-5.9493,-5.9489,-5.9554,-5.957,-5.9623,-5.9643,-5.9681,-5.9667,-5.9695,-5.9672,-5.9682,-5.9682,-5.9725,-5.9764,-5.9764,-5.976,-5.979,-5.9759,-5.9844,-5.9865,-5.9784,-5.9834,-5.9863,-5.9867,-5.982,-5.9779,-5.9789,-5.9782,-5.9806,-5.9858,-5.9885,-5.9183,-5.7456,-5.7992,-5.8164,-5.7319,-5.8077,-5.8921,-5.972,-5.9606,-5.936,-5.9088,-5.8907,-5.877,-5.862,-5.8285,-5.8034,-5.7837,-5.7625,-5.7479,-5.7328,-5.7401,-5.7515,0.0,0.0,0.0,0.0,0.0,0.0,0.0,0.0,0.0,0.0,0.0,0.0,0.0,0.0,0.0,-3.8091,-4.1058,-4.3394,-4.4123,-4.5979,-4.7347,-4.7414,-4.7838,-4.8711,-5.0195,-5.0897,-5.1457,-5.185,-5.1883,-5.2174,-5.283,-5.2891,-5.3312,-5.4173,-5.4228,-5.4608,-5.5364,-5.5547,-5.5824,-5.6233,-5.6413,0.0,-5.6545,-5.6796,-5.6916,-5.6922,-5.7081,-5.7209,-5.7443,-5.7553,-5.8062,-5.8696,-5.8747,-5.8759,-5.8818,-5.9288,-5.9459,-5.9421,-5.9477,-5.9475,-5.9472,-5.9468,-5.9485,-5.9501,-5.9615,-5.9652,0.0,-5.9681,-5.9695,-5.9657,-5.9657,-5.9657,-5.9657,-5.9657,-5.967,-5.9687,-5.9687,-5.9768,-5.982,-5.982,-5.984,-5.9855,-5.9829,-5.9481,-5.9095,-5.8795,-5.8762,-5.8769,-5.8882,-5.9182,-5.8339,-5.5597,-5.6818,-5.7287,-5.5903,-5.5871,-5.7054,-5.9679,-5.8536,-5.7609,-5.7279,-5.754,-5.7323,-5.6583,-5.6573,-5.6951,-5.7848,-5.7556,-5.7436,-5.7369,-5.5176,-5.4866,0.0,0.0,0.0,0.0,0.0,0.0,0.0,0.0,0.0,0.0,0.0,0.0,0.0,0.0,0.0,0.0,-3.7558,-4.0984,-4.3434,-4.3462,-4.3384,-4.3874,-4.4943,-4.6539,-4.878,-4.9073,-4.9953,-5.1785,-5.1883,-5.1949,-5.2014,-5.2273,0.0,0.0,0.0,-5.4061,-5.4732,-5.5314,-5.5631,-5.5728,-5.6187,-5.6448,-5.6545,-5.6624,-5.6668,-5.6796,-5.6922,-5.6999,-5.7045,-5.7166,-5.7479,-5.7899,-5.8113,-5.8263,-5.8471,-5.9088,-5.9327,-5.9327,-5.9459,0.0,0.0,-5.9472,-5.9489,-5.9489,-5.9501,-5.957,-5.9676,-5.9676,-5.9667,-5.9657,-5.9657,-5.9657,-5.9657,-5.9657,-5.9671,-5.9684,-5.9684,-5.9704,-5.9717,-5.9696,-5.9813,-5.984,-5.9714,-5.8418,-5.6953,-5.5581,-5.5379,-5.5351,-5.539,-5.6718,-5.748,-5.7077,-5.8554,0.0,-5.9327,-5.4091,-5.3363,-5.9489,-5.4218,-5.0807,-5.0659,-5.1967,-5.1291,-4.8249,-4.9085,-5.1693,-5.6084,-5.5709,-5.6343,-5.758,-4.6391,-4.4147,0.0,0.0,0.0,0.0,0.0,0.0,0.0,0.0,0.0,0.0,0.0,0.0,0.0,0.0,0.0,0.0,-3.5044,-3.7257,-3.7505,-3.9131,-4.0828,-4.2135,-4.338,-4.4684,-4.6069,-4.733,-4.8642,-5.0018,-5.0765,-5.1454,-5.1883,-5.1982,-5.224,-5.2683,-5.2807,-5.3261,-5.4061,-5.4372,-5.4854,-5.5596,-5.5824,-5.6095,-5.6448,-5.6501,-5.6624,-5.6668,-5.6838,-5.6958,-5.6958,-5.7081,-5.7249,-5.7405,0.0,0.0,0.0,0.0,-5.8647,-5.9088,-5.9384,-5.9477,-5.9477,-5.9455,-5.9493,-5.9493,-5.9468,-5.9522,-5.9576,-5.9554,-5.957,-5.96,-5.9652,-5.9667,-5.9667,-5.9695,-5.9657,-5.9657,-5.9657,-5.9672,-5.9684,-5.9671,-5.972,0.0,-5.9655,-5.9088,-5.838,-5.7719,-5.7634,-5.7638,-5.7641,-5.826,-5.7972,-5.6094,-5.7366,-5.7998,-5.7005,-5.529,0.0,0.0,0.0,-5.55,-5.5439,-5.6082,0.0,0.0,0.0,-4.9591,-5.0597,-4.7541,0.0,0.0,-4.1848,-4.0133,0.0,0.0,0.0,0.0,0.0,0.0,0.0,0.0,0.0,0.0,0.0,0.0,0.0,0.0,0.0,0.0,-3.1639,-3.351,-3.2683,-3.5263,-3.7782,-3.9222,-4.1288,-4.2638,-4.2724,-4.5154,-4.7159,-4.8103,-4.9591,-5.0734,-5.1292,-5.1686,-5.1982,-5.2275,-5.2275,-5.2591,-5.3321,-5.3464,-5.4096,-5.5061,-5.5214,-5.5498,-5.5919,-5.6151,-5.6288,-5.6288,-5.6753,-5.688,-5.688,-5.7081,-5.7166,-5.7134,-5.7176,-5.7369,-5.7694,-5.7795,-5.8263,-5.8893,-5.9307,-5.9477,-5.9477,-5.9493,-5.9475,-5.9495,-5.9472,-5.9489,-5.9489,-5.9468,-5.9485,-5.9501,-5.9608,-5.9623,-5.9623,-5.9667,-5.9681,-5.9681,-5.9657,-5.9657,-5.9657,-5.9657,-5.9695,-5.953,-5.9039,-5.8977,-5.8826,-5.8336,-5.8298,-5.8299,-5.8304,-5.8675,-5.8088,-5.5728,-5.6963,-5.7517,-5.6302,-5.5635,-5.6598,-5.9676,-5.807,-5.785,-5.9666,-5.7957,-5.7153,-5.7516,-5.1837,-4.8206,0.0,0.0,0.0,0.0,0.0,0.0,0.0,0.0,0.0,0.0,0.0,0.0,0.0,0.0,0.0,0.0,0.0,0.0,0.0,0.0,0.0,0.0,0.0,0.0,-3.1187,-3.267,-3.3681,-3.3828,-3.7904,-4.0212,-3.8762,-4.2172,-4.5078,-4.6588,-4.8616,-4.9782,-4.9845,-5.1127,-5.1982,-5.2275,-5.2275,-5.2404,-5.2498,-5.2986,-5.343,-5.3697,-5.4228,-5.4554,-5.4679,-5.5314,-5.5596,-5.5645,-5.6421,-5.676,-5.676,-5.7081,-5.7162,-5.7166,-5.7257,-5.7443,-5.7588,-5.7965,-5.8358,-5.8784,-5.9288,-5.9477,-5.9477,-5.9477,-5.9477,-5.9477,-5.9477,-5.9475,-5.9472,-5.9472,-5.9468,-5.9485,-5.9485,-5.9501,-5.9501,-5.9623,-5.9676,-5.969,-5.9695,-5.9657,-5.9657,-5.9657,-5.9667,-5.9147,-5.7511,-5.7214,-5.6674,-5.5038,-5.4774,0.0,-5.4786,-5.6221,-5.7201,-5.7107,-5.8593,-5.9625,-5.9719,-5.3757,-5.283,-5.9441,-5.3818,-5.3128,-5.9603,-5.3696,-5.0969,-5.2484,-4.8963,-4.7041,-4.6861,0.0,0.0,0.0,0.0,0.0,0.0,0.0,0.0,0.0,0.0,0.0,0.0,0.0,0.0,0.0,0.0,0.0,0.0,0.0,0.0,0.0,0.0,0.0,0.0,-2.9282,-3.2422,-3.3191,-3.5716,-3.6718,-3.4794,-3.8057,-4.0765,-4.1839,-4.5397,-4.7773,-4.8332,-4.9713,-5.0502,-5.0599,-5.1552,-5.2144,-5.2339,-5.2528,-5.2897,-5.3371,-5.3755,-5.4117,-5.45,-5.4819,-5.5179,-5.5596,-5.5966,-5.6323,-5.6632,-5.6838,-5.5662,-5.3795,-5.395,-5.4024,-5.4097,-5.424,-5.4508,-5.4866,-5.5036,-5.5383,-5.581,-5.6042,-5.6151,-5.6131,-5.6131,-5.69,-5.782,-5.782,-5.861,-5.9493,-5.9489,-5.9489,-5.9506,-5.9539,-5.9554,-5.9554,-5.9532,-5.9532,-5.9532,-5.9532,-5.8586,-5.688,-5.424,-5.6516,-5.7398,-5.354,-5.5804,-5.7969,-5.7958,-5.8487,-5.8815,-5.8838,-5.9338,-5.9752,-5.9844,-5.7784,-5.7457,-5.9744,-5.7759,-5.752,-5.9755,-5.771,-5.6262,-5.5656,-5.4383,-4.8837,-3.883,0.0,0.0,0.0,0.0,0.0,0.0,0.0,0.0,0.0,0.0,0.0,0.0,0.0,0.0,0.0,0.0,0.0,0.0,0.0,0.0,0.0,0.0,0.0,0.0,0.0,0.0,-3.1916,-3.4161,0.0,-3.1639,-3.3994,-3.5593,-3.544,-3.8973,-4.2091,-4.4218,-4.5692,-4.7259,-4.8957,-4.9878,-5.0467,-5.0626,-5.0626,-5.0871,-5.1373,-5.1583,-5.2142,-5.314,-5.3436,-5.4193,-5.5229,-5.4962,-5.5207,-5.5686,-5.5156,-5.3482,-5.112,-5.0693,-5.0154,-4.9721,-5.0334,-5.0827,-5.1317,-5.2575,-5.3407,-5.3963,-5.4241,-5.3527,-5.2438,-5.1909,-5.1629,-5.1595,-5.2285,-5.3674,-5.5269,-5.6466,-5.7235,-5.7703,-5.7736,-5.7736,-5.7752,-5.7767,-5.7682,-5.7611,-5.7682,-5.675,-5.4761,-5.0943,-5.339,-5.4836,-5.1677,-5.4428,-5.7586,-5.944,-5.9695,-5.9657,-5.9657,-5.9682,-5.9726,-5.9859,-5.986,-5.9868,-5.9882,-5.9872,-5.9866,-5.9868,-5.9291,-5.787,-5.558,-5.3701,-4.7094,0.0,0.0,0.0,0.0,0.0,0.0,0.0,0.0,0.0,0.0,0.0,0.0,0.0,0.0,0.0,0.0,0.0,0.0,0.0,0.0,0.0,0.0,0.0,0.0,0.0,0.0,0.0,-3.0027,-3.2928,0.0,0.0,0.0,0.0,-2.8087,-3.0103,-3.3297,-3.7798,-3.9455,-4.2384,-4.7017,-4.728,-4.7445,-4.7636,-4.7636,-4.7755,-4.8015,-4.8015,-4.8896,-5.0651,-5.1249,-5.2572,-5.4367,-5.3468,-5.3494,-5.3926,-5.195,-5.0307,-4.8886,-4.7277,-4.5663,-4.4471,-4.6193,-4.699,-4.7772,-5.1361,-5.2918,-5.3366,-5.3509,-5.1356,-4.8381,-4.6727,-4.3874,0.0,0.0,-4.5095,-4.7264,-5.0723,-5.2823,-5.4155,-5.4526,-5.4617,-5.4595,-5.4602,-5.4418,-5.4165,-5.3971,-5.4021,-5.2403,-4.7041,0.0,-4.8837,-4.8679,-5.0439,-5.3593,-5.8642,-5.9516,-5.9657,-5.9657,-5.9657,-5.9747,-5.9859,-5.9783,-5.9737,-5.9753,-5.965,-5.9607,-5.9612,-5.7908,-5.5335,-5.1848,-4.6898,0.0,0.0,0.0,0.0,0.0,0.0,0.0,0.0,0.0,0.0,0.0,0.0,0.0,0.0,0.0,0.0,0.0,0.0,0.0,0.0,0.0,0.0,0.0,0.0,0.0,0.0,-2.1812,-2.4385,-2.7461,-2.7252,-2.6111,0.0,0.0,0.0,0.0,0.0,0.0,-3.1476,-3.3909,-3.698,-4.0687,-4.2817,-4.5085,-4.7636,-4.7636,-4.7636,-4.7696,-4.7814,-4.8156,-4.8697,-4.9052,-5.0,-5.1262,-5.1076,-5.1499,-5.1878,-4.5413,-4.2602,-4.2029,-3.9117,-3.709,-3.6004,-3.7477,-3.7418,-3.7253,-4.1711,-4.3573,-4.3972,-4.4179,-4.3012,-4.098,-3.8269,0.0,0.0,0.0,0.0,-4.2153,-4.691,-4.8443,-4.9752,-5.3575,-5.4493,-5.451,-5.4488,-5.4418,-5.2902,-4.788,-4.6769,-4.3952,-3.5359,-3.8315,0.0,-3.6973,-4.4251,-5.1079,-5.3555,-5.7275,-5.9657,-5.9657,-5.9657,-5.9697,-5.9731,-5.8669,-5.7984,-5.7974,-5.6812,-5.6112,-5.6128,-5.3379,-4.9666,-4.4993,0.0,0.0,0.0,0.0,0.0,0.0,0.0,0.0,0.0,0.0,0.0,0.0,0.0,0.0,0.0,0.0,0.0,0.0,0.0,0.0,0.0,0.0,0.0,0.0,0.0,0.0,0.0,-1.8731,-2.2105,-2.5198,-2.4003,-2.2509,0.0,0.0,0.0,0.0,0.0,0.0,0.0,0.0,0.0,-3.4239,-3.5899,-3.7902,-4.043,-4.1949,-4.3061,-4.3707,-4.5303,-4.6488,-4.7255,-4.7622,-4.8624,-5.0083,-4.8871,-4.7484,-4.5752,-4.1187,-3.7835,-3.5172,0.0,0.0,0.0,0.0,-2.9727,-3.0169,-3.3758,-3.6077,-3.7248,-3.6168,0.0,0.0,0.0,0.0,0.0,0.0,0.0,-3.6827,-4.1406,-4.5229,-4.8621,-5.1587,-5.2242,-5.2242,-5.2296,-4.8738,-4.4232,-3.9767,-3.8764,-3.5964,-2.7578,-2.9765,0.0,0.0,0.0,-4.543,-4.9258,-5.4268,-5.7467,-5.7467,-5.8109,-5.8286,-5.7602,-5.7424,-5.7013,-5.6265,-5.5381,-5.4206,-5.2643,-4.8757,-4.3946,0.0,0.0,0.0,0.0,0.0,0.0,0.0,0.0,0.0,0.0,0.0,0.0,0.0,0.0,0.0,0.0,0.0,0.0,0.0,0.0,0.0,0.0,0.0,0.0,0.0,0.0,0.0,0.0,0.0,-2.033,-2.2713,0.0,0.0,0.0,0.0,0.0,0.0,0.0,0.0,0.0,0.0,0.0,0.0,0.0,-2.8829,-3.0512,-3.3595,-3.5862,-3.7292,-4.0428,-4.2721,-4.4231,-4.4652,-4.611,-4.8128,-4.539,0.0,-3.8789,-3.7324,0.0,0.0,0.0,0.0,0.0,0.0,0.0,0.0,0.0,0.0,0.0,0.0,0.0,0.0,0.0,0.0,0.0,0.0,0.0,0.0,0.0,0.0,-4.7017,-4.773,-4.8122,-4.8181,-4.7665,-4.0351,-3.3266,-3.1257,-3.0697,-2.8436,0.0,0.0,0.0,0.0,0.0,0.0,-4.5228,-5.1049,-5.4623,-5.4623,-5.5957,-5.6284,-5.4906,-5.595,-5.6036,-5.4593,-5.3757,-5.1884,-4.8583,-4.4122,0.0,0.0,0.0,0.0,0.0,0.0,0.0,0.0,0.0,0.0,0.0,0.0,0.0,0.0,0.0,0.0,0.0,0.0,0.0,0.0,0.0,0.0,0.0,0.0,0.0,0.0,0.0,0.0,0.0,0.0,0.0,0.0,0.0,0.0,0.0,0.0,0.0,0.0,0.0,0.0,0.0,0.0,0.0,0.0,0.0,0.0,0.0,0.0,0.0,0.0,-3.1371,-3.2558,-3.3265,-3.3352,-3.5237,-3.8287,-3.555,-3.6104,-3.8194,-2.9118,0.0,0.0,0.0,0.0,0.0,0.0,0.0,0.0,0.0,0.0,0.0,0.0,0.0,0.0,0.0,0.0,0.0,0.0,0.0,0.0,0.0,0.0,-3.5341,-3.8274,-4.0938,-4.1703,-3.7762,0.0,0.0,0.0,0.0,0.0,0.0,0.0,0.0,0.0,0.0,0.0,-4.0137,-4.8823,-5.4623,-5.4623,-5.4887,-5.4937,-5.4685,-5.3764,-5.3028,-5.2762,-4.7609,-4.3686,0.0,0.0,0.0,0.0,0.0,0.0,0.0,0.0,0.0,0.0,0.0,0.0,0.0,0.0,0.0,0.0,0.0,0.0,0.0,0.0,0.0,0.0,0.0,0.0,0.0,0.0,0.0,0.0,0.0,0.0,0.0,0.0,0.0,0.0,0.0,0.0,0.0,0.0,0.0,0.0,0.0,0.0,0.0,0.0,0.0,0.0,0.0,0.0,0.0,0.0,0.0,0.0,0.0,0.0,0.0,0.0,0.0,0.0,-2.9485,-2.6724,0.0,0.0,0.0,0.0,0.0,0.0,0.0,0.0,0.0,0.0,0.0,0.0,0.0,0.0,0.0,0.0,0.0,0.0,0.0,0.0,0.0,0.0,0.0,0.0,0.0,0.0,0.0,0.0,0.0,0.0,0.0,0.0,0.0,0.0,0.0,0.0,0.0,0.0,0.0,0.0,-3.6346,-4.5645,-5.2018,-5.2081,-5.2836,-5.2987,-5.2169,-5.2203,-5.0817,-4.7345,-4.3391,0.0,0.0,0.0,0.0,0.0,0.0,0.0,0.0,0.0,0.0,0.0,0.0,0.0,0.0,0.0,0.0,0.0,0.0,0.0,0.0,0.0,0.0,0.0,0.0,0.0,0.0,0.0,0.0,0.0,0.0,0.0,0.0,0.0,0.0,0.0,0.0,0.0,0.0,0.0,0.0,0.0,0.0,0.0,0.0,0.0,0.0,0.0,0.0,0.0,0.0,0.0,0.0,0.0,0.0,0.0,0.0,0.0,0.0,0.0,-2.4327,-1.8906,0.0,0.0,0.0,0.0,0.0,0.0,0.0,0.0,0.0,0.0,0.0,0.0,0.0,0.0,0.0,0.0,0.0,0.0,0.0,0.0,0.0,0.0,0.0,0.0,0.0,0.0,0.0,0.0,0.0,0.0,0.0,0.0,0.0,0.0,0.0,0.0,0.0,0.0,0.0,0.0,-3.3802,-4.3167,-4.9526,-4.9628,-5.0798,-5.11,-4.984,-5.1002,-4.906,-4.2771,-3.989,0.0,0.0,0.0,0.0,0.0,0.0,0.0,0.0,0.0,0.0,0.0,0.0,0.0,0.0,0.0,0.0,0.0,0.0,0.0,0.0,0.0,0.0,0.0,0.0,0.0,0.0,0.0,0.0,0.0,0.0,0.0,0.0,0.0,0.0,0.0,0.0,0.0,0.0,0.0,0.0,0.0,0.0,0.0,0.0,0.0,0.0,0.0,0.0,0.0,0.0,0.0,0.0,0.0,0.0,0.0,0.0,0.0,0.0,0.0,0.0,0.0,0.0,0.0,0.0,0.0,0.0,0.0,0.0,0.0,0.0,0.0,0.0,0.0,0.0,0.0,0.0,0.0,0.0,0.0,0.0,0.0,0.0,0.0,0.0,0.0,0.0,0.0,0.0,0.0,0.0,0.0,0.0,0.0,0.0,0.0,0.0,0.0,0.0,0.0,0.0,0.0,-3.33,-4.278,-4.9231,-4.9231,-4.97,-4.993,-4.9798,-4.9914,-4.7823,-4.272,0.0,0.0,0.0,0.0,0.0,0.0,0.0,0.0,0.0,0.0,0.0,0.0,0.0,0.0,0.0,0.0,0.0,0.0,0.0,0.0,0.0,0.0,0.0,0.0,0.0,0.0,0.0,0.0,0.0,0.0,0.0,0.0,0.0,0.0,0.0,0.0,0.0,0.0,0.0,0.0,0.0,0.0,0.0,0.0,0.0,0.0,0.0,0.0,0.0,0.0,0.0,0.0,0.0,0.0,0.0,0.0,0.0,0.0,0.0,0.0,0.0,0.0,0.0,0.0,0.0,0.0,0.0,0.0,0.0,0.0,0.0,0.0,0.0,0.0,0.0,0.0,0.0,0.0,0.0,0.0,0.0,0.0,0.0,0.0,0.0,0.0,0.0,0.0,0.0,0.0,0.0,0.0,0.0,0.0,0.0,0.0,0.0,0.0,0.0,0.0,0.0,0.0,-3.3209,-4.2595,-4.8997,-4.9146,-4.9301,-4.9498,-4.9741,-4.9763,-4.6327,-3.8316,0.0,0.0,0.0,0.0,0.0,0.0,0.0,0.0,0.0,0.0,0.0,0.0,0.0,0.0,0.0,0.0,0.0,0.0,0.0,0.0,0.0,0.0,0.0,0.0,0.0,0.0,0.0,0.0,0.0,0.0,0.0,0.0,0.0,0.0,0.0,0.0,0.0,0.0,0.0,0.0,0.0,0.0,0.0,0.0,0.0,0.0,0.0,0.0,0.0,0.0,0.0,0.0,0.0,0.0,0.0,0.0,0.0,0.0,0.0,0.0,0.0,0.0,0.0,0.0,0.0,0.0,0.0,0.0,0.0,0.0,0.0,0.0,0.0,0.0,0.0,0.0,0.0,0.0,0.0,0.0,0.0,0.0,0.0,0.0,0.0,0.0,0.0,0.0,0.0,0.0,0.0,0.0,0.0,0.0,0.0,0.0,0.0,0.0,0.0,0.0,0.0,0.0,-3.3064,-4.2335,-4.8737,-4.8916,-4.9091,-4.9317,-4.9628,-4.9258,-4.4923,-3.541,0.0,0.0,0.0,0.0,0.0,0.0,0.0,0.0,0.0,0.0,0.0,0.0,0.0,0.0,0.0,0.0,0.0,0.0,0.0,0.0,0.0,0.0,0.0,0.0,0.0,0.0,0.0,0.0,0.0,0.0,0.0,0.0,0.0,0.0,0.0,0.0,0.0,0.0,0.0,0.0,0.0,0.0,0.0,0.0,0.0,0.0,0.0,0.0,0.0,0.0,0.0,0.0,0.0,0.0,0.0,0.0,0.0,0.0,0.0,0.0,0.0,0.0,0.0,0.0,0.0,0.0,0.0,0.0,0.0,0.0,0.0,0.0,0.0,0.0,0.0,0.0,0.0,0.0,0.0,0.0,0.0,0.0,0.0,0.0,0.0,0.0,0.0,0.0,0.0,0.0,0.0,0.0,0.0,0.0,0.0,0.0,0.0,0.0,0.0,0.0,0.0,0.0,-3.2643,-4.2073,-4.8405,-4.8431,-4.8858,-4.9231,-4.9386,-4.8092,-4.3692,0.0,0.0,0.0,0.0,0.0,0.0,0.0,0.0,0.0,0.0,0.0,0.0,0.0,0.0,0.0,0.0,0.0,0.0,0.0,0.0,0.0,0.0,0.0,0.0,0.0,0.0,0.0,0.0,0.0,0.0,0.0,0.0,0.0,0.0,0.0,0.0,0.0,0.0,0.0,0.0,0.0,0.0,0.0,0.0,0.0,0.0,0.0,0.0,0.0,0.0,0.0,0.0,0.0,0.0,0.0,0.0,0.0,0.0,0.0,0.0,0.0,0.0,0.0,0.0,0.0,0.0,0.0,0.0,0.0,0.0,0.0,0.0,0.0,0.0,0.0,0.0,0.0,0.0,0.0,0.0,0.0,0.0,0.0,0.0,0.0,0.0,0.0,0.0,0.0,0.0,0.0,0.0,0.0,0.0,0.0,0.0,0.0,0.0,0.0,0.0,0.0,0.0,0.0,-3.2224,-3.8921,-4.4477,-4.801,-4.863,-4.8858,-4.9073,-4.8913,-4.4791,-3.5243,0.0,0.0,0.0,0.0,0.0,0.0,0.0,0.0,0.0,0.0,0.0,0.0,0.0,0.0,0.0,0.0,0.0,0.0,0.0,0.0,0.0,0.0,0.0,0.0,0.0,0.0,0.0,0.0,0.0,0.0,0.0,0.0,0.0,0.0,0.0,0.0,0.0,0.0,0.0,0.0,0.0,0.0,0.0,0.0,0.0,0.0,0.0,0.0,0.0,0.0,0.0,0.0,0.0,0.0,0.0,0.0,0.0,0.0,0.0,0.0,0.0,0.0,0.0,0.0,0.0,0.0,0.0,0.0,0.0,0.0,0.0,0.0,0.0,0.0,0.0,0.0,0.0,0.0,0.0,0.0,0.0,0.0,0.0,0.0,0.0,0.0,0.0,0.0,0.0,0.0,0.0,0.0,0.0,0.0,0.0,0.0,0.0,0.0,0.0,0.0,0.0,0.0,0.0,-3.9069,-4.4642,-4.7921,-4.8472,-4.8677,-4.8832,-4.871,-4.4616,-3.5206,0.0,0.0,0.0,0.0,0.0,0.0,0.0,0.0,0.0,0.0,0.0,0.0,0.0,0.0,0.0,0.0,0.0,0.0,0.0,0.0,0.0,0.0,0.0,0.0,0.0,0.0,0.0,0.0,0.0,0.0,0.0,0.0,0.0,0.0,0.0,0.0,0.0,0.0,0.0,0.0,0.0,0.0,0.0,0.0,0.0,0.0,0.0,0.0,0.0,0.0,0.0,0.0,0.0,0.0,0.0,0.0,0.0,0.0,0.0,0.0,0.0,0.0,0.0,0.0,0.0,0.0,0.0,0.0,0.0,0.0,0.0,0.0,0.0,0.0,0.0,0.0,0.0,0.0,0.0,0.0,0.0,0.0,0.0,0.0,0.0,0.0,0.0,0.0,0.0,0.0,0.0,0.0,0.0,0.0,0.0,0.0,0.0,0.0,0.0,0.0,0.0,0.0,0.0,-4.1507,-4.7596,-4.7991,-4.8368,-4.8583,-4.8607,-4.765,-4.3461,-3.5098,-3.0159,0.0,0.0,0.0,0.0,0.0,0.0,0.0,0.0,0.0,0.0,0.0,0.0,0.0,0.0,0.0,0.0,0.0,0.0,0.0,0.0,0.0,0.0,0.0,0.0,0.0,0.0,0.0,0.0,0.0,0.0,0.0,0.0,0.0,0.0,0.0,0.0,0.0,0.0,0.0,0.0,0.0,0.0,0.0,0.0,0.0,0.0,0.0,0.0,0.0,0.0,0.0,0.0,0.0,0.0,0.0,0.0,0.0,0.0,0.0,0.0,0.0,0.0,0.0,0.0,0.0,0.0,0.0,0.0,0.0,0.0,0.0,0.0,0.0,0.0,0.0,0.0,0.0,0.0,0.0,0.0,0.0,0.0,0.0,0.0,0.0,0.0,0.0,0.0,0.0,0.0,0.0,0.0,0.0,0.0,0.0,0.0,0.0,0.0,0.0,0.0,0.0,0.0,-3.933,-4.3856,-4.7735,-4.8325,-4.8545,-4.8719,-4.7596,-4.3348,-3.4972,-3.1158,0.0,0.0,0.0,0.0,0.0,0.0,0.0,0.0,0.0,0.0,0.0,0.0,0.0,0.0,0.0,0.0,0.0,0.0,0.0,0.0,0.0,0.0,0.0,0.0,0.0,0.0,0.0,0.0,0.0,0.0,0.0,0.0,0.0,0.0,0.0,0.0,0.0,0.0,0.0,0.0,0.0,0.0,0.0,0.0,0.0,0.0,0.0,0.0,0.0,0.0,0.0,0.0,0.0,0.0,0.0,0.0,0.0,0.0,0.0,0.0,0.0,0.0,0.0,0.0,0.0,0.0,0.0,0.0,0.0,0.0,0.0,0.0,0.0,0.0,0.0,0.0,0.0,0.0,0.0,0.0,0.0,0.0,0.0,0.0,0.0,0.0,0.0,0.0,0.0,0.0,0.0,0.0,0.0,0.0,0.0,0.0,0.0,0.0,0.0,0.0,0.0,0.0,-3.3736,-3.992,-4.7349,-4.827,-4.8468,-4.8582,-4.7476,-4.3184,-3.486,-3.1428,0.0,0.0,0.0,0.0,0.0,0.0,0.0,0.0,0.0,0.0,0.0,0.0,0.0,0.0,0.0,0.0,0.0,0.0,0.0,0.0,0.0,0.0,0.0,0.0,0.0,0.0,0.0,0.0,0.0,0.0,0.0,0.0,0.0,0.0,0.0,0.0,0.0,0.0,0.0,0.0,0.0,0.0,0.0,0.0,0.0,0.0,0.0,0.0,0.0,0.0,0.0,0.0,0.0,0.0,0.0,0.0,0.0,0.0,0.0,0.0,0.0,0.0,0.0,0.0,0.0,0.0,0.0,0.0,0.0,0.0,0.0,0.0,0.0,0.0,0.0,0.0,0.0,0.0,0.0,0.0,0.0,0.0,0.0,0.0,0.0,0.0,0.0,0.0,0.0,0.0,0.0,0.0,0.0,0.0,0.0,0.0,0.0,0.0,0.0,0.0,0.0,0.0,0.0,-3.6416,-4.5532,-4.738,-4.8037,-4.8088,-4.6962,-4.269,-3.4398,0.0,0.0,0.0,0.0,0.0,0.0,0.0,0.0,0.0,0.0,0.0,0.0,0.0,0.0,0.0,0.0,0.0,0.0,0.0,0.0,0.0,0.0,0.0,0.0,0.0,0.0,0.0,0.0,0.0,0.0,0.0,0.0,0.0,0.0,0.0,0.0,0.0,0.0,0.0,0.0,0.0,0.0,0.0,0.0,0.0,0.0,0.0,0.0,0.0,0.0,0.0,0.0,0.0,0.0,0.0,0.0,0.0,0.0,0.0,0.0,0.0,0.0,0.0,0.0,0.0,0.0,0.0,0.0,0.0,0.0,0.0,0.0,0.0,0.0,0.0,0.0,0.0,0.0,0.0,0.0,0.0,0.0,0.0,0.0,0.0,0.0,0.0,0.0,0.0,0.0,0.0,0.0,0.0,0.0,0.0,0.0,0.0,0.0,0.0,0.0,0.0,0.0,0.0,0.0,-3.4845,-3.9149,-4.3619,-4.639,-4.674,-4.5252,-4.0887,-3.2731,0.0,0.0,0.0,0.0,0.0,0.0,0.0,0.0,0.0,0.0,0.0,0.0,0.0,0.0]}],[{"header":{"parameterUnit":"kt","parameterCategory":2,"dx":1,"dy":1,"la1":29.285339999999998,"la2":30.599998999999997,"lo1":-89.70041500000002,"lo2":-87.6738589999976,"nx":112,"ny":82,"refTime":"2022-09-22T06:00:00:Z","depth":0,"parameterNumber":2,"parameterNumberName":"V-component_of_WINDS"},"data":[3.9976,4.0993,4.0593,3.4905,3.2417,2.9298,2.155,2.0098,1.9955,1.8373,1.7539,1.8409,2.2759,2.0109,1.6796,1.5402,1.0493,0.5225,0.0,0.1808,0.2334,0.0,0.0,0.0,0.0,0.0,0.0,0.0,4.0409,4.5516,4.7204,4.8028,4.927,5.1223,4.9325,4.8318,4.8481,4.7005,4.6392,4.6728,4.6673,4.6632,4.6593,4.7079,4.7261,4.7328,4.8864,5.0099,5.1101,5.1824,5.3515,5.5782,5.5782,5.7477,5.9775,5.8698,5.9167,6.054,6.1479,6.1814,6.1814,6.1814,6.1814,6.1814,6.1814,6.1814,6.1814,6.1814,6.1814,6.1814,6.1852,6.1923,6.1923,6.2028,6.2028,6.2028,6.2028,6.2028,6.2065,6.2101,6.2065,6.2065,6.2344,6.2275,6.2101,6.1994,6.1923,6.1923,6.1923,6.1923,6.1923,6.1923,6.1923,6.2028,6.2028,6.2028,6.2028,6.2028,6.2028,6.2028,6.2028,6.2028,6.1759,6.122,6.122,6.1056,6.0821,6.0821,6.1521,6.28,6.28,6.2486,3.4483,3.5145,3.4495,2.7656,2.522,2.2683,1.5364,1.299,1.227,1.2087,1.3309,1.4689,1.5758,1.5364,1.3833,1.0587,0.4417,0.0649,0.0,0.1916,0.1305,0.1305,0.3946,0.0,0.0,0.0,0.0,0.0,3.5407,4.2377,4.6846,4.7902,4.8918,5.0291,4.8835,4.818,4.8345,4.7363,4.7018,4.7297,4.6735,4.6439,4.6375,4.5911,4.5824,4.6001,4.7167,4.8606,5.0187,5.0841,5.262,5.4915,5.4915,5.6303,5.816,5.7322,5.8123,5.987,6.1311,6.1814,6.1814,6.1814,6.1814,6.1814,6.1814,6.1814,6.1814,6.1814,6.1814,6.1814,6.1814,6.1814,6.1814,6.1814,6.1814,6.1814,6.1814,6.1814,6.1852,6.189,6.1852,6.1885,6.2169,6.2031,6.189,6.1814,6.1814,6.1814,6.1814,6.1814,6.1814,6.1814,6.1814,6.1814,6.1814,6.1814,6.1814,6.1814,6.1814,6.1814,6.1814,6.1814,6.1814,6.1814,6.1814,6.1852,6.196,6.196,6.2241,6.2855,6.2855,6.2448,3.066,2.7784,2.5435,2.045,1.7685,1.5414,1.2672,1.2379,1.2583,1.2131,1.3183,1.4251,1.431,1.3225,1.0703,0.5737,0.2222,0.0,0.0,0.5922,0.4404,0.4809,0.7054,1.4887,3.0923,3.6379,3.5533,2.7485,2.975,3.6163,4.6947,4.7291,4.7696,4.9137,4.879,4.8606,4.8606,4.8987,4.8601,4.7481,4.7799,4.7411,4.6301,4.4954,4.4677,4.5234,4.5406,4.663,4.864,5.0023,5.153,5.2964,5.3031,5.384,5.5148,5.5943,5.7641,5.97,6.1211,6.1747,6.1814,6.1814,6.1814,6.1814,6.1814,6.1814,6.1814,6.1814,6.1814,6.1814,6.1814,6.1814,6.1814,6.1814,6.1814,6.1814,6.1814,6.1814,6.1814,6.1814,6.1814,6.1814,6.1814,6.1814,6.1709,6.1709,6.1742,6.1814,6.1814,6.1814,6.1814,6.1814,6.1814,6.1814,6.1814,6.1814,6.1814,6.1814,6.1814,6.1814,6.1814,6.1814,6.1814,6.1814,6.1814,6.1814,6.1814,6.1814,6.1814,6.1814,6.1814,6.1814,2.4557,2.5032,2.5154,2.0326,1.9486,1.843,1.2884,1.0846,1.0421,1.129,1.1095,0.0,0.0,0.0,1.0047,1.0506,0.0,0.4273,0.7677,1.0507,1.5646,2.4954,2.3511,2.5712,3.5701,3.7809,3.8179,3.7213,4.1012,4.4199,4.6127,4.7242,4.8054,4.8452,4.856,4.8606,4.8606,4.8683,4.8814,4.9006,4.8031,4.7715,4.7874,4.6461,4.5303,4.4584,4.4645,4.5288,4.6474,4.7899,4.9296,5.0656,5.1746,5.2081,5.2,5.3327,5.486,5.6577,5.8679,6.0015,6.0908,6.1636,6.1814,6.1814,6.1814,6.1814,6.1814,6.1814,6.1814,6.1814,6.1814,6.1814,6.1814,6.1814,6.1814,6.1814,6.1814,6.1814,6.1814,6.1814,6.1814,6.1814,6.1814,6.1238,6.065,6.0035,6.0421,6.0833,6.0833,6.1385,6.1814,6.1814,6.1814,6.1814,6.1814,6.1814,6.1814,6.1814,6.1814,6.1814,6.1814,6.1814,6.1814,6.1814,6.1814,6.1814,6.1814,6.1814,6.1814,6.1814,6.1814,6.1814,2.1624,2.1864,2.207,1.803,1.8083,1.7574,1.175,1.038,0.9994,0.8775,0.0,0.0,0.0,0.0,0.0,0.0,0.9136,0.8863,1.241,1.6199,2.1279,2.8445,2.9049,3.0602,3.4899,3.5339,3.7224,4.1624,4.2548,4.3919,4.6217,4.7029,4.7688,4.8064,4.8328,4.8375,4.8298,4.8375,4.8575,4.8863,4.8013,4.7862,4.8408,4.6923,4.6057,4.5563,4.4386,4.4631,4.5848,4.6168,4.7317,4.9108,4.9586,4.9881,5.0085,5.1709,5.3057,5.4316,5.6405,5.7882,5.898,5.9544,6.008,6.0574,6.0465,6.0498,6.0574,6.0465,6.0465,6.0465,6.0465,6.0465,6.0465,6.0465,6.0465,6.0541,6.1024,6.08,6.0758,6.1131,6.1238,6.1057,6.0541,5.997,5.9498,5.9016,5.9338,5.9656,5.9656,6.0421,6.0983,6.1098,6.1458,6.1709,6.1814,6.1814,6.1814,6.1814,6.1814,6.1814,6.1814,6.1814,6.1814,6.1814,6.1814,6.1814,6.1814,6.1814,6.1814,6.1814,6.1814,6.1814,2.034,1.8425,1.7503,1.4805,1.4644,1.4191,1.0566,0.0,1.1793,0.7634,0.0,1.0052,1.1177,0.0,0.0,0.9757,1.2041,1.5206,1.9233,2.261,2.443,2.3812,2.8635,3.1966,3.1838,3.1718,3.4737,4.2119,3.8927,3.9653,4.6589,4.6529,4.6775,4.7639,4.7985,4.8064,4.7798,4.8064,4.8064,4.7798,4.7798,4.7985,4.8142,4.6923,4.6699,4.7152,4.468,4.451,4.5757,4.4797,4.5788,4.7752,4.6987,4.7468,4.8832,5.0472,5.1739,5.2813,5.4392,5.5837,5.682,5.6899,5.7796,5.8803,5.8574,5.8656,5.8803,5.8574,5.8542,5.8542,5.8542,5.8542,5.8542,5.8542,5.8542,5.8789,5.967,5.9306,5.9129,6.008,6.0235,5.9846,5.8491,5.8325,5.8293,5.8241,5.8325,5.8376,5.8376,5.9177,5.9735,5.9827,6.0617,6.1238,6.1564,6.1636,6.1636,6.1709,6.1814,6.1814,6.1814,6.1814,6.1814,6.1814,6.1814,6.1814,6.1814,6.1814,6.1814,6.1814,6.1814,6.1814,1.6538,1.5113,1.4853,1.4083,1.2081,1.1062,0.0,0.0,0.0,1.955,1.6893,1.6609,2.381,1.9411,1.502,1.609,2.0197,2.2921,2.206,2.8863,3.3845,3.3474,3.4523,3.5195,3.5077,3.5003,3.6627,4.048,4.1341,4.2739,4.4957,4.5413,4.5948,4.6559,4.74,4.7876,4.7798,4.7876,4.7876,4.7798,4.7798,4.7798,4.7876,4.7603,4.706,4.6145,4.5626,4.4677,4.3519,4.4527,4.5149,4.5475,4.466,4.5222,4.6451,4.799,4.9979,5.2236,5.3298,5.515,5.7156,5.788,5.8319,5.8574,5.8542,5.8574,5.8574,5.8542,5.8542,5.8542,5.8542,5.8542,5.8542,5.8542,5.8542,5.8542,5.8789,5.8707,5.8656,5.8789,5.887,5.8325,5.6756,5.696,5.7192,5.6607,5.7048,5.7391,5.7391,5.8241,5.8789,5.8789,5.8951,5.9386,6.0191,6.0356,6.0692,6.1458,6.1709,6.1814,6.1814,6.1814,6.1814,6.1814,6.1814,6.1814,6.1814,6.1814,6.1814,6.1814,6.1814,6.1814,1.5007,1.3517,1.286,1.1761,1.1331,0.0,0.0,1.923,2.3931,2.3598,2.1554,2.1271,2.6049,2.237,1.904,2.025,2.4595,2.7712,2.7431,3.1451,3.4239,3.3758,3.4266,3.4733,3.4758,3.5709,3.7155,3.9409,4.1581,4.3186,4.4026,4.4114,4.4493,4.5186,4.5722,4.6057,4.6003,4.6693,4.6997,4.6886,4.732,4.756,4.7749,4.7749,4.7386,4.6768,4.6178,4.49,4.3293,4.3331,4.3691,4.412,4.3717,4.4308,4.5629,4.7187,4.8595,4.9826,5.0335,5.1734,5.339,5.3864,5.4878,5.5907,5.5994,5.6459,5.6841,5.6841,5.6841,5.6841,5.6841,5.6841,5.6841,5.6841,5.6841,5.6986,5.7477,5.7335,5.7161,5.7734,5.7335,5.6605,5.5757,5.5911,5.6034,5.5695,5.5881,5.6185,5.6185,5.7017,5.7594,5.7649,5.8042,5.8542,5.9145,5.9226,5.9433,5.9937,6.0617,6.095,6.095,6.1531,6.1814,6.1814,6.1814,6.1814,6.1814,6.1814,6.1814,6.1814,6.1814,6.1814,1.3647,1.2173,1.1224,1.0008,1.1114,0.0,1.3662,2.0154,2.5863,2.5329,2.5265,2.5459,2.5836,2.4091,2.2941,2.3976,2.7211,3.0182,3.1805,3.1984,3.1698,3.1305,3.2292,3.3142,3.3415,3.4959,3.6711,3.8537,4.0529,4.2153,4.3284,4.3005,4.3095,4.3787,4.4086,4.4174,4.4114,4.5357,4.5977,4.578,4.6752,4.7269,4.754,4.754,4.759,4.7658,4.66,4.5316,4.3945,4.2488,4.2327,4.2888,4.3231,4.3829,4.4726,4.6469,4.733,4.757,4.7941,4.8855,4.9916,4.9916,5.1303,5.2954,5.3103,5.3764,5.442,5.442,5.4629,5.4838,5.4838,5.5018,5.5227,5.5227,5.5227,5.5479,5.6276,5.5942,5.5789,5.6605,5.5942,5.5227,5.5227,5.5227,5.5227,5.5227,5.5227,5.5227,5.5227,5.5881,5.6366,5.6426,5.7074,5.7734,5.8073,5.8158,5.821,5.8376,5.9274,5.9827,6.0015,6.095,6.1564,6.1709,6.1709,6.1709,6.1814,6.1709,6.1709,6.1814,6.1814,6.1814,1.0429,0.9712,0.9962,1.1389,1.0487,0.0,1.8098,1.9586,2.164,2.9098,3.047,3.0176,2.9766,2.8559,2.7896,2.8967,2.9215,2.9715,3.1244,3.1,3.0772,3.0916,3.1715,3.2309,3.2704,3.3559,3.5131,3.7537,3.8512,4.0012,4.207,4.2574,4.2758,4.2547,4.3402,4.3937,4.4114,4.4899,4.5328,4.5498,4.6588,4.7056,4.7167,4.7189,4.7269,4.732,4.717,4.6361,4.5042,4.3724,4.241,4.1431,4.2768,4.2692,4.2165,4.4607,4.6252,4.7419,4.8586,4.9987,5.1156,5.1156,5.1278,5.1488,5.1605,5.1548,5.1519,5.1519,5.2505,5.3462,5.3462,5.433,5.5227,5.5227,5.5227,5.5197,5.5385,5.5291,5.5291,5.5385,5.5291,5.5227,5.5227,5.5227,5.5227,5.5227,5.5227,5.5227,5.5227,5.5291,5.5385,5.5385,5.5448,5.5881,5.6694,5.6929,5.7304,5.8126,5.8459,5.9065,5.9846,6.0035,6.0531,6.1458,6.1458,6.1564,6.1814,6.1564,6.1531,6.1814,6.1814,6.1814,0.8936,0.8913,0.9502,1.0284,0.0,0.0,1.4487,1.9639,2.4427,2.6242,2.8455,2.9897,2.9367,2.8455,2.8259,3.0014,2.7916,2.6876,2.9181,2.9606,2.9541,2.919,3.03,3.1154,3.1239,3.2291,3.4154,3.7023,3.7755,3.8924,4.1014,4.1118,4.1239,4.1318,4.1764,4.1925,4.2111,4.3068,4.3581,4.3671,4.5186,4.5612,4.51,4.5864,4.6115,4.6003,4.6115,4.574,4.4876,4.3708,4.3229,4.3291,4.3157,4.3366,4.3769,4.4876,4.6103,4.7329,4.7868,4.8436,4.8945,4.8945,4.9453,5.0082,5.0082,5.062,5.1248,5.1248,5.1667,5.2086,5.2056,5.3043,5.4061,5.4061,5.4659,5.5227,5.5227,5.5227,5.5227,5.5227,5.5227,5.5227,5.5227,5.5227,5.5227,5.5227,5.5227,5.5227,5.5227,5.5227,5.5227,5.5227,5.5227,5.5385,5.5727,5.5881,5.6034,5.6426,5.7074,5.7904,5.8821,5.9498,6.0301,6.1305,6.1305,6.1378,6.1485,6.1378,6.1418,6.1636,6.1709,6.1814,0.706,0.0,0.0,0.0,0.0,0.0,1.4797,2.0525,2.5049,2.342,2.5874,2.8041,2.7257,2.6481,2.6444,2.7726,2.5473,2.4364,2.6638,2.7492,2.7806,2.7576,2.877,2.9606,2.978,3.1154,3.3054,3.5748,3.6784,3.7986,3.9694,3.991,4.0113,4.0383,4.0409,4.0409,4.048,4.1549,4.2084,4.2204,4.3849,4.4262,4.3671,4.4639,4.4899,4.4698,4.4899,4.4726,4.417,4.3448,4.347,4.38,4.2859,4.2942,4.3626,4.3961,4.4901,4.5985,4.6101,4.6537,4.6997,4.6723,4.7457,4.8509,4.8509,4.9309,5.0116,5.0116,5.0171,5.0231,5.056,5.1667,5.2714,5.2714,5.3732,5.4659,5.4659,5.439,5.424,5.4599,5.4659,5.4779,5.5138,5.5227,5.5227,5.5227,5.5227,5.5227,5.5227,5.5227,5.5227,5.5227,5.5227,5.5227,5.5227,5.5227,5.5227,5.5227,5.5942,5.6752,5.7649,5.8523,5.9371,6.0378,6.064,6.0748,6.0857,6.0563,6.0454,6.065,6.0908,6.1131,0.0,0.0,0.0,1.2195,1.176,1.3949,2.3265,2.2446,2.0331,2.2473,2.4328,2.5162,2.3763,2.3118,2.2595,2.159,2.2098,2.2852,2.3721,2.4755,2.5659,2.6384,2.7191,2.7896,2.857,3.0196,3.1701,3.3101,3.529,3.7046,3.8131,3.9119,3.9723,3.9871,3.9871,3.9943,4.0062,4.0807,4.1376,4.1643,4.2859,4.3374,4.3374,4.3671,4.376,4.376,4.376,4.3436,4.3049,4.323,4.2631,4.1447,4.1301,4.0504,3.9552,4.0603,4.1749,4.2971,4.3333,4.4876,4.6506,4.5498,4.5894,4.6759,4.6759,4.6953,4.7175,4.7175,4.7227,4.7658,4.8945,5.0321,5.1338,5.1338,5.2355,5.3313,5.3313,5.2295,5.1787,5.3043,5.3313,5.3732,5.4988,5.5227,5.5227,5.5227,5.5227,5.5227,5.5227,5.5227,5.5227,5.5227,5.5227,5.5227,5.5227,5.5227,5.5227,5.5227,5.5197,5.5604,5.6605,5.6605,5.7192,5.821,5.9065,5.961,5.9957,5.8739,5.8325,5.8638,5.8885,5.953,0.8515,1.1584,1.4738,1.7055,1.8946,2.0714,2.2445,2.1659,2.0215,1.8722,1.922,1.9925,1.9855,1.8452,1.7652,1.8796,1.9446,2.0604,2.285,2.3995,2.4925,2.5678,2.6198,2.6896,2.7806,2.8503,2.9969,3.2562,3.3527,3.4995,3.7421,3.8034,3.8582,3.9131,3.9354,3.9526,3.9501,3.9795,4.0087,4.0429,4.1281,4.147,4.1049,4.1751,4.2097,4.2097,4.2243,4.2124,4.1818,4.2058,4.2277,4.2392,4.1618,4.1122,4.0867,4.0982,4.1447,4.2103,4.3004,4.3804,4.4459,4.427,4.4465,4.4726,4.4726,4.4726,4.5014,4.5612,4.5751,4.612,4.7398,4.8121,4.8688,4.9693,5.0949,5.1966,5.1966,5.1401,5.0927,5.1372,5.2234,5.319,5.3607,5.4536,5.5227,5.5227,5.5227,5.5227,5.5227,5.5227,5.5227,5.5227,5.5227,5.5227,5.5227,5.5227,5.5227,5.5227,5.5227,5.5634,5.6515,5.6515,5.7048,5.7967,5.8305,5.8221,5.7711,5.7882,5.8105,5.8241,5.8325,5.8656,0.6412,1.2923,1.851,1.7816,1.8111,1.8742,1.9224,1.8773,1.7625,1.4931,1.5571,1.6665,1.7008,1.5154,1.428,1.6451,1.7385,1.8761,2.1086,2.242,2.363,2.4944,2.5189,2.5713,2.6804,2.7241,2.8381,3.0509,3.1782,3.3261,3.5097,3.6147,3.7061,3.7958,3.826,3.8585,3.9008,3.9032,3.9255,3.9478,3.999,4.0087,3.965,4.0256,4.0519,4.0519,4.0571,4.0571,4.0519,4.0641,4.1118,4.1526,4.0814,4.0599,4.0705,4.0039,4.0187,4.0797,4.0867,4.165,4.2604,4.2405,4.2838,4.3464,4.3464,4.3492,4.3732,4.4262,4.4524,4.4813,4.5641,4.5809,4.6097,4.6968,4.8189,4.9009,4.863,4.8366,4.8393,4.9244,5.0185,5.1071,5.1875,5.2828,5.3664,5.414,5.42,5.4472,5.5044,5.5103,5.5103,5.5227,5.5227,5.5227,5.5227,5.5227,5.5227,5.5227,5.5227,5.5479,5.6034,5.6125,5.6397,5.6902,5.7223,5.6991,5.6125,5.6636,5.7048,5.7248,5.7248,5.7366,-0.1137,1.1983,2.3156,1.5061,1.0613,0.9501,1.447,1.4254,1.264,1.1359,1.3276,1.5125,1.4803,1.3137,1.2358,1.4284,1.574,1.7195,1.8446,1.9931,2.1721,2.3858,2.3954,2.4318,2.5507,2.6231,2.6784,2.715,2.9912,3.1575,3.1445,3.3474,3.5118,3.6171,3.6562,3.7302,3.8385,3.8634,3.8858,3.8858,3.9131,3.923,3.923,3.923,3.923,3.923,3.8958,3.9057,3.923,3.923,3.923,3.923,3.8988,3.8992,3.9046,3.7707,3.8072,3.8969,3.7092,3.8466,4.0988,4.0039,4.1108,4.275,4.2832,4.3014,4.3194,4.3222,4.3374,4.3671,4.3671,4.376,4.376,4.376,4.4437,4.4784,4.3937,4.376,4.4389,4.6584,4.702,4.769,4.9862,5.0393,5.0894,5.2131,5.2367,5.3055,5.4516,5.4789,5.4914,5.5133,5.5133,5.5133,5.5133,5.5133,5.5197,5.5227,5.5227,5.5227,5.5227,5.5227,5.5227,5.5227,5.6034,5.6034,5.5227,5.5227,5.5291,5.5572,5.5572,5.5665,0.3249,0.8613,1.3847,1.7548,1.6258,1.4449,1.5623,1.3202,1.0423,0.9441,1.0164,1.0775,0.9915,0.9701,1.0238,1.2006,1.3285,1.4874,1.7473,1.8947,2.0443,2.1917,2.2859,2.357,2.4318,2.4508,2.5319,2.6784,2.7471,2.8886,3.1379,3.2023,3.3123,3.4657,3.565,3.6401,3.6917,3.778,3.8433,3.8858,3.8709,3.8809,3.8958,3.8809,3.8685,3.8709,3.8833,3.8958,3.8958,3.923,3.9131,3.9008,3.9103,3.86,3.7893,3.8296,3.7598,3.6676,3.7188,3.7274,3.7385,3.8269,3.8894,3.9533,4.0339,4.0763,4.1144,4.1898,4.2058,4.2336,4.3222,4.3464,4.3492,4.3671,4.3937,4.4026,4.376,4.3374,4.3304,4.3968,4.4926,4.5925,4.6538,4.8302,4.9726,5.0163,5.1604,5.2773,5.3189,5.3991,5.4532,5.4658,5.4628,5.4628,5.4628,5.4628,5.4724,5.4884,5.4884,5.4884,5.4884,5.4884,5.4884,5.4884,5.5138,5.5138,5.4884,5.5103,5.5197,5.5291,5.5291,5.5321,0.0619,0.2168,0.4298,0.9776,0.9971,0.8939,0.9386,0.8295,0.7084,0.6919,0.7099,0.7313,0.7028,0.7862,0.9136,1.0446,1.152,1.3069,1.5535,1.6819,1.8242,2.0344,2.0968,2.1869,2.3281,2.3474,2.4032,2.53,2.5951,2.7333,2.9495,3.015,3.1224,3.3049,3.3869,3.483,3.6009,3.6837,3.7679,3.8534,3.8509,3.8609,3.8734,3.8585,3.8184,3.7679,3.8232,3.8534,3.8534,3.8833,3.8833,3.8734,3.8809,3.8563,3.7996,3.8144,3.7203,3.582,3.6172,3.5814,3.5388,3.6764,3.7524,3.8169,3.9201,3.965,3.9918,4.0404,4.0571,4.0763,4.159,4.1778,4.1845,4.2151,4.252,4.2677,4.2151,4.1751,4.159,4.1751,4.2752,4.3772,4.4209,4.5522,4.6789,4.7314,4.8872,5.0079,5.0249,5.1708,5.272,5.2883,5.3349,5.3894,5.434,5.4466,5.4436,5.4628,5.4599,5.4599,5.4599,5.4599,5.4599,5.4599,5.4503,5.4503,5.4599,5.4914,5.5009,5.5009,5.5103,5.5227,-0.4968,-0.4772,-0.3849,-0.1411,-0.0763,-0.0327,0.1199,0.239,0.34,0.4356,0.4279,0.4374,0.5141,0.6863,0.8445,0.9425,1.0398,1.1531,1.3283,1.4262,1.5817,1.8444,1.876,1.9678,2.1983,2.2488,2.2877,2.3281,2.4885,2.6199,2.7033,2.8189,2.9641,3.1335,3.1707,3.2936,3.498,3.5673,3.6505,3.7577,3.7881,3.8059,3.8059,3.7958,3.735,3.6551,3.7397,3.7929,3.803,3.8309,3.8385,3.8485,3.8485,3.8609,3.8636,3.78,3.6882,3.5835,3.4907,3.4386,3.4336,3.5628,3.6764,3.771,3.8858,3.923,3.923,3.923,3.923,3.9329,3.9675,3.9773,3.9871,4.0041,4.0693,4.098,3.9943,3.9773,3.9871,4.0041,4.0693,4.1523,4.2374,4.2601,4.3059,4.4274,4.5563,4.6547,4.6885,4.88,5.0146,5.0569,5.148,5.255,5.3796,5.3826,5.3826,5.3923,5.402,5.4117,5.4117,5.4244,5.4244,5.3826,5.3826,5.3923,5.4117,5.4421,5.4522,5.4522,5.4562,5.4685,-0.6363,-0.6121,-0.5322,-0.1704,-0.0763,-0.0218,0.1854,0.1741,0.1703,0.3371,0.2341,0.1634,0.3404,0.5312,0.7107,0.8666,0.965,1.0777,1.2158,1.3311,1.4344,1.5277,1.6627,1.8067,1.9578,2.0161,2.0968,2.2488,2.321,2.4376,2.6018,2.6991,2.8202,2.9482,3.0763,3.1727,3.2348,3.3437,3.4276,3.4914,3.523,3.5568,3.5695,3.523,3.5335,3.6113,3.6217,3.6861,3.775,3.803,3.8107,3.8208,3.8409,3.8409,3.8208,3.829,3.6996,3.522,3.5415,3.4161,3.2895,3.5086,3.5942,3.6461,3.8341,3.9131,3.923,3.923,3.923,3.9329,3.9329,3.9329,3.9329,3.9428,3.9526,3.9625,3.9428,3.9329,3.9329,3.9428,3.9526,3.9697,3.9868,4.0725,4.151,4.1966,4.3703,4.5195,4.5371,4.6648,4.7918,4.8845,4.9149,4.9776,5.0771,5.0854,5.0958,5.1214,5.2089,5.2621,5.2621,5.3601,5.3078,5.0958,5.1987,5.2621,5.2621,5.2783,5.2848,5.2818,5.1845,5.2025,-0.6531,-0.61,-0.5238,-0.3435,-0.233,-0.1415,-0.0326,-0.0544,-0.064,0.0496,0.0098,0.0096,0.2081,0.4131,0.5835,0.6945,0.8373,0.9731,1.065,1.1731,1.2902,1.4043,1.4863,1.5896,1.7431,1.8645,1.9777,2.0589,2.1886,2.3537,2.5579,2.6213,2.728,2.9045,2.9766,3.0538,3.1283,3.2018,3.2765,3.3847,3.4147,3.4382,3.4617,3.3025,3.2916,3.4127,3.4639,3.5508,3.6598,3.6861,3.7397,3.7929,3.803,3.803,3.7929,3.803,3.6779,3.506,3.5245,3.3921,3.2384,3.4196,3.4711,3.503,3.66,3.7483,3.8022,3.8022,3.8489,3.8908,3.9032,3.9032,3.9131,3.923,3.9008,3.8908,3.9032,3.9032,3.9131,3.923,3.923,3.923,3.923,3.9753,4.0101,4.0227,4.1714,4.2604,4.2116,4.3575,4.5019,4.5699,4.6208,4.7104,4.8284,4.9043,4.9399,4.9475,5.0598,5.1166,5.1166,5.1681,5.1196,4.9426,5.0016,5.0088,4.9417,4.9608,5.0045,5.0541,5.0023,5.0537,-0.6473,-0.6134,-0.5703,-0.5552,-0.4406,-0.3198,-0.2815,-0.3032,-0.308,-0.2602,-0.237,-0.1548,0.0723,0.2566,0.4081,0.5409,0.7137,0.8588,0.9308,1.0383,1.1566,1.2892,1.3311,1.4021,1.5472,1.7112,1.8256,1.8875,2.0589,2.2619,2.4837,2.5349,2.6504,2.8701,2.8756,2.931,3.0407,3.0593,3.1354,3.2567,3.2765,3.307,3.32,3.1191,3.067,3.1656,3.2827,3.4019,3.5086,3.538,3.6136,3.7113,3.7216,3.7318,3.7444,3.7648,3.651,3.4875,3.4875,3.3656,3.2202,3.3322,3.3687,3.393,3.5153,3.6124,3.6828,3.7071,3.7702,3.8409,3.8634,3.8758,3.8833,3.8933,3.8709,3.8509,3.8734,3.8833,3.8833,3.9008,3.9107,3.9107,3.9107,3.9107,3.9107,3.9107,3.9951,4.0199,3.933,4.0849,4.2191,4.2619,4.3419,4.4605,4.6121,4.6948,4.7567,4.7973,4.8829,4.9421,4.9691,4.8993,4.8188,4.7378,4.7659,4.7373,4.6367,4.661,4.7171,4.7953,4.8097,4.8884,-0.6804,-0.7544,-0.8484,-0.739,-0.6425,-0.5304,-0.3751,-0.4464,-0.5398,-0.5051,-0.5138,-0.4357,-0.146,-0.0468,0.1095,0.4875,0.6276,0.7403,0.8607,0.9757,1.0404,1.0617,1.1549,1.2682,1.3928,1.4552,1.5908,1.8182,1.899,2.057,2.3353,2.419,2.5427,2.7298,2.7582,2.8046,2.8834,2.8816,2.9063,2.9538,2.9785,3.0087,3.0275,2.9652,2.9329,2.9557,3.0875,3.2279,3.3653,3.3653,3.4212,3.5108,3.5568,3.6136,3.6748,3.7444,3.6239,3.427,3.4527,3.3413,3.2058,3.2885,3.331,3.376,3.5528,3.6102,3.6388,3.7344,3.7857,3.8107,3.8107,3.8309,3.8509,3.8208,3.8232,3.8208,3.8509,3.8509,3.8509,3.8585,3.8585,3.8585,3.8585,3.8585,3.8585,3.8585,3.8807,3.9156,3.923,3.9504,3.9977,4.1053,4.1331,4.2234,4.4377,4.3722,4.4075,4.5973,4.6523,4.7204,4.8144,4.5163,4.3427,4.3326,4.4458,4.4996,4.4891,4.499,4.5142,4.5236,4.5072,4.5808,-0.7245,-0.749,-0.7878,-0.7836,-0.7896,-0.7508,-0.5932,-0.645,-0.6829,-0.5547,-0.5971,-0.5844,-0.3255,-0.1484,0.0089,0.1281,0.4097,0.6498,0.7151,0.869,0.9969,1.0297,1.0716,1.1345,1.2184,1.3416,1.4552,1.5484,1.6602,1.8458,2.1032,2.1531,2.2691,2.4765,2.6011,2.6615,2.6948,2.7448,2.793,2.8162,2.8277,2.8277,2.8028,2.8162,2.8392,2.8623,2.9538,3.0313,3.0948,3.1596,3.2478,3.3437,3.3611,3.3976,3.4577,3.5531,3.4798,3.3276,3.4058,3.3145,3.1708,3.2054,3.2174,3.2428,3.3091,3.3784,3.4381,3.4811,3.5456,3.6103,3.6726,3.6992,3.7236,3.7785,3.7828,3.7828,3.803,3.8107,3.8208,3.8208,3.8409,3.8485,3.8485,3.8485,3.8485,3.8485,3.8609,3.8709,3.8809,3.8809,3.9081,3.9626,3.9675,4.0123,4.1222,4.1496,4.21,4.2866,4.3786,4.433,4.4519,4.3414,4.2449,4.175,4.2193,4.2272,4.1808,4.1836,4.2181,4.2913,4.2828,4.3768,-0.7603,-0.7554,-0.758,-0.8002,-0.8623,-0.8797,-0.7462,-0.8263,-0.8686,-0.6504,-0.6973,-0.7222,-0.5313,-0.3354,-0.1871,-0.1557,0.2022,0.4958,0.5929,0.7574,0.8991,0.9433,0.9533,0.9854,1.0494,1.1628,1.2663,1.351,1.4748,1.6568,1.9008,1.9199,2.0306,2.2704,2.3963,2.4813,2.5539,2.6145,2.6749,2.7216,2.7216,2.6866,2.6414,2.6982,2.7332,2.7663,2.8392,2.8641,2.8756,2.9861,3.0948,3.1667,3.1777,3.2128,3.2827,3.3933,3.3225,3.1955,3.318,3.2422,3.1041,3.1211,3.1297,3.1429,3.1677,3.2183,3.2918,3.3534,3.4315,3.5218,3.6192,3.5585,3.483,3.625,3.6574,3.6574,3.6655,3.6861,3.7043,3.7373,3.7577,3.7881,3.8208,3.8208,3.8309,3.8409,3.8409,3.8409,3.8485,3.8485,3.8609,3.8734,3.8734,3.8956,3.9502,3.9999,4.0519,4.1188,4.1789,4.1783,4.1121,4.1331,4.1064,4.0271,4.0348,4.0101,3.9576,3.9675,4.0138,4.0954,4.1334,4.2309,-0.7772,-0.8147,-0.8628,-0.8093,-0.8576,-0.8824,-0.7627,-0.965,-1.1085,-0.8526,-0.8556,-0.8769,-0.7538,-0.6673,-0.5318,-0.2566,0.0184,0.2811,0.5344,0.6441,0.7158,0.7379,0.7691,0.8108,0.875,0.875,1.0022,1.2987,1.3615,1.4867,1.7436,1.7748,1.8936,2.1374,2.1415,2.2507,2.4813,2.4947,2.5421,2.6263,2.6263,2.5926,2.5367,2.5926,2.6263,2.638,2.7216,2.7582,2.7698,2.8756,2.9538,2.9955,3.0255,3.0909,3.1798,3.2718,3.1851,3.0316,3.164,3.1045,2.9849,3.0502,3.0846,3.1292,3.1999,3.2303,3.2747,3.478,3.5538,3.5971,3.7082,3.4067,3.1267,3.3354,3.3912,3.389,3.4169,3.4276,3.4595,3.5777,3.6009,3.6321,3.7523,3.775,3.7852,3.803,3.8131,3.8208,3.8485,3.8485,3.8485,3.8485,3.8485,3.8949,4.0151,3.9144,3.9437,4.1609,4.1071,3.9965,3.8558,3.8534,3.8509,3.8509,3.8758,3.8858,3.8858,3.9131,3.9329,3.9329,4.0615,4.1255,-0.8169,-0.7765,-0.7636,-0.9202,-1.0185,-1.0672,-1.0645,-1.1289,-1.1934,-1.1772,-1.0516,-0.9179,-0.7865,-0.6481,-0.5025,-0.3437,-0.0749,0.1603,0.3014,0.4321,0.5311,0.5639,0.5855,0.6174,0.6594,0.7679,0.8864,1.0022,1.1344,1.2832,1.462,1.519,1.6116,1.7585,1.8937,2.029,2.1551,2.2144,2.3244,2.4622,2.3003,2.2762,2.3679,2.4383,2.4979,2.5572,2.6397,2.6631,2.6732,2.7448,2.793,2.8144,2.8605,2.9159,2.9634,3.0152,2.9742,2.885,2.9504,2.9081,2.8256,2.8546,2.8703,2.8925,2.9143,2.9724,3.0217,3.0182,3.0729,3.1573,3.2661,3.1924,3.1025,3.1703,3.2346,3.2818,3.2923,3.3417,3.4105,3.4426,3.4617,3.5147,3.6344,3.58,3.5905,3.7625,3.7192,3.6964,3.7828,3.7929,3.7929,3.7929,3.8131,3.8454,3.8997,3.8704,3.8778,3.9485,3.9115,3.8774,3.8509,3.8485,3.8485,3.8485,3.8609,3.8734,3.8858,3.8958,3.9131,3.9329,3.9697,4.0256,-0.9514,-0.9186,-0.9046,-1.1213,-1.1577,-1.1513,-1.2094,-1.1968,-1.1776,-1.175,-1.077,-0.9619,-0.8641,-0.7742,-0.6809,-0.5549,-0.3048,-0.0585,0.1639,0.2761,0.3488,0.3977,0.4093,0.4333,0.483,0.5729,0.6927,0.8378,0.9653,1.0963,1.2583,1.3326,1.4203,1.536,1.6733,1.797,1.9097,1.9714,2.0574,2.1429,2.0206,2.0342,2.1943,2.2791,2.3649,2.4398,2.5453,2.5926,2.5926,2.6631,2.6866,2.6866,2.7349,2.7523,2.7645,2.8234,2.7856,2.7083,2.771,2.7518,2.6896,2.7464,2.7646,2.7716,2.7806,2.8256,2.8701,2.8504,2.8885,2.9258,2.8954,2.9091,2.9254,2.9355,3.0046,3.0721,3.0394,3.1133,3.2092,3.2522,3.2989,3.3632,3.483,3.4404,3.4404,3.6032,3.5591,3.5486,3.6217,3.6781,3.709,3.709,3.7625,3.803,3.8208,3.8208,3.8208,3.8309,3.8131,3.803,3.8208,3.8208,3.8208,3.8309,3.8309,3.8509,3.8734,3.8734,3.8833,3.9008,3.9032,3.9403,-1.1322,-1.1615,-1.1906,-1.3581,-1.2789,-1.1777,-1.2458,-1.1973,-1.0962,-0.9646,-0.9858,-1.0146,-0.9659,-0.9941,-0.968,-0.8102,-0.6284,-0.36,0.0624,0.1179,0.1437,0.2054,0.2176,0.2431,0.3214,0.3461,0.4598,0.7432,0.8213,0.9435,1.1241,1.193,1.3011,1.4358,1.4766,1.5632,1.7222,1.763,1.763,1.7233,1.763,1.8626,2.0193,2.1172,2.2051,2.282,2.4263,2.4995,2.5114,2.5808,2.6145,2.6145,2.6263,2.6176,2.6113,2.686,2.6198,2.5118,2.6337,2.6167,2.5787,2.6896,2.7373,2.7373,2.7534,2.7604,2.7793,2.8749,2.8981,2.8411,2.6022,2.5897,2.645,2.6591,2.7413,2.8019,2.7269,2.7863,2.8969,3.008,3.0955,3.1847,3.3112,3.3221,3.3329,3.3675,3.3675,3.3761,3.4062,3.5147,3.58,3.58,3.6884,3.7546,3.7546,3.7648,3.7852,3.803,3.7852,3.7648,3.775,3.775,3.7852,3.803,3.8131,3.8208,3.8485,3.8485,3.8485,3.8485,3.8734,3.8858,-0.9801,-0.991,-1.0123,-1.1694,-1.3397,-1.4708,-1.4582,-1.3154,-1.177,-1.1288,-1.0639,-1.0149,-1.0283,-0.902,-0.755,-0.6414,-0.64,-0.5908,-0.4108,-0.4179,-0.3742,-0.2005,-0.1652,-0.0711,0.1316,0.2514,0.3695,0.4961,0.643,0.8022,0.9741,1.0773,1.1868,1.3349,1.3621,1.4258,1.5243,1.5516,1.5516,1.5243,1.537,1.6367,1.8218,1.8454,1.9209,2.0342,2.1185,2.2037,2.2762,2.4009,2.486,2.5572,2.6028,2.5945,2.5417,2.4874,2.4525,2.4223,2.4329,2.4292,2.4413,2.4698,2.4887,2.5076,2.5076,2.562,2.6105,2.5589,2.5457,2.5362,2.471,2.4683,2.4811,2.4927,2.5537,2.6157,2.587,2.6565,2.7557,2.8428,2.8892,2.9745,3.1516,3.1171,3.1374,3.3221,3.2786,3.2567,3.3524,3.3869,3.3976,3.3976,3.5275,3.6055,3.6055,3.7113,3.7648,3.757,3.7468,3.7468,3.775,3.775,3.775,3.7852,3.803,3.8107,3.8208,3.8409,3.8485,3.8485,3.8585,3.8609,-1.0514,-1.1231,-1.1657,-1.1297,-1.2202,-1.3201,-1.2977,-1.1657,-1.0519,-1.0439,-0.9888,-0.9568,-1.0202,-0.9423,-0.858,-0.8287,-0.7826,-0.6953,-0.5414,-0.5,-0.4581,-0.4165,-0.2659,-0.1474,-0.0747,0.0999,0.2606,0.3667,0.4888,0.6328,0.8108,0.8842,0.9753,1.0782,1.1816,1.2464,1.2831,1.2967,1.2967,1.2831,1.3613,1.4747,1.6116,1.6597,1.7472,1.8602,1.932,2.0058,2.0914,2.1637,2.2239,2.2683,2.3187,2.3307,2.3096,2.2226,2.2333,2.297,2.3155,2.3281,2.3474,2.3762,2.3972,2.4164,2.4259,2.4622,2.4981,2.4431,2.4145,2.3954,2.3954,2.4227,2.4409,2.4045,2.4945,2.5602,2.4853,2.6118,2.7241,2.7315,2.8142,2.9127,3.0124,2.9861,3.0087,3.1394,3.106,3.0948,3.1707,3.2238,3.2676,3.2676,3.3761,3.4533,3.4533,3.5823,3.6471,3.639,3.5845,3.5823,3.6574,3.6551,3.6884,3.757,3.7648,3.7852,3.7929,3.8208,3.8208,3.8107,3.8409,3.8385,-1.1579,-1.3225,-1.4032,-1.1687,-1.0906,-1.0686,-1.0571,-0.9687,-0.8894,-0.8799,-0.8665,-0.8779,-0.9615,-0.989,-1.0251,-1.0707,-0.939,-0.7566,-0.5819,-0.489,-0.4669,-0.5623,-0.3213,-0.1655,-0.234,-0.0523,0.1427,0.278,0.3478,0.4515,0.6295,0.682,0.7431,0.8203,0.9624,1.0268,1.0011,1.0525,1.0789,1.0789,1.2472,1.3621,1.4367,1.5098,1.5929,1.6875,1.7709,1.8413,1.8818,1.9082,1.9244,1.9426,1.9751,2.0051,2.0338,1.9719,2.0307,2.1372,2.1904,2.2276,2.2568,2.3263,2.3648,2.3762,2.405,2.4164,2.4164,2.4164,2.3858,2.3474,2.3474,2.3955,2.4276,2.3634,2.4608,2.532,2.4166,2.5664,2.7118,2.6639,2.7757,2.8953,2.9082,2.91,2.9233,2.9462,2.9462,2.9557,2.9747,3.0724,3.1263,3.1374,3.2348,3.3112,3.3221,3.4191,3.4852,3.4639,3.3869,3.3869,3.4852,3.5064,3.5823,3.7263,3.7287,3.7468,3.7648,3.7929,3.7857,3.7511,3.7966,3.7969,-1.0211,-1.1971,-1.3493,-1.2349,-1.2328,-1.2448,-1.1768,-1.0555,-0.9491,-0.9165,-0.8686,-0.837,-0.8325,-0.8174,-0.8219,-0.8691,-0.866,-0.8692,-0.9377,-0.9856,-0.9606,-0.8043,-0.6357,-0.4538,-0.2343,-0.0784,0.0523,0.1302,0.1956,0.2997,0.4406,0.5205,0.6258,0.7805,0.8064,0.7546,0.6128,0.872,1.0017,1.0146,1.1831,1.2855,1.323,1.3349,1.3557,1.3734,1.4702,1.5448,1.6029,1.6875,1.7642,1.854,1.9041,1.892,1.8576,1.883,1.9091,1.912,1.9221,1.9977,2.1051,2.1624,2.2259,2.2991,2.3474,2.3666,2.3666,2.3666,2.357,2.3474,2.3474,2.3272,2.3131,2.3395,2.3361,2.3368,2.3527,2.4376,2.5355,2.5825,2.6884,2.7937,2.861,2.8967,2.9233,2.9233,2.9215,2.9233,2.9329,2.9424,2.9652,2.9898,3.0875,3.1727,3.1928,3.3004,3.3221,3.1969,3.2916,3.3545,3.3653,3.4639,3.5718,3.6931,3.716,3.7389,3.7366,3.7648,3.7296,3.6412,3.651,3.6031,-1.036,-1.2189,-1.3715,-1.1873,-1.2162,-1.2547,-1.1223,-1.0667,-1.0193,-0.933,-0.8954,-0.8769,-0.8708,-0.8333,-0.839,-0.9628,-0.9421,-0.9423,-1.0458,-0.9977,-0.9669,-0.9825,-0.7544,-0.5857,-0.5594,-0.2867,-0.1045,-0.0784,0.0654,0.1831,0.261,0.3264,0.4046,0.4952,0.5865,0.5608,0.3788,0.6128,0.7498,0.7641,0.9788,1.0959,1.1284,1.1903,1.2309,1.2384,1.2852,1.3338,1.4074,1.452,1.5092,1.574,1.6128,1.5979,1.578,1.6321,1.6764,1.7138,1.7471,1.8472,1.9663,2.0145,2.0854,2.1657,2.2242,2.1852,2.1264,2.1264,2.146,2.146,2.1362,2.1591,2.1902,2.195,2.2466,2.2884,2.2688,2.3815,2.4964,2.5349,2.636,2.7458,2.8267,2.8526,2.8659,2.8852,2.8852,2.8967,2.91,2.91,2.9215,2.9347,2.9785,3.02,3.0294,3.0836,3.0856,3.0219,3.0856,3.1303,3.1303,3.2567,3.3545,3.4083,3.4852,3.5508,3.6182,3.6367,3.6292,3.5782,3.5978,3.5504,-1.2614,0.0,-1.5055,-1.3006,-1.3225,-1.3461,0.0,-1.1365,-1.1129,-0.9514,-0.9165,-0.9152,-0.9061,-0.8611,-0.8669,-1.0118,-0.9627,-0.9579,-1.0819,-0.9494,-0.9019,-1.0784,-0.8054,-0.6589,-0.7905,-0.5033,-0.2733,-0.2214,-0.0653,0.0523,0.1307,0.17,0.1961,0.2352,0.3634,0.3752,0.2331,0.411,0.5185,0.5444,0.7771,0.9014,0.9291,1.0482,1.1149,1.1296,1.1535,1.1948,1.2418,1.2564,1.2766,1.3085,1.3272,1.3457,1.3562,1.4096,1.4701,1.5392,1.6048,1.6858,1.7878,1.8559,1.9463,2.0244,2.0723,2.0046,1.9062,1.9262,1.9348,1.9548,1.9463,1.9992,2.0505,2.0359,2.1368,2.2248,2.1706,2.3224,2.4645,2.4834,2.5797,2.6917,2.7824,2.7966,2.8064,2.8392,2.8508,2.8623,2.8889,2.8889,2.8985,2.8985,2.8985,2.91,2.91,2.91,2.8985,2.8985,2.9329,2.9462,2.9576,3.0856,3.1596,3.1707,3.2895,3.3869,3.4746,3.4758,3.4675,3.4303,3.4442,3.3889,0.0,-1.8865,-1.8306,-1.8012,-1.7524,-1.6649,-1.4707,-1.3653,0.0,-0.9855,-0.9316,-0.9101,-0.8383,-0.8003,-0.7892,-0.8144,-0.8042,-0.8677,-1.0926,-1.0388,-0.9978,-1.0618,-0.8677,-0.7214,-0.7289,-0.6178,-0.4556,-0.2605,-0.2084,-0.1175,0.0524,0.0917,0.1178,0.1568,0.1785,0.1762,0.1638,0.3541,0.4562,0.4552,0.6695,0.7754,0.7743,0.9173,0.9613,0.9456,1.0716,1.1217,1.1003,1.1307,1.1406,1.1512,1.1981,1.2289,1.2615,1.3257,1.3677,1.397,1.4503,1.4816,1.5128,1.646,1.7776,1.8875,1.9377,1.8846,1.8141,1.8631,1.8717,1.8832,1.9363,1.9177,1.899,1.9377,1.9792,2.0207,2.0656,2.2065,2.3475,2.4056,2.4809,2.5788,2.7112,2.7233,2.7466,2.8081,2.8197,2.8197,2.8215,2.8215,2.8295,2.8605,2.8605,2.8738,2.91,2.8852,2.8605,2.8605,2.8985,2.9329,2.9576,3.0651,3.1414,3.1707,3.2895,3.3437,3.3545,3.2904,3.2003,3.106,3.0181,2.926,-2.048,-2.1709,-2.2226,-2.0,-2.0061,-1.9762,-1.6223,-1.5149,-1.4095,-1.1242,-1.0189,-0.9585,-0.881,-0.8574,-0.8759,-0.9545,-0.9118,-0.9467,-1.1505,-1.1638,-1.1408,-1.0972,-1.0149,-0.9509,-0.9531,-0.7959,-0.664,-0.5594,-0.4431,-0.3001,-0.1177,-0.0785,-0.0649,-0.0764,-0.0371,0.0244,0.1221,0.217,0.2847,0.3143,0.4646,0.5398,0.5521,0.6861,0.7476,0.7497,0.8821,0.9519,0.0,1.0716,1.115,1.1265,1.146,1.1672,1.1787,1.2404,1.2721,1.3037,1.3677,1.3992,1.419,1.4701,1.5416,1.6242,1.6934,1.632,1.5404,1.5599,1.5793,1.5999,1.6332,1.6755,1.728,1.7674,1.8182,1.8688,1.889,1.9685,2.0677,2.1757,2.2986,2.4228,2.5596,2.6263,2.6749,2.6982,2.7349,2.76,2.76,2.7966,2.8197,2.8295,2.8295,2.8179,2.7948,2.8179,2.8295,2.8295,2.8623,2.8852,2.8967,2.9652,2.9993,3.0087,3.0519,3.0724,3.0724,3.1405,3.1347,3.0678,3.0317,2.934,-2.4129,-2.5255,-2.5949,-2.3601,-2.3643,-2.3069,-1.8609,-1.7183,-1.574,-1.2099,-1.0634,-0.9852,-0.9144,-0.8988,-0.932,-1.0253,-0.9948,-1.0398,-1.2623,-1.3043,-1.2939,-1.2253,-1.1999,-1.1578,-1.0837,-0.9556,-0.8406,-0.7546,-0.6384,-0.4825,-0.3003,-0.259,-0.2542,-0.2716,-0.1796,-0.0708,0.0236,0.0936,0.1499,0.203,0.2929,0.3451,0.3594,0.4882,0.5531,0.5747,0.6932,0.7792,0.8328,0.9191,0.9847,1.0502,1.0502,1.0502,1.0716,1.1443,1.1655,1.1655,1.2615,1.3142,1.3457,1.3562,1.3992,1.4399,1.499,1.4377,1.3562,1.3562,1.3656,1.3866,1.4295,1.492,1.5543,1.5738,1.6688,1.74,1.7204,1.7925,1.8986,2.0118,2.1054,2.2183,2.3823,2.4506,2.4913,2.5255,2.5658,2.6011,2.6011,2.6631,2.7116,2.7116,2.76,2.76,2.6866,2.76,2.8215,2.8215,2.841,2.849,2.8605,2.8852,2.8985,2.91,2.91,2.91,2.91,3.0106,3.0193,2.9476,2.9476,2.8497,-2.9651,-2.9942,-2.9181,-2.9384,-2.8717,-2.6846,-2.2229,-1.9866,-1.7222,-1.2171,-1.0456,-0.9777,-0.9224,-0.9148,-0.929,-0.9676,-0.9935,-1.124,-1.4528,-1.4519,-1.4345,-1.4602,-1.4159,-1.2915,-1.0716,-1.0759,-1.0011,-0.7934,-0.7805,-0.6899,-0.4825,-0.444,-0.4187,-0.3941,-0.2318,-0.1368,-0.1368,0.0,0.0981,0.1308,0.1636,0.1854,0.2181,0.3594,0.4243,0.4351,0.5531,0.6174,0.6389,0.6389,0.7368,0.8676,0.8676,0.8877,0.9298,1.0388,1.0281,0.9732,1.1425,1.2184,1.251,1.3152,1.3572,1.3772,1.3772,1.3457,1.3027,1.3027,1.3027,1.3142,1.3667,1.3772,1.3772,1.3772,1.5188,1.6372,1.5822,1.7294,1.8858,1.9467,1.9225,1.9595,2.1954,2.1874,2.1908,2.3141,2.3349,2.3349,2.3349,2.4202,2.4813,2.4813,2.6263,2.6749,2.591,2.7233,2.8099,2.8215,2.8197,2.8295,2.8605,2.8605,2.8719,2.91,2.91,2.91,2.91,2.91,2.8253,2.6634,2.6615,2.5971,-2.9583,-3.0299,-3.1096,-3.0472,-3.0138,-2.8492,-2.3301,-2.084,-1.8278,-1.354,-1.1466,-1.0323,-0.989,-0.9814,-1.0102,-1.0939,-1.1356,-1.2477,-1.4881,-1.5726,-1.6095,-1.6109,-1.5479,-1.4464,-1.3055,-1.2008,-1.0796,-0.9366,-0.9237,-0.8387,-0.6332,-0.7134,-0.7042,-0.5444,-0.4707,-0.3748,-0.2647,-0.1313,-0.0545,-0.0109,0.0981,0.1526,0.1636,0.2179,0.2615,0.2833,0.4023,0.467,0.4998,0.585,0.6497,0.7147,0.7147,0.7368,0.7691,0.8013,0.8126,0.8126,0.8549,0.9519,1.0478,1.0789,1.1857,1.2721,1.1981,1.199,1.2317,1.2317,1.2317,1.2423,1.2529,1.2931,1.3352,1.3667,1.4193,1.4662,1.4751,1.524,1.6029,1.7352,1.8098,1.8959,2.0456,2.1078,2.1614,2.1915,2.24,2.2627,2.2627,2.3349,2.3828,2.3828,2.3828,2.3709,2.3349,2.444,2.5539,2.6514,2.6749,2.7233,2.8295,2.8295,2.8313,2.8428,2.8428,2.8428,2.8428,2.8079,2.7646,2.7155,2.6217,2.563,-3.0407,-3.1139,-3.1924,-3.1395,-3.1225,-2.9897,-2.4815,-2.207,-1.9269,-1.4726,-1.2113,-1.0824,-1.1286,-1.13,-1.1858,-1.3693,-1.3891,-1.4563,-1.6795,-1.7394,-1.7504,-1.7395,-1.7052,-1.6196,-1.5093,-1.3458,-1.22,-1.1424,-1.0532,-0.9471,-0.799,-0.8683,-0.8434,-0.6725,-0.6035,-0.5106,-0.402,-0.2828,-0.2069,-0.1742,-0.0871,-0.0109,0.0545,0.0762,0.1198,0.1854,0.2724,0.3157,0.3483,0.4236,0.4882,0.5535,0.5535,0.5747,0.6183,0.6614,0.6614,0.6619,0.7051,0.8019,0.8977,0.9184,0.9938,1.0691,1.0175,1.0494,1.1035,1.1035,1.1035,1.1141,1.1469,1.1884,1.2298,1.2941,1.3494,1.3815,1.3981,1.4397,1.4975,1.6174,1.6628,1.7431,1.8778,1.9159,1.9491,2.007,2.0391,2.0554,2.0792,2.1564,2.2051,2.2051,2.1915,2.178,2.178,2.3109,2.4202,2.5066,2.5303,2.5775,2.6631,2.6631,2.6729,2.6917,2.6917,2.712,2.727,2.6991,2.6577,2.6342,2.5489,2.4954,-3.1642,-3.1959,-3.2032,-3.2032,-3.2115,-3.0935,-2.6434,-2.3371,-2.0266,-1.5654,-1.2726,-1.1425,-1.2836,-1.3258,-1.4313,-1.7168,-1.7056,-1.7473,-1.9899,-1.9442,-1.885,-1.8706,-1.8626,-1.8004,-1.6869,-1.5224,-1.3959,-1.346,-1.1816,-1.0438,-0.9904,-0.9487,-0.886,-0.7869,-0.6655,-0.5773,-0.5535,-0.4348,-0.3588,-0.3369,-0.3152,-0.2393,-0.0981,-0.0761,0.0109,0.1199,0.1417,0.1744,0.2072,0.2072,0.2833,0.4029,0.4029,0.4348,0.4774,0.5747,0.5639,0.5211,0.6291,0.7153,0.7905,0.7905,0.7936,0.808,0.8468,0.9005,0.9448,0.9426,0.9519,0.974,1.0494,1.0716,1.0937,1.1832,1.2909,1.3678,1.3708,1.4364,1.5235,1.5682,1.5324,1.554,1.7134,1.6566,1.6528,1.8048,1.7894,1.7755,1.8365,1.917,1.9777,1.9777,2.0316,2.0766,2.0819,2.2343,2.3424,2.3604,2.3844,2.4052,2.4229,2.4229,2.4388,2.4985,2.4969,2.5317,2.5844,2.5773,2.5345,2.4716,2.4644,2.4232,-3.0718,-3.1235,-3.1948,-3.1948,-3.2032,-3.1017,-2.7058,-2.4559,-2.1621,-1.6558,-1.4402,-1.3183,-1.2295,-1.4212,-1.6521,-1.8421,-1.9556,-2.089,-2.2641,-2.1802,-2.0942,-2.0954,-1.9505,-1.8377,-1.8128,-1.6492,-1.5108,-1.3959,-1.307,-1.2496,-1.2611,-1.112,-0.9744,-0.8585,-0.8231,-0.7797,-0.7277,-0.5864,-0.5106,-0.5102,-0.3694,-0.2937,-0.2611,-0.2283,-0.1414,-0.0327,0.0,0.0653,0.1526,0.1745,0.2181,0.2617,0.2617,0.2724,0.305,0.3268,0.3485,0.3597,0.3814,0.4785,0.5859,0.6075,0.6628,0.7073,0.6934,0.7825,0.894,0.8951,0.9205,0.9526,0.974,0.9847,1.0121,1.1277,1.2548,1.3388,1.3831,1.4082,1.4504,1.5424,1.5558,1.5683,1.6639,1.6512,1.6573,1.6901,1.6836,1.7054,1.7652,1.7902,1.8027,1.8027,1.8271,1.8552,1.8998,1.9351,2.0104,2.151,2.1901,2.2397,2.3187,2.3172,2.3648,2.4407,2.4516,2.4881,2.5844,2.5203,2.4895,2.4716,2.4107,2.3634,-3.1128,-3.1453,-3.1864,-3.1948,-3.2032,-3.1365,-2.8462,-2.6449,-2.3941,-1.9783,-1.7539,-1.6042,-1.5129,-1.6881,-1.9004,-2.0636,-2.1545,-2.2507,-2.3929,-2.2373,-2.117,-2.1348,-2.0257,-1.9517,-1.9517,-1.8128,-1.6869,-1.599,-1.4457,-1.3823,-1.4583,-1.2729,-1.0903,-0.9018,-0.8886,-0.8528,-0.7822,-0.7056,-0.6624,-0.6512,-0.5535,-0.4778,-0.4128,-0.38,-0.2932,-0.1632,-0.1304,-0.0544,0.0764,0.0887,0.1328,0.1966,0.1997,0.2102,0.2295,0.2443,0.268,0.2912,0.2957,0.3769,0.4784,0.4784,0.5243,0.5707,0.5635,0.6326,0.7308,0.7307,0.7502,0.7834,0.8622,0.8735,0.9111,1.0536,1.1419,1.1838,1.2145,1.2811,1.348,1.4048,1.4616,1.5272,1.5914,1.5868,1.5921,1.6398,1.6346,1.6407,1.7005,1.6775,1.665,1.7037,1.7058,1.7384,1.7891,1.7934,1.8455,1.996,2.0109,2.0542,2.1218,2.1694,2.2447,2.3587,2.3682,2.4415,2.5844,2.519,2.4978,2.5203,2.4793,2.4615,-3.1804,-3.1864,-3.1864,-3.2032,-3.2032,-3.1633,-2.9952,-2.8504,-2.664,-2.3713,-2.1612,-2.0063,-1.9458,-2.0684,-2.2294,-2.371,-2.4089,-2.4516,-2.5267,-2.3314,-2.1623,-2.1564,-2.1007,-2.0639,-2.0639,-1.9505,-1.8637,-1.8151,-1.6105,-1.5214,-1.6336,-1.4515,-1.2588,-1.0388,-0.9921,-0.913,-0.793,-0.7972,-0.7755,-0.7487,-0.7379,-0.6727,-0.5643,-0.5347,-0.4473,-0.2935,-0.2749,-0.1875,-0.0441,-0.0114,0.0568,0.1445,0.1714,0.1933,0.2116,0.2174,0.2427,0.2668,0.2738,0.3361,0.4077,0.3859,0.4122,0.4618,0.4568,0.4928,0.5542,0.5512,0.5504,0.5977,0.7274,0.7511,0.7996,0.9606,0.9982,1.0115,1.041,1.1475,1.2293,1.24,1.3263,1.424,1.4756,1.4485,1.462,1.5728,1.5582,1.5594,1.6241,1.5914,1.5778,1.6293,1.6346,1.6701,1.7402,1.7327,1.7743,1.8898,1.8891,1.8927,1.9258,2.0007,2.1034,2.2137,2.2351,2.3429,2.5278,2.4727,2.4851,2.5526,2.5526,2.5526,-3.1636,-3.172,-3.1864,-3.1864,-3.2032,-3.174,-3.0589,-3.0206,-2.9326,-2.6784,-2.6541,-2.607,-2.3884,-2.5649,-2.7653,-2.795,-2.9276,-2.9981,-2.9291,-2.7454,-2.5541,-2.3739,-2.1957,-2.0885,-2.0885,-2.0516,-1.9764,-1.8501,-1.8117,-1.7992,-1.8117,-1.644,-1.5358,-1.4992,-1.2835,-1.0687,-0.8683,-0.8589,-0.8484,-0.8043,-0.7601,-0.7272,-0.7061,-0.7043,-0.6246,-0.4901,-0.4728,-0.384,-0.2389,-0.0822,-0.0119,0.0237,0.1428,0.1905,0.2017,0.2026,0.2148,0.2388,0.2759,0.3119,0.3488,0.3581,0.3928,0.423,0.4017,0.4394,0.496,0.4831,0.5146,0.5738,0.5858,0.5977,0.6373,0.8384,0.8804,0.9239,1.1005,1.1486,1.1643,1.1636,1.1801,1.1959,1.1959,1.1921,1.2289,1.3349,1.3443,1.3932,1.5516,1.5652,1.5525,1.5652,1.5799,1.6329,1.7369,1.7083,1.727,1.8525,1.8501,1.8536,1.8395,1.8611,1.9048,1.9909,1.9895,2.0956,2.2952,2.2952,2.331,2.4116,2.4116,2.4116,-3.204,-3.2006,-3.172,-3.1864,-3.1948,-3.1993,-3.1505,-3.1408,-3.0888,-2.9201,-2.9794,-2.9921,-2.7725,-2.8915,-3.0062,-2.9577,-2.9534,-2.9374,-2.9049,-2.6858,-2.4985,-2.4039,-2.2321,-2.1375,-2.1375,-2.1007,-2.0516,-1.9875,-1.9875,-1.9875,-1.9641,-1.8253,-1.738,-1.738,-1.5008,-1.3202,-1.2285,-1.0971,-0.9856,-0.8716,-0.8249,-0.7908,-0.7806,-0.7566,-0.7088,-0.6317,-0.6255,-0.5455,-0.3992,-0.3026,-0.2185,-0.1438,0.0244,0.0851,0.0841,0.159,0.197,0.2222,0.2507,0.2771,0.2902,0.3196,0.3625,0.3906,0.3809,0.4068,0.4483,0.4428,0.4662,0.4911,0.528,0.5406,0.5675,0.6894,0.7299,0.745,0.8317,0.8749,0.9194,0.9863,1.0803,1.1446,1.1446,1.1446,1.1574,1.2087,1.2592,1.3103,1.323,1.323,1.323,1.323,1.3835,1.4666,1.598,1.6095,1.6884,1.84,1.8144,1.8138,1.8342,1.8952,1.9542,2.0314,2.0432,2.1356,2.2965,2.2604,2.285,2.3571,2.3571,2.3571,-3.2231,-3.2174,-3.1636,-3.172,-3.1864,-3.2032,-3.1948,-3.2167,-3.2227,-3.1341,-3.2222,-3.2728,-3.1276,-3.1402,-3.1537,-3.1203,-3.0152,-2.9364,-2.9163,-2.7121,-2.5416,-2.4606,-2.3153,-2.2093,-2.1741,-2.1375,-2.113,-2.1239,-2.113,-2.0885,-2.0762,-1.9641,-1.901,-1.901,-1.6784,-1.5623,-1.5747,-1.3411,-1.1414,-0.9776,-0.9297,-0.8831,-0.825,-0.7834,-0.7584,-0.7289,-0.7285,-0.6694,-0.5572,-0.4869,-0.3994,-0.3067,-0.1254,-0.0624,-0.0491,0.088,0.1396,0.1527,0.1947,0.2221,0.2613,0.3007,0.3268,0.3531,0.3531,0.3793,0.4187,0.4187,0.4187,0.4448,0.4834,0.4964,0.5225,0.5876,0.601,0.601,0.614,0.6547,0.7121,0.8048,0.9378,1.0416,1.0416,1.0545,1.0803,1.106,1.1695,1.1944,1.1189,1.1317,1.1582,1.1831,1.2592,1.3604,1.5243,1.5706,1.6649,1.8412,1.8051,1.8016,1.8412,1.917,1.9888,2.0355,2.049,2.1212,2.2521,2.2037,2.2158,2.2883,2.2883,2.2883,-3.1623,-3.1684,-3.1804,-3.1551,-3.172,-3.1804,-3.1551,-3.2491,-3.3277,-3.2989,-3.376,-3.4411,-3.4408,-3.3136,-3.2567,-3.3702,-3.3187,-3.2444,-3.1638,-3.1212,-2.9748,-2.6531,-2.4694,-2.3259,-2.2093,-2.1741,-2.1619,-2.1849,-2.1375,-2.1007,-2.0994,-2.0639,-2.0529,-2.0529,-1.8492,-1.749,-1.7857,-1.5355,-1.3165,-1.1531,-1.0945,-0.9887,-0.8481,-0.8128,-0.7862,-0.7553,-0.7743,-0.7549,-0.712,-0.5402,-0.4683,-0.4417,-0.2735,-0.2084,-0.1821,-0.0391,0.013,0.013,0.0522,0.1437,0.2613,0.3007,0.3137,0.3137,0.3137,0.3401,0.3662,0.3662,0.4054,0.4318,0.4318,0.4318,0.4445,0.5094,0.5352,0.5482,0.614,0.6262,0.6258,0.64,0.7046,0.7561,0.7561,0.8089,0.8872,0.9888,1.0017,1.0017,1.0017,1.0803,1.1831,1.2847,1.2975,1.3995,1.6293,1.6524,1.7026,1.8435,1.8412,1.84,1.8435,1.856,1.856,1.8548,1.856,1.917,2.0147,2.0147,2.0626,2.147,2.147,2.147,-3.2346,-3.2164,-3.1636,-3.172,-3.172,-3.1636,-3.1804,-3.2009,-3.2212,-3.2298,-3.4043,-3.5647,-3.5613,-3.5449,-3.5319,-3.5069,-3.3384,-3.1772,-3.0678,-2.9843,-2.8868,-2.76,-2.5523,-2.3963,-2.3499,-2.3379,-2.2912,-2.2093,-2.1619,-2.1252,-2.1007,-2.0762,-2.0652,-2.0652,-1.9576,-1.9197,-1.927,-1.7283,-1.5868,-1.5014,-1.2564,-1.1084,-1.033,-0.9194,-0.8433,-0.8116,-0.8156,-0.8048,-0.7976,-0.7019,-0.6656,-0.6522,-0.4567,-0.3785,-0.3525,-0.1959,-0.0784,-0.0131,-0.0914,-0.0261,0.0914,0.1045,0.183,0.2746,0.2746,0.3007,0.3268,0.3268,0.3401,0.3531,0.3793,0.3923,0.4054,0.4445,0.4576,0.4706,0.4967,0.5358,0.5616,0.5616,0.6136,0.6656,0.6656,0.731,0.7959,0.8743,0.8872,0.8872,0.8872,0.926,0.99,1.0918,1.1567,1.2855,1.4766,1.5525,1.6293,1.7184,1.7674,1.7788,1.7788,1.8299,1.8435,1.8435,1.8435,1.8673,1.9046,1.9046,1.917,1.9529,1.9529,1.9529,-3.1587,-3.172,-3.1564,-3.1287,-3.1455,-3.1636,-3.1864,-3.172,-3.1636,-3.172,-3.3228,-3.4598,-3.4956,-3.5169,-3.5342,-3.4927,-3.3083,-3.1374,-3.0612,-2.9482,-2.8586,-2.8241,-2.6698,-2.5271,-2.444,-2.4678,-2.4337,-2.2912,-2.2564,-2.1971,-2.1252,-2.0885,-2.0652,-2.0652,-2.0406,-2.016,-2.016,-1.8998,-1.8241,-1.7868,-1.4962,-1.3451,-1.307,-1.0775,-0.9636,-0.9125,-0.8743,-0.8489,-0.8359,-0.7964,-0.783,-0.757,-0.6132,-0.5608,-0.5348,-0.3655,-0.2351,-0.1697,-0.2612,-0.1959,-0.0784,-0.0784,0.0,0.1045,0.1567,0.196,0.2352,0.2746,0.3007,0.3137,0.3401,0.3531,0.3531,0.3923,0.4056,0.4056,0.4187,0.4576,0.4964,0.4964,0.5485,0.5876,0.5876,0.6526,0.7181,0.7964,0.8094,0.8094,0.8094,0.8229,0.8743,0.9759,1.0281,1.1567,1.374,1.4367,1.5263,1.6429,1.6922,1.7288,1.7527,1.7913,1.8299,1.8435,1.8435,1.8435,1.8435,1.8435,1.8435,1.8435,1.8435,1.8435,-2.922,-3.0162,-3.1466,-3.0281,-3.0973,-3.1804,-3.1551,-3.1744,-3.1829,-3.149,-3.1297,-3.1433,-3.2361,-3.2259,-3.2363,-3.3339,-3.2482,-3.1667,-3.1576,-3.0612,-2.9501,-2.8356,-2.8241,-2.7181,-2.4678,-2.5523,-2.5775,-2.444,-2.4083,-2.3259,-2.1741,-2.1252,-2.0885,-2.0652,-2.0652,-2.0652,-2.0652,-2.027,-2.0036,-2.0024,-1.7992,-1.6869,-1.6377,-1.307,-1.1417,-1.0918,-0.963,-0.8737,-0.8359,-0.7964,-0.783,-0.783,-0.7565,-0.7436,-0.7176,-0.5348,-0.4697,-0.4697,-0.4697,-0.3655,-0.2221,-0.2221,-0.2221,-0.183,-0.0522,0.0261,0.0784,0.2091,0.2746,0.3007,0.3007,0.3007,0.3137,0.3531,0.3662,0.3793,0.4187,0.4318,0.4318,0.4318,0.4834,0.5221,0.5221,0.5746,0.64,0.7176,0.7306,0.7306,0.7306,0.7959,0.8743,0.9765,0.9378,1.0274,1.3613,1.3332,1.3832,1.6167,1.6419,1.6671,1.7402,1.7402,1.7788,1.8435,1.8435,1.8435,1.8435,1.8435,1.8435,1.8435,1.8435,1.8435,-2.9939,-2.9709,-2.98,-3.1114,-3.1587,-3.1636,-3.1864,-3.2298,-3.2311,-3.09,-3.1081,-3.1301,-3.0659,-3.1123,-3.1495,-3.1391,-3.1027,-3.0766,-3.0422,-3.0181,-2.9842,-2.9501,-2.8701,-2.7895,-2.7164,-2.7414,-2.7065,-2.5775,-2.4559,-2.3604,-2.2883,-2.1714,-2.0885,-2.0652,-2.0652,-2.0652,-2.0652,-2.0529,-2.027,-2.0024,-1.9146,-1.8004,-1.6733,-1.535,-1.3968,-1.2568,-1.1039,-1.0274,-1.0146,-0.8743,-0.8229,-0.8224,-0.783,-0.77,-0.7565,-0.7046,-0.6916,-0.6916,-0.64,-0.5221,-0.3916,-0.3783,-0.3003,-0.2091,-0.1699,-0.1437,-0.1306,-0.0914,0.0,0.0914,0.1176,0.196,0.2746,0.3137,0.3268,0.3399,0.3793,0.3793,0.3923,0.4187,0.4448,0.4576,0.4576,0.5094,0.5612,0.5742,0.5872,0.6002,0.653,0.6661,0.744,0.899,0.899,0.963,1.116,1.0769,1.0769,1.1921,1.3197,1.4222,1.4883,1.6157,1.7048,1.7788,1.7788,1.8049,1.8435,1.8435,1.8435,1.8435,1.8435,1.8435,-2.7674,-2.6923,-2.6534,-2.8283,-2.8571,-2.8955,-3.0961,-3.1332,-3.1299,-3.1117,-3.1117,-3.0914,-3.0102,-3.0341,-3.0589,-3.0225,-3.0333,-3.0474,-3.023,-3.0063,-2.9955,-2.9955,-2.9387,-2.893,-2.893,-2.893,-2.8356,-2.7198,-2.6229,-2.5018,-2.3349,-2.2535,-2.1592,-2.0652,-2.0652,-2.0652,-2.0652,-2.0652,-2.0529,-2.0283,-1.9653,-1.8898,-1.8004,-1.7266,-1.6136,-1.4602,-1.2312,-1.1168,-1.0789,-0.9255,-0.8483,-0.8359,-0.8094,-0.7964,-0.7964,-0.7964,-0.7964,-0.77,-0.7315,-0.653,-0.5485,-0.5352,-0.47,-0.3788,-0.3133,-0.3003,-0.2873,-0.2352,-0.1567,-0.0784,-0.0653,0.0,0.0653,0.1045,0.1568,0.2091,0.2483,0.3007,0.3531,0.3923,0.4056,0.4056,0.4187,0.4576,0.4834,0.4834,0.4834,0.5094,0.5746,0.5876,0.6266,0.7695,0.7825,0.8208,0.9225,0.8715,0.8838,1.0255,1.1274,1.2568,1.3995,1.4892,1.603,1.7037,1.7413,1.7663,1.8049,1.8299,1.8435,1.8435,1.8435,1.8311,-2.3501,-2.2891,-2.2657,-2.3672,-2.394,-2.4941,0.0,-2.914,-2.9165,-3.0912,-3.0464,-2.9822,-2.9851,-2.9544,-2.9303,-2.941,-2.9838,-3.0198,-3.0379,-2.9991,-2.9822,-2.9935,-3.0011,-3.0068,-2.9955,-2.9955,-2.9501,-2.8472,-2.8241,-2.6931,-2.3933,-2.3589,-2.2762,-2.0885,-2.0762,-2.0775,-2.0652,-2.0652,-2.0652,-2.0652,-1.9913,-1.9529,-1.9406,-1.8797,-1.7913,-1.6628,-1.3841,-1.2192,-1.1296,-0.9759,-0.8996,-0.8618,-0.8489,-0.8359,-0.8359,-0.8359,-0.8094,-0.783,-0.783,-0.7445,-0.6929,-0.6799,-0.6535,-0.601,-0.4828,-0.4434,-0.4174,-0.3003,-0.2483,-0.2352,-0.2352,-0.2221,-0.2091,-0.1699,-0.0653,0.0392,0.0653,0.183,0.2876,0.3137,0.3399,0.3793,0.3923,0.4187,0.4187,0.4056,0.4187,0.4445,0.5094,0.5091,0.5355,0.601,0.614,0.6526,0.7417,0.6903,0.7421,0.974,0.9998,1.1032,1.3485,1.374,1.4639,1.6167,1.7037,1.7402,1.7527,1.8174,1.8435,1.8311,1.8435,1.8174,0.0,0.0,0.0,0.0,0.0,0.0,0.0,-2.5495,-2.6498,-2.6163,-2.656,-2.6872,-2.6881,-2.6729,-2.6817,-2.7294,-2.741,-2.7817,-2.9195,-2.92,-2.9296,-3.0016,-3.0847,-3.0929,-3.0068,-2.9955,-2.9842,-2.9615,-2.8701,-2.7762,-2.678,-2.5625,-2.4202,-2.2535,-2.22,-2.1605,-2.0652,-2.0652,-2.0652,-2.0652,-2.016,-1.9789,-1.9406,-1.9046,-1.8673,-1.8049,-1.7413,-1.6388,-1.4728,-1.1673,-1.0403,-1.0274,-0.8872,-0.8359,-0.8359,-0.8359,-0.8359,-0.8229,-0.783,-0.77,-0.7445,-0.6929,-0.6799,-0.6535,-0.601,-0.5876,-0.5746,-0.5489,-0.47,-0.3913,-0.3913,-0.3003,-0.2091,-0.2091,-0.183,-0.1567,-0.1176,0.0,0.0783,0.013,0.1958,0.3399,0.2221,0.3268,0.3923,0.3007,0.3662,0.4318,0.4445,0.4445,0.4706,0.5355,0.5482,0.5482,0.5738,0.5094,0.5355,0.6916,0.781,0.8967,1.0661,1.2328,1.3613,1.4512,1.5914,1.6922,1.7527,1.8174,1.8174,1.7663,1.8174,1.8174,0.0,0.0,0.0,0.0,0.0,0.0,0.0,0.0,0.0,0.0,0.0,-2.4661,-2.5169,0.0,-2.5965,-2.6302,-2.6972,-2.7791,-2.8483,-2.9373,-3.0013,-3.0419,-3.0782,-3.0897,-3.0778,-3.0275,-2.9955,-2.9955,-2.9387,-2.8683,-2.7628,-2.6914,-2.5625,-2.3963,-2.3739,-2.2912,-2.1497,-2.1483,-2.113,-2.0652,-2.016,-1.9913,-1.9653,-1.9294,-1.8934,-1.8809,-1.856,-1.7663,-1.6126,-1.4222,-1.244,-1.0789,-0.9894,-0.9507,-0.9243,-0.8613,-0.8359,-0.8359,-0.8094,-0.7964,-0.77,-0.7181,-0.7051,-0.6925,-0.64,-0.6404,-0.6535,-0.6274,-0.5746,-0.5221,-0.5221,-0.47,-0.4179,-0.4179,-0.3655,-0.3133,-0.3001,-0.1828,-0.0914,-0.1174,0.0,0.1045,0.0784,0.1305,0.1435,0.0913,0.1304,0.1827,0.2483,0.2746,0.3102,0.3388,0.3928,0.4195,0.3757,0.3807,0.4249,0.5225,0.6396,0.7815,0.9888,1.0918,1.1823,1.2728,1.3859,1.4874,1.5768,1.6388,1.7026,1.7527,1.7549,1.7173,0.0,0.0,0.0,0.0,0.0,0.0,0.0,0.0,0.0,0.0,0.0,0.0,0.0,0.0,0.0,-2.5814,-2.7047,-2.7912,-2.811,-2.9717,-3.0748,-3.0644,-3.0476,-3.0586,-3.1365,-3.0582,-3.0009,-2.9936,-2.9955,-2.9369,-2.809,-2.7975,-2.7164,-2.5405,-2.5287,-2.4456,-2.2791,-2.2443,-2.1849,-2.0885,-2.0393,0.0,-2.0024,-1.9418,-1.9182,-1.9046,-1.8685,-1.8038,-1.7015,-1.6639,-1.4611,-1.1808,-1.1552,-1.1289,-1.0769,-0.9125,-0.8489,-0.8483,-0.8359,-0.8094,-0.783,-0.7565,-0.7436,-0.7306,-0.6661,-0.6665,0.0,-0.6404,-0.6274,-0.627,-0.627,-0.627,-0.627,-0.627,-0.5352,-0.4697,-0.4697,-0.3525,-0.2481,-0.2481,-0.1959,-0.1437,-0.0783,-0.1168,-0.1418,-0.1283,-0.1026,-0.0513,0.0514,0.0904,0.1273,0.1577,0.2481,0.3002,0.2563,0.3173,0.374,0.4304,0.525,0.6819,0.8944,0.9242,0.985,1.0743,1.1767,1.2887,1.3888,1.4751,1.5794,1.713,1.5561,1.483,0.0,0.0,0.0,0.0,0.0,0.0,0.0,0.0,0.0,0.0,0.0,0.0,0.0,0.0,0.0,0.0,-2.6055,-2.6743,-2.8477,-2.9731,-3.0378,-2.9733,-3.0457,-3.0803,-3.0333,-3.022,-3.0015,-2.9898,-2.9955,-2.9842,-2.9728,-2.9424,0.0,0.0,0.0,-2.5641,-2.4083,-2.2912,-2.2335,-2.2093,-2.1007,-2.0406,-2.0024,-1.9913,-1.9789,-1.9418,-1.9046,-1.8934,-1.8673,-1.8299,-1.7026,-1.5243,-1.4086,-1.3451,-1.2695,-0.9888,-0.8866,-0.8866,-0.8489,0.0,0.0,-0.783,-0.77,-0.77,-0.7306,-0.7051,-0.6799,-0.6799,-0.6535,-0.627,-0.627,-0.627,-0.627,-0.627,-0.614,-0.601,-0.601,-0.4961,-0.4307,-0.5485,-0.3396,-0.1959,-0.3129,-0.3189,-0.286,-0.2062,-0.1208,-0.0604,-0.0483,-0.0495,0.0,0.1619,0.1789,0.0,0.3888,0.3664,0.3732,0.429,0.4505,0.5116,0.6108,0.6957,0.7666,0.8182,1.0657,1.253,1.3594,1.5057,1.5758,1.5698,1.1031,1.0294,0.0,0.0,0.0,0.0,0.0,0.0,0.0,0.0,0.0,0.0,0.0,0.0,0.0,0.0,0.0,0.0,-2.6169,-2.7069,-2.7374,-2.817,-2.9257,-3.0754,-3.0516,-3.0567,-3.1367,-3.1327,-3.0839,-3.0054,-3.0654,-3.0612,-2.9955,-2.9861,-2.9406,-2.8605,-2.8374,-2.7431,-2.5641,-2.5066,-2.3994,-2.2321,-2.1849,-2.1252,-2.0406,-2.0147,-1.9913,-1.9789,-1.9294,-1.9058,-1.9058,-1.8685,-1.7913,-1.7141,0.0,0.0,0.0,0.0,-1.1666,-0.9888,-0.8743,-0.8359,-0.8359,-0.7959,-0.7964,-0.7964,-0.7565,-0.744,-0.7315,-0.7181,-0.7051,-0.6791,-0.6665,-0.6535,-0.6535,-0.6274,-0.627,-0.627,-0.627,-0.5746,-0.5616,-0.614,-0.5225,0.0,-0.5088,-0.504,-0.4851,-0.4543,-0.4157,-0.3525,-0.2769,-0.2544,-0.2151,-0.1469,0.0125,0.1266,0.1493,0.2656,0.0,0.0,0.0,0.51,0.5338,0.6142,0.0,0.0,0.0,0.9303,1.0294,1.0431,0.0,0.0,0.995,0.945,0.0,0.0,0.0,0.0,0.0,0.0,0.0,0.0,0.0,0.0,0.0,0.0,0.0,0.0,0.0,0.0,-2.5054,-2.6299,-2.5998,-2.6573,-2.783,-2.996,-2.9723,-2.9855,-3.1041,-3.0889,-3.0479,-2.9912,-3.0538,-3.0484,-2.9613,-2.9841,-2.9861,-2.9576,-2.9576,-2.8852,-2.7315,-2.6948,-2.5658,-2.3514,-2.3153,-2.2564,-2.1605,-2.0994,-2.0626,-2.0626,-1.9542,-1.917,-1.917,-1.8685,-1.8299,-1.8151,-1.7891,-1.713,-1.6,-1.5486,-1.3451,-1.0782,-0.8996,-0.8359,-0.8359,-0.7964,-0.8094,-0.8229,-0.783,-0.77,-0.77,-0.7565,-0.7436,-0.7306,-0.7055,-0.6925,-0.6925,-0.6535,-0.6404,-0.6404,-0.627,-0.627,-0.627,-0.627,-0.6274,-0.6388,-0.6336,-0.6199,-0.6183,-0.6131,-0.6127,-0.5742,-0.4845,-0.4489,-0.4189,-0.3653,-0.1616,-0.0376,-0.0368,0.1578,0.309,0.3781,0.4443,0.4807,0.4958,0.5326,0.5755,0.6299,0.648,0.699,0.0,0.0,0.0,0.0,0.0,0.0,0.0,0.0,0.0,0.0,0.0,0.0,0.0,0.0,0.0,0.0,0.0,0.0,0.0,0.0,0.0,0.0,0.0,0.0,-2.4585,-2.5524,-2.6079,-2.6075,-2.7792,-2.8683,-2.8033,-2.8046,-2.8305,-2.897,-2.8923,-2.8887,-2.8778,-2.9518,-2.9861,-2.9576,-2.9576,-2.9347,-2.91,-2.7877,-2.6931,-2.6481,-2.5287,-2.4575,-2.4202,-2.2912,-2.2321,-2.22,-2.0257,-1.9406,-1.9406,-1.8685,-1.8435,-1.8299,-1.7369,-1.6743,-1.6377,-1.4991,-1.3205,-1.116,-0.9125,-0.8359,-0.8359,-0.8359,-0.8359,-0.8359,-0.8359,-0.8094,-0.783,-0.783,-0.7565,-0.7436,-0.7436,-0.7306,-0.7306,-0.6925,-0.6799,-0.6669,-0.6274,-0.627,-0.627,-0.627,-0.6535,-0.6739,-0.668,-0.6266,-0.5957,-0.5906,-0.5878,0.0,-0.5758,-0.5909,-0.5256,-0.3493,-0.3455,-0.2603,-0.0261,0.0469,0.1383,0.2465,0.3174,0.3832,0.4299,0.3873,0.3676,0.3785,0.5579,0.6821,0.7737,0.0,0.0,0.0,0.0,0.0,0.0,0.0,0.0,0.0,0.0,0.0,0.0,0.0,0.0,0.0,0.0,0.0,0.0,0.0,0.0,0.0,0.0,0.0,0.0,-2.4462,-2.6021,-2.8599,-2.8283,-2.7669,-2.743,-2.7777,-2.7756,-2.717,-2.8367,-2.8705,-2.7905,-2.8702,-2.9158,-2.9066,-2.9464,-2.9652,-2.9462,-2.8967,-2.8126,-2.7048,-2.6363,-2.5523,-2.4694,-2.3978,-2.3138,-2.2321,-2.1483,-2.0639,-1.9777,-1.9294,-1.8624,-1.7739,-1.714,-1.6904,-1.6668,-1.6196,-1.4988,-1.3299,-1.258,-1.1142,-0.9465,-0.8501,-0.8017,-0.7889,-0.7889,-0.787,-0.7869,-0.7869,-0.7976,-0.7964,-0.77,-0.77,-0.757,-0.731,-0.7181,-0.7181,-0.7046,-0.7046,-0.7046,-0.7046,-0.7583,-0.7741,-0.654,-0.6689,-0.6667,-0.5982,-0.6235,-0.6349,-0.6092,-0.6147,-0.5922,-0.5277,-0.4279,-0.3131,-0.1828,0.0126,0.163,0.2478,0.3406,0.4148,0.4309,0.4162,0.4181,0.4625,0.5596,0.5672,0.494,0.0,0.0,0.0,0.0,0.0,0.0,0.0,0.0,0.0,0.0,0.0,0.0,0.0,0.0,0.0,0.0,0.0,0.0,0.0,0.0,0.0,0.0,0.0,0.0,0.0,0.0,-2.8612,-2.8035,0.0,-2.6081,-2.5733,-2.5155,-2.4244,-2.5309,-2.592,-2.5917,-2.6781,-2.7561,-2.8265,-2.8797,-2.8991,-2.8789,-2.8789,-2.8198,-2.7029,-2.6709,-2.6282,-2.5632,-2.4918,-2.3987,-2.3018,-2.2067,-2.0916,-1.9719,-1.9396,-1.8546,-1.7477,-1.6962,-1.6538,-1.6275,-1.6476,-1.5418,-1.3991,-1.3842,-1.2207,-0.988,-0.8712,-0.8119,-0.7954,-0.7642,-0.7716,-0.7941,-0.7697,-0.7902,-0.8014,-0.7685,-0.7662,-0.7597,-0.7345,-0.7345,-0.7219,-0.7093,-0.7466,-0.7713,-0.7466,-0.7849,-0.7818,-0.6594,-0.691,-0.6976,-0.6231,-0.6562,-0.6688,-0.651,-0.6274,-0.627,-0.627,-0.5221,-0.4176,-0.3268,-0.1176,0.0653,0.183,0.3007,0.3793,0.4318,0.4406,0.4555,0.4618,0.5171,0.4846,0.0,0.0,0.0,0.0,0.0,0.0,0.0,0.0,0.0,0.0,0.0,0.0,0.0,0.0,0.0,0.0,0.0,0.0,0.0,0.0,0.0,0.0,0.0,0.0,0.0,0.0,0.0,-2.5873,-2.6904,0.0,0.0,0.0,0.0,-2.0313,-2.0209,-2.1009,-2.2824,-2.3824,-2.5216,-2.7145,-2.7297,-2.7392,-2.7364,-2.7364,-2.7156,-2.6615,-2.6615,-2.6825,-2.6932,-2.5692,-2.4794,-2.4064,-2.2011,-2.0401,-1.9229,-1.878,-1.8186,-1.7312,-1.6626,-1.5834,-1.5096,-1.5456,-1.4591,-1.3136,-1.2925,-1.1611,-0.977,-0.8954,-0.8709,-0.8531,-0.761,-0.7637,0.0,0.0,-0.7243,-0.738,-0.7355,-0.7424,-0.7491,-0.73,-0.719,-0.7066,-0.6704,-0.7527,-0.8216,-0.7705,-0.7352,-0.7132,-0.6821,0.0,-0.6864,-0.6625,-0.664,-0.6818,-0.6811,-0.6518,-0.627,-0.627,-0.627,-0.5753,-0.4448,-0.3264,-0.1564,0.0782,0.1953,0.2993,0.4169,0.4557,0.4355,0.3626,0.4516,0.0,0.0,0.0,0.0,0.0,0.0,0.0,0.0,0.0,0.0,0.0,0.0,0.0,0.0,0.0,0.0,0.0,0.0,0.0,0.0,0.0,0.0,0.0,0.0,0.0,0.0,-2.0972,-2.2839,-2.5608,-2.443,-2.2798,0.0,0.0,0.0,0.0,0.0,0.0,-2.0052,-2.1602,-2.2996,-2.4206,-2.56,-2.669,-2.7364,-2.7364,-2.7364,-2.726,-2.7052,-2.6831,-2.6716,-2.6219,-2.4793,-2.2823,-2.2209,-2.0807,-1.8754,-1.6866,-1.5822,-1.5401,-1.4625,-1.3868,-1.3193,-1.3919,-1.3527,-1.2736,-1.3653,-1.2907,-1.1474,-1.0811,-0.9634,-0.8431,-0.7266,0.0,0.0,0.0,0.0,-0.7338,-0.743,-0.7456,-0.7435,-0.7529,-0.7537,-0.7418,-0.7294,-0.7527,-0.767,-0.7369,-0.7826,-0.7849,-0.6076,-0.6584,0.0,-0.5856,-0.6219,-0.6725,-0.6813,-0.6399,-0.627,-0.627,-0.627,-0.588,-0.5094,-0.346,-0.1772,0.0,0.1612,0.2941,0.3925,0.3499,0.3255,0.3146,0.0,0.0,0.0,0.0,0.0,0.0,0.0,0.0,0.0,0.0,0.0,0.0,0.0,0.0,0.0,0.0,0.0,0.0,0.0,0.0,0.0,0.0,0.0,0.0,0.0,0.0,0.0,-1.7931,-2.0885,-2.3912,-2.258,-2.0898,0.0,0.0,0.0,0.0,0.0,0.0,0.0,0.0,0.0,-2.1291,-2.2432,-2.3454,-2.4413,-2.4833,-2.5113,-2.5362,-2.5631,-2.5769,-2.5791,-2.5188,-2.3979,-2.2298,-2.1377,-1.979,-1.7792,-1.6432,-1.4999,-1.3678,0.0,0.0,0.0,0.0,-1.1337,-1.113,-1.1459,-1.1202,-1.0593,-0.9354,0.0,0.0,0.0,0.0,0.0,0.0,0.0,-0.7325,-0.6743,-0.7366,-0.8027,-0.748,-0.7458,-0.7458,-0.735,-0.7284,-0.7105,-0.6655,-0.7097,-0.6991,-0.5361,-0.5853,0.0,0.0,0.0,-0.6284,-0.6594,-0.6303,-0.604,-0.604,-0.6108,-0.5869,-0.5039,-0.389,-0.2365,-0.0246,0.1088,0.2248,0.3105,0.3196,0.288,0.0,0.0,0.0,0.0,0.0,0.0,0.0,0.0,0.0,0.0,0.0,0.0,0.0,0.0,0.0,0.0,0.0,0.0,0.0,0.0,0.0,0.0,0.0,0.0,0.0,0.0,0.0,0.0,0.0,-1.8386,-2.118,0.0,0.0,0.0,0.0,0.0,0.0,0.0,0.0,0.0,0.0,0.0,0.0,0.0,-1.8901,-2.0004,-2.089,-2.1548,-2.1967,-2.299,-2.3559,-2.3642,-2.2752,-2.2117,-2.1554,-1.9384,0.0,-1.6665,-1.6132,0.0,0.0,0.0,0.0,0.0,0.0,0.0,0.0,0.0,0.0,0.0,0.0,0.0,0.0,0.0,0.0,0.0,0.0,0.0,0.0,0.0,0.0,-0.8608,-0.7346,-0.7299,-0.7416,-0.7017,-0.6843,-0.6542,-0.5934,-0.5828,-0.5527,0.0,0.0,0.0,0.0,0.0,0.0,-0.6356,-0.6042,-0.5862,-0.5862,-0.5881,-0.5668,-0.4924,-0.4281,-0.2937,-0.0357,0.0469,0.1245,0.2227,0.3085,0.0,0.0,0.0,0.0,0.0,0.0,0.0,0.0,0.0,0.0,0.0,0.0,0.0,0.0,0.0,0.0,0.0,0.0,0.0,0.0,0.0,0.0,0.0,0.0,0.0,0.0,0.0,0.0,0.0,0.0,0.0,0.0,0.0,0.0,0.0,0.0,0.0,0.0,0.0,0.0,0.0,0.0,0.0,0.0,0.0,0.0,0.0,0.0,0.0,0.0,-1.885,-1.9082,-1.8534,-1.8298,-1.8148,-1.8057,-1.5828,-1.5605,-1.6607,-1.3193,0.0,0.0,0.0,0.0,0.0,0.0,0.0,0.0,0.0,0.0,0.0,0.0,0.0,0.0,0.0,0.0,0.0,0.0,0.0,0.0,0.0,0.0,-0.7754,-0.744,-0.7865,-0.8106,-0.7084,0.0,0.0,0.0,0.0,0.0,0.0,0.0,0.0,0.0,0.0,0.0,-0.6267,-0.6103,-0.5862,-0.5862,-0.589,-0.5774,-0.5627,-0.4467,-0.3011,-0.1036,-0.0104,0.1049,0.0,0.0,0.0,0.0,0.0,0.0,0.0,0.0,0.0,0.0,0.0,0.0,0.0,0.0,0.0,0.0,0.0,0.0,0.0,0.0,0.0,0.0,0.0,0.0,0.0,0.0,0.0,0.0,0.0,0.0,0.0,0.0,0.0,0.0,0.0,0.0,0.0,0.0,0.0,0.0,0.0,0.0,0.0,0.0,0.0,0.0,0.0,0.0,0.0,0.0,0.0,0.0,0.0,0.0,0.0,0.0,0.0,0.0,-1.4461,-1.3106,0.0,0.0,0.0,0.0,0.0,0.0,0.0,0.0,0.0,0.0,0.0,0.0,0.0,0.0,0.0,0.0,0.0,0.0,0.0,0.0,0.0,0.0,0.0,0.0,0.0,0.0,0.0,0.0,0.0,0.0,0.0,0.0,0.0,0.0,0.0,0.0,0.0,0.0,0.0,0.0,-0.6164,-0.6111,-0.5927,-0.5704,-0.5786,-0.5803,-0.5598,-0.4452,-0.3108,-0.186,-0.0568,0.0,0.0,0.0,0.0,0.0,0.0,0.0,0.0,0.0,0.0,0.0,0.0,0.0,0.0,0.0,0.0,0.0,0.0,0.0,0.0,0.0,0.0,0.0,0.0,0.0,0.0,0.0,0.0,0.0,0.0,0.0,0.0,0.0,0.0,0.0,0.0,0.0,0.0,0.0,0.0,0.0,0.0,0.0,0.0,0.0,0.0,0.0,0.0,0.0,0.0,0.0,0.0,0.0,0.0,0.0,0.0,0.0,0.0,0.0,-1.3278,-1.0915,0.0,0.0,0.0,0.0,0.0,0.0,0.0,0.0,0.0,0.0,0.0,0.0,0.0,0.0,0.0,0.0,0.0,0.0,0.0,0.0,0.0,0.0,0.0,0.0,0.0,0.0,0.0,0.0,0.0,0.0,0.0,0.0,0.0,0.0,0.0,0.0,0.0,0.0,0.0,0.0,-0.657,-0.6548,-0.63,-0.6094,-0.59,-0.5596,-0.5238,-0.4238,-0.3216,-0.2148,-0.0957,0.0,0.0,0.0,0.0,0.0,0.0,0.0,0.0,0.0,0.0,0.0,0.0,0.0,0.0,0.0,0.0,0.0,0.0,0.0,0.0,0.0,0.0,0.0,0.0,0.0,0.0,0.0,0.0,0.0,0.0,0.0,0.0,0.0,0.0,0.0,0.0,0.0,0.0,0.0,0.0,0.0,0.0,0.0,0.0,0.0,0.0,0.0,0.0,0.0,0.0,0.0,0.0,0.0,0.0,0.0,0.0,0.0,0.0,0.0,0.0,0.0,0.0,0.0,0.0,0.0,0.0,0.0,0.0,0.0,0.0,0.0,0.0,0.0,0.0,0.0,0.0,0.0,0.0,0.0,0.0,0.0,0.0,0.0,0.0,0.0,0.0,0.0,0.0,0.0,0.0,0.0,0.0,0.0,0.0,0.0,0.0,0.0,0.0,0.0,0.0,0.0,-0.8149,-0.7929,-0.7577,-0.7577,-0.6433,-0.5468,-0.4905,-0.4038,-0.2925,-0.1585,0.0,0.0,0.0,0.0,0.0,0.0,0.0,0.0,0.0,0.0,0.0,0.0,0.0,0.0,0.0,0.0,0.0,0.0,0.0,0.0,0.0,0.0,0.0,0.0,0.0,0.0,0.0,0.0,0.0,0.0,0.0,0.0,0.0,0.0,0.0,0.0,0.0,0.0,0.0,0.0,0.0,0.0,0.0,0.0,0.0,0.0,0.0,0.0,0.0,0.0,0.0,0.0,0.0,0.0,0.0,0.0,0.0,0.0,0.0,0.0,0.0,0.0,0.0,0.0,0.0,0.0,0.0,0.0,0.0,0.0,0.0,0.0,0.0,0.0,0.0,0.0,0.0,0.0,0.0,0.0,0.0,0.0,0.0,0.0,0.0,0.0,0.0,0.0,0.0,0.0,0.0,0.0,0.0,0.0,0.0,0.0,0.0,0.0,0.0,0.0,0.0,0.0,-0.8666,-0.9054,-0.897,-0.8114,-0.7368,-0.6516,-0.5448,-0.4463,-0.3646,-0.2847,0.0,0.0,0.0,0.0,0.0,0.0,0.0,0.0,0.0,0.0,0.0,0.0,0.0,0.0,0.0,0.0,0.0,0.0,0.0,0.0,0.0,0.0,0.0,0.0,0.0,0.0,0.0,0.0,0.0,0.0,0.0,0.0,0.0,0.0,0.0,0.0,0.0,0.0,0.0,0.0,0.0,0.0,0.0,0.0,0.0,0.0,0.0,0.0,0.0,0.0,0.0,0.0,0.0,0.0,0.0,0.0,0.0,0.0,0.0,0.0,0.0,0.0,0.0,0.0,0.0,0.0,0.0,0.0,0.0,0.0,0.0,0.0,0.0,0.0,0.0,0.0,0.0,0.0,0.0,0.0,0.0,0.0,0.0,0.0,0.0,0.0,0.0,0.0,0.0,0.0,0.0,0.0,0.0,0.0,0.0,0.0,0.0,0.0,0.0,0.0,0.0,0.0,-0.9481,-1.0359,-1.0471,-0.9398,-0.8435,-0.7261,-0.6094,-0.496,-0.4029,-0.341,0.0,0.0,0.0,0.0,0.0,0.0,0.0,0.0,0.0,0.0,0.0,0.0,0.0,0.0,0.0,0.0,0.0,0.0,0.0,0.0,0.0,0.0,0.0,0.0,0.0,0.0,0.0,0.0,0.0,0.0,0.0,0.0,0.0,0.0,0.0,0.0,0.0,0.0,0.0,0.0,0.0,0.0,0.0,0.0,0.0,0.0,0.0,0.0,0.0,0.0,0.0,0.0,0.0,0.0,0.0,0.0,0.0,0.0,0.0,0.0,0.0,0.0,0.0,0.0,0.0,0.0,0.0,0.0,0.0,0.0,0.0,0.0,0.0,0.0,0.0,0.0,0.0,0.0,0.0,0.0,0.0,0.0,0.0,0.0,0.0,0.0,0.0,0.0,0.0,0.0,0.0,0.0,0.0,0.0,0.0,0.0,0.0,0.0,0.0,0.0,0.0,0.0,-1.1081,-1.1668,-1.2069,-1.1963,-0.9497,-0.7577,-0.7051,-0.5161,-0.3726,0.0,0.0,0.0,0.0,0.0,0.0,0.0,0.0,0.0,0.0,0.0,0.0,0.0,0.0,0.0,0.0,0.0,0.0,0.0,0.0,0.0,0.0,0.0,0.0,0.0,0.0,0.0,0.0,0.0,0.0,0.0,0.0,0.0,0.0,0.0,0.0,0.0,0.0,0.0,0.0,0.0,0.0,0.0,0.0,0.0,0.0,0.0,0.0,0.0,0.0,0.0,0.0,0.0,0.0,0.0,0.0,0.0,0.0,0.0,0.0,0.0,0.0,0.0,0.0,0.0,0.0,0.0,0.0,0.0,0.0,0.0,0.0,0.0,0.0,0.0,0.0,0.0,0.0,0.0,0.0,0.0,0.0,0.0,0.0,0.0,0.0,0.0,0.0,0.0,0.0,0.0,0.0,0.0,0.0,0.0,0.0,0.0,0.0,0.0,0.0,0.0,0.0,0.0,-1.1017,-1.1899,-1.223,-1.2082,-1.0781,-0.9497,-0.8543,-0.6874,-0.5301,-0.4249,0.0,0.0,0.0,0.0,0.0,0.0,0.0,0.0,0.0,0.0,0.0,0.0,0.0,0.0,0.0,0.0,0.0,0.0,0.0,0.0,0.0,0.0,0.0,0.0,0.0,0.0,0.0,0.0,0.0,0.0,0.0,0.0,0.0,0.0,0.0,0.0,0.0,0.0,0.0,0.0,0.0,0.0,0.0,0.0,0.0,0.0,0.0,0.0,0.0,0.0,0.0,0.0,0.0,0.0,0.0,0.0,0.0,0.0,0.0,0.0,0.0,0.0,0.0,0.0,0.0,0.0,0.0,0.0,0.0,0.0,0.0,0.0,0.0,0.0,0.0,0.0,0.0,0.0,0.0,0.0,0.0,0.0,0.0,0.0,0.0,0.0,0.0,0.0,0.0,0.0,0.0,0.0,0.0,0.0,0.0,0.0,0.0,0.0,0.0,0.0,0.0,0.0,0.0,-1.2318,-1.2906,-1.2729,-1.1637,-1.0569,-0.9824,-0.7715,-0.6072,-0.5105,0.0,0.0,0.0,0.0,0.0,0.0,0.0,0.0,0.0,0.0,0.0,0.0,0.0,0.0,0.0,0.0,0.0,0.0,0.0,0.0,0.0,0.0,0.0,0.0,0.0,0.0,0.0,0.0,0.0,0.0,0.0,0.0,0.0,0.0,0.0,0.0,0.0,0.0,0.0,0.0,0.0,0.0,0.0,0.0,0.0,0.0,0.0,0.0,0.0,0.0,0.0,0.0,0.0,0.0,0.0,0.0,0.0,0.0,0.0,0.0,0.0,0.0,0.0,0.0,0.0,0.0,0.0,0.0,0.0,0.0,0.0,0.0,0.0,0.0,0.0,0.0,0.0,0.0,0.0,0.0,0.0,0.0,0.0,0.0,0.0,0.0,0.0,0.0,0.0,0.0,0.0,0.0,0.0,0.0,0.0,0.0,0.0,0.0,0.0,0.0,0.0,0.0,0.0,-1.2789,-1.376,-1.3761,-1.206,-1.0993,-1.0887,-0.8081,-0.6108,-0.5559,-0.3904,0.0,0.0,0.0,0.0,0.0,0.0,0.0,0.0,0.0,0.0,0.0,0.0,0.0,0.0,0.0,0.0,0.0,0.0,0.0,0.0,0.0,0.0,0.0,0.0,0.0,0.0,0.0,0.0,0.0,0.0,0.0,0.0,0.0,0.0,0.0,0.0,0.0,0.0,0.0,0.0,0.0,0.0,0.0,0.0,0.0,0.0,0.0,0.0,0.0,0.0,0.0,0.0,0.0,0.0,0.0,0.0,0.0,0.0,0.0,0.0,0.0,0.0,0.0,0.0,0.0,0.0,0.0,0.0,0.0,0.0,0.0,0.0,0.0,0.0,0.0,0.0,0.0,0.0,0.0,0.0,0.0,0.0,0.0,0.0,0.0,0.0,0.0,0.0,0.0,0.0,0.0,0.0,0.0,0.0,0.0,0.0,0.0,0.0,0.0,0.0,0.0,0.0,-1.2118,-1.2887,-1.3126,-1.2385,-1.1655,-1.1248,-0.8821,-0.6866,-0.6088,-0.4171,0.0,0.0,0.0,0.0,0.0,0.0,0.0,0.0,0.0,0.0,0.0,0.0,0.0,0.0,0.0,0.0,0.0,0.0,0.0,0.0,0.0,0.0,0.0,0.0,0.0,0.0,0.0,0.0,0.0,0.0,0.0,0.0,0.0,0.0,0.0,0.0,0.0,0.0,0.0,0.0,0.0,0.0,0.0,0.0,0.0,0.0,0.0,0.0,0.0,0.0,0.0,0.0,0.0,0.0,0.0,0.0,0.0,0.0,0.0,0.0,0.0,0.0,0.0,0.0,0.0,0.0,0.0,0.0,0.0,0.0,0.0,0.0,0.0,0.0,0.0,0.0,0.0,0.0,0.0,0.0,0.0,0.0,0.0,0.0,0.0,0.0,0.0,0.0,0.0,0.0,0.0,0.0,0.0,0.0,0.0,0.0,0.0,0.0,0.0,0.0,0.0,0.0,-1.1043,-1.2395,-1.3242,-1.2596,-1.1972,-1.1664,-0.9444,-0.7615,-0.6697,-0.4697,0.0,0.0,0.0,0.0,0.0,0.0,0.0,0.0,0.0,0.0,0.0,0.0,0.0,0.0,0.0,0.0,0.0,0.0,0.0,0.0,0.0,0.0,0.0,0.0,0.0,0.0,0.0,0.0,0.0,0.0,0.0,0.0,0.0,0.0,0.0,0.0,0.0,0.0,0.0,0.0,0.0,0.0,0.0,0.0,0.0,0.0,0.0,0.0,0.0,0.0,0.0,0.0,0.0,0.0,0.0,0.0,0.0,0.0,0.0,0.0,0.0,0.0,0.0,0.0,0.0,0.0,0.0,0.0,0.0,0.0,0.0,0.0,0.0,0.0,0.0,0.0,0.0,0.0,0.0,0.0,0.0,0.0,0.0,0.0,0.0,0.0,0.0,0.0,0.0,0.0,0.0,0.0,0.0,0.0,0.0,0.0,0.0,0.0,0.0,0.0,0.0,0.0,0.0,-1.2008,-1.3379,-1.2695,-1.1977,-1.1767,-0.9875,-0.8201,-0.7077,0.0,0.0,0.0,0.0,0.0,0.0,0.0,0.0,0.0,0.0,0.0,0.0,0.0,0.0,0.0,0.0,0.0,0.0,0.0,0.0,0.0,0.0,0.0,0.0,0.0,0.0,0.0,0.0,0.0,0.0,0.0,0.0,0.0,0.0,0.0,0.0,0.0,0.0,0.0,0.0,0.0,0.0,0.0,0.0,0.0,0.0,0.0,0.0,0.0,0.0,0.0,0.0,0.0,0.0,0.0,0.0,0.0,0.0,0.0,0.0,0.0,0.0,0.0,0.0,0.0,0.0,0.0,0.0,0.0,0.0,0.0,0.0,0.0,0.0,0.0,0.0,0.0,0.0,0.0,0.0,0.0,0.0,0.0,0.0,0.0,0.0,0.0,0.0,0.0,0.0,0.0,0.0,0.0,0.0,0.0,0.0,0.0,0.0,0.0,0.0,0.0,0.0,0.0,0.0,-1.107,-1.2062,-1.2199,-1.1674,-1.0362,-0.9516,-0.8318,-0.6511,0.0,0.0,0.0,0.0,0.0,0.0,0.0,0.0,0.0,0.0,0.0,0.0,0.0,0.0]}]]]